[[{"header":{"parameterUnit":"m.s-1","parameterCategory":1,"la1":31.0,"la2":29.5877,"lo1":-88.7671,"lo2":-86.6584,"dx":0.0162,"dy":0.0185,"nx":115,"ny":88,"refTime":"2022-12-27T06:00:00:Z","depth":0,"parameterNumber":2,"parameterNumberName":"U-component_of_WINDS"},"data":[0.0,0.0,0.0,0.0,0.0,0.0,0.0,0.0,0.0,0.0,0.0,0.0,0.0,0.0,0.0,0.0,0.0,0.0,0.0,0.0,0.0,0.0,0.0,0.0,0.0,0.0,0.0,0.0,0.0,0.0,0.0,0.0,0.0,0.0,0.0,0.0,0.0,0.0,0.0,0.0,0.0,0.0,0.0,0.0,0.0,0.0,0.0,0.0,0.0,0.0,0.0,0.0,0.0,0.0,0.0,0.0,0.0,0.0,0.0,0.0,0.0,0.0,0.0,0.0,0.0,0.0,0.0,0.0,0.0,0.0,0.0,0.0,0.0,0.0,0.0,0.0,0.0,0.0,0.0,0.0,0.0,0.0,0.0,0.0,0.0,0.0,0.0,0.0,0.0,0.0,0.0,0.0,0.0,0.0,0.0,0.0,0.0,0.0,0.0,0.0,0.0,0.0,0.0,0.0,0.0,0.0,0.0,0.0,0.0,0.0,0.0,0.0,0.0,0.0,0.0,0.0,0.0,0.0,0.0,0.0,0.0,0.0,0.0,0.0,0.0,0.0,0.0,0.0,0.0,0.0,0.0,0.0,0.0,0.0,0.0,0.0,0.0,0.0,0.0,0.0,0.0,0.0,0.0,0.0,0.0,0.0,0.0,0.0,0.0,0.0,0.0,0.0,0.0,0.0,0.0,0.0,0.0,0.0,0.0,0.0,0.0,0.0,0.0,0.0,0.0,0.0,0.0,0.0,0.0,0.0,0.0,0.0,0.0,0.0,0.0,0.0,0.0,0.0,0.0,0.0,0.0,0.0,0.0,0.0,0.0,0.0,0.0,0.0,0.0,0.0,0.0,0.0,0.0,0.0,0.0,0.0,0.0,0.0,0.0,0.0,0.0,0.0,0.0,0.0,0.0,0.0,0.0,0.0,0.0,0.0,0.0,0.0,0.0,0.0,0.0,0.0,0.0,0.0,0.0,0.0,0.0,0.0,0.0,0.0,0.0,0.0,0.0,0.0,0.0,0.0,0.0,0.0,0.0,0.0,0.0,0.0,0.0,0.0,0.0,0.0,0.0,0.0,0.0,0.0,0.0,0.0,0.0,0.0,0.0,0.0,0.0,0.0,0.0,0.0,0.0,0.0,0.0,0.0,0.0,0.0,0.0,0.0,0.0,0.0,0.0,0.0,0.0,0.0,0.0,0.0,0.0,0.0,0.0,0.0,0.0,0.0,0.0,0.0,0.0,0.0,0.0,0.0,0.0,0.0,0.0,0.0,0.0,0.0,0.0,0.0,0.0,0.0,0.0,0.0,0.0,0.0,0.0,0.0,0.0,0.0,0.0,0.0,0.0,0.0,0.0,0.0,0.0,0.0,0.0,0.0,0.0,0.0,0.0,0.0,0.0,0.0,0.0,0.0,0.0,0.0,0.0,0.0,0.0,0.0,0.0,0.0,0.0,0.0,0.0,0.0,0.0,0.0,0.0,0.0,0.0,0.0,0.0,0.0,0.0,0.0,0.0,0.0,0.0,0.0,0.0,0.0,0.0,0.0,0.0,0.0,0.0,0.0,0.0,0.0,0.0,0.0,0.0,0.0,0.0,0.0,0.0,0.0,0.0,0.0,0.0,0.0,0.0,0.0,0.0,0.0,0.0,0.0,0.0,0.0,0.0,0.0,0.0,0.0,0.0,0.0,0.0,0.0,0.0,0.0,0.0,0.0,0.0,0.0,0.0,0.0,0.0,0.0,0.0,0.0,0.0,0.0,0.0,0.0,0.0,0.0,0.0,0.0,0.0,0.0,0.0,0.0,0.0,0.0,0.0,0.0,0.0,0.0,0.0,0.0,0.0,0.0,0.0,0.0,0.0,0.0,0.0,0.0,0.0,0.0,0.0,0.0,0.0,0.0,0.0,0.0,0.0,0.0,0.0,0.0,0.0,0.0,0.0,0.0,0.0,0.0,0.0,0.0,0.0,0.0,0.0,0.0,0.0,0.0,0.0,0.0,0.0,0.0,0.0,0.0,0.0,0.0,0.0,0.0,0.0,0.0,0.0,0.0,0.0,0.0,0.0,0.0,0.0,0.0,0.0,0.0,0.0,0.0,0.0,0.0,0.0,0.0,0.0,0.0,0.0,0.0,0.0,0.0,0.0,0.0,0.0,0.0,0.0,0.0,0.0,0.0,0.0,0.0,0.0,0.0,0.0,0.0,0.0,0.0,0.0,0.0,0.0,0.0,0.0,0.0,0.0,0.0,0.0,0.0,0.0,0.0,0.0,0.0,0.0,0.0,0.0,0.0,0.0,0.0,0.0,0.0,0.0,0.0,0.0,0.0,0.0,0.0,0.0,0.0,0.0,0.0,0.0,0.0,0.0,0.0,0.0,0.0,0.0,0.0,0.0,0.0,0.0,0.0,0.0,0.0,0.0,0.0,0.0,0.0,0.0,0.0,0.0,0.0,0.0,0.0,0.0,0.0,0.0,0.0,0.0,0.0,0.0,0.0,0.0,0.0,0.0,0.0,0.0,0.0,0.0,0.0,0.0,0.0,0.0,0.0,0.0,0.0,0.0,0.0,0.0,0.0,0.0,0.0,0.0,0.0,0.0,0.0,0.0,0.0,0.0,0.0,0.0,0.0,0.0,0.0,0.0,0.0,0.0,0.0,0.0,0.0,0.0,0.0,0.0,0.0,0.0,0.0,0.0,0.0,0.0,0.0,0.0,0.0,0.0,0.0,0.0,0.0,0.0,0.0,0.0,0.0,0.0,0.0,0.0,0.0,0.0,0.0,0.0,0.0,0.0,0.0,0.0,0.0,0.0,0.0,0.0,0.0,0.0,0.0,0.0,0.0,0.0,0.0,0.0,0.0,0.0,0.0,0.0,0.0,0.0,0.0,0.0,0.0,0.0,0.0,0.0,0.0,0.0,0.0,0.0,0.0,0.0,0.0,0.0,0.0,0.0,0.0,0.0,0.0,0.0,0.0,0.0,0.0,0.0,0.0,0.0,0.0,0.0,0.0,0.0,0.0,0.0,0.0,0.0,0.0,0.0,0.0,0.0,0.0,0.0,0.0,0.0,0.0,0.0,0.0,0.0,0.0,0.0,0.0,0.0,0.0,0.0,0.0,0.0,0.0,0.0,0.0,0.0,0.0,0.0,0.0,0.0,0.0,0.0,0.0,0.0,0.0,0.0,0.0,0.0,0.0,0.0,0.0,0.0,0.0,0.0,0.0,0.0,0.0,0.0,0.0,0.0,0.0,0.0,0.0,0.0,0.0,0.0,0.0,0.0,0.0,0.0,0.0,0.0,0.0,0.0,0.0,0.0,0.0,0.0,0.0,0.0,0.0,0.0,0.0,0.0,0.0,0.0,0.0,0.0,0.0,0.0,0.0,0.0,0.0,0.0,0.0,0.0,0.0,0.0,0.0,0.0,0.0,0.0,0.0,0.0,0.0,0.0,0.0,0.0,0.0,0.0,0.0,0.0,0.0,0.0,0.0,0.0,0.0,0.0,0.0,0.0,0.0,0.0,0.0,0.0,0.0,0.0,0.0,0.0,0.0,0.0,0.0,0.0,0.0,0.0,0.0,0.0,0.0,0.0,0.0,0.0,0.0,0.0,0.0,0.0,0.0,0.0,0.0,0.0,0.0,0.0,0.0,0.0,0.0,0.0,0.0,0.0,0.0,0.0,0.0,0.0,0.0,0.0,0.0,0.0,0.0,0.0,0.0,0.0,0.0,0.0,0.0,0.0,0.0,0.0,0.0,0.0,0.0,0.0,0.0,0.0,0.0,0.0,0.0,0.0,0.0,0.0,0.0,0.0,0.0,0.0,0.0,0.0,0.0,0.0,0.0,0.0,0.0,0.0,0.0,0.0,0.0,0.0,0.0,0.0,0.0,0.0,0.0,0.0,0.0,0.0,0.0,0.0,0.0,0.0,0.0,0.0,0.0,0.0,0.0,0.0,0.0,0.0,0.0,0.0,0.0,0.0,0.0,0.0,0.0,0.0,0.0,0.0,0.0,0.0,0.0,0.0,0.0,0.0,0.0,0.0,0.0,0.0,0.0,0.0,0.0,0.0,0.0,0.0,0.0,0.0,0.0,0.0,0.0,0.0,0.0,0.0,0.0,0.0,0.0,0.0,0.0,0.0,0.0,0.0,0.0,0.0,0.0,0.0,0.0,0.0,0.0,0.0,0.0,0.0,0.0,0.0,0.0,0.0,0.0,0.0,0.0,0.0,0.0,0.0,0.0,0.0,0.0,0.0,0.0,0.0,0.0,0.5593,0.0,0.0,0.0,0.7865,0.0,0.0,0.0,0.0,0.0,0.0,0.0,0.0,0.0,0.0,0.0,0.0,0.0,0.0,0.0,0.0,0.0,0.0,0.0,0.0,0.0,0.0,0.0,0.0,0.0,0.0,0.0,0.0,0.0,0.0,0.0,0.0,0.0,0.0,0.0,0.0,0.0,0.0,0.0,0.0,0.0,0.0,0.0,0.0,0.0,0.0,0.0,0.0,0.0,0.0,0.0,0.0,0.0,0.0,0.0,0.0,0.0,0.0,0.0,0.0,0.0,0.0,0.0,0.0,0.0,0.0,0.0,0.0,0.0,0.0,0.0,0.0,0.0,0.0,0.0,0.0,0.0,0.0,0.0,0.0,0.0,0.0,0.0,0.0,0.0,0.0,0.0,0.0,0.0,0.0,0.0,0.0,0.0,0.0,0.0,0.0,0.0,0.0,0.0,0.0,0.0,0.0,0.0,0.0,0.0,0.0,0.0,0.0,0.0,0.0,0.572,0.6176,0.643,0.7015,0.7888,0.0,0.0,0.0,0.0,0.0,0.0,0.0,0.0,0.0,0.0,0.0,0.0,0.0,0.0,0.0,0.0,0.0,0.0,0.0,0.0,0.0,0.0,0.0,0.0,0.0,0.0,0.0,0.0,0.0,0.0,0.0,0.0,0.0,0.0,0.0,0.0,0.0,0.0,0.0,0.0,0.0,0.0,0.0,0.0,0.0,0.0,0.0,0.0,0.0,0.0,0.0,0.0,0.0,0.0,0.0,0.0,0.0,0.0,0.0,0.0,0.0,0.0,0.0,0.0,0.0,0.0,0.0,0.0,0.0,0.0,0.0,0.0,0.0,0.0,0.0,0.0,0.0,0.0,0.0,0.0,0.0,0.0,0.0,0.0,0.0,0.0,0.0,0.0,0.0,0.0,0.0,0.0,0.0,0.0,0.0,0.0,0.0,0.0,0.0,0.0,0.0,0.0,0.0,0.0,0.0,0.0,0.0,0.0,0.0,0.0,0.0,0.0,0.6726,0.731,0.7979,0.0,0.0,0.0,0.0,0.0,0.0,0.0,0.0,0.0,0.0,0.0,0.0,0.0,0.0,0.0,0.0,0.0,0.0,0.0,0.0,0.0,0.0,0.0,0.0,0.0,0.0,0.0,0.0,0.0,0.0,0.0,0.0,0.0,0.0,0.0,0.0,0.0,0.0,0.0,0.0,0.0,0.0,0.0,0.0,0.0,0.0,0.0,0.0,0.0,0.0,0.0,0.0,0.0,0.0,0.0,0.0,0.0,0.0,0.0,0.0,0.0,0.0,0.0,0.0,0.0,0.0,0.0,0.0,0.0,0.0,0.0,0.0,0.0,0.0,0.0,0.0,0.0,0.0,0.0,0.0,0.0,0.0,0.0,0.0,0.0,0.0,0.0,0.0,0.0,0.0,0.0,0.0,0.0,0.0,0.0,0.0,0.0,0.0,0.0,0.0,0.0,0.0,0.0,0.0,0.0,0.0,0.0,0.0,0.0,0.0,0.6061,0.6469,0.6922,0.0,0.8581,0.0,0.0,0.0,0.0,0.0,0.0,0.0,0.0,0.0,0.0,0.0,0.0,0.0,0.0,0.0,0.0,0.0,0.0,0.0,0.0,0.0,0.0,0.0,0.0,0.0,0.0,0.0,0.0,0.0,0.0,0.0,0.0,0.0,0.0,0.0,0.0,0.0,0.0,0.0,0.0,0.0,0.0,0.0,0.0,0.0,0.0,0.0,0.0,0.0,0.0,0.0,0.0,0.0,0.0,0.0,0.0,0.0,0.0,0.0,0.0,0.0,0.0,0.0,0.0,0.0,0.0,0.0,0.0,0.0,0.0,0.0,0.0,0.0,0.0,0.0,0.0,0.0,0.0,0.0,0.0,0.0,0.0,0.0,0.0,0.0,0.0,0.0,0.0,0.0,0.0,0.0,0.0,0.0,0.0,0.0,0.0,0.0,0.0,0.0,0.0,0.0,0.0,0.0,0.0,0.0,0.0,0.0,0.0,0.0,0.0,0.6413,0.6503,0.7233,0.8087,0.0,0.0,0.0,0.0,0.0,0.0,0.0,0.0,0.0,0.0,0.0,0.0,0.0,0.0,0.0,0.0,0.0,0.0,0.0,0.0,0.0,0.0,0.0,0.0,0.0,0.0,0.0,0.0,0.0,0.0,0.0,0.0,0.0,0.0,0.0,0.0,0.0,0.0,0.0,0.0,0.0,0.0,0.0,0.0,0.0,0.0,0.0,0.0,0.0,0.0,0.0,0.0,0.0,0.0,0.0,0.0,0.0,0.0,0.0,0.0,0.0,0.0,0.0,0.0,0.0,0.0,0.0,0.0,0.0,0.0,0.0,0.0,0.0,0.0,0.0,0.0,0.0,0.0,0.0,0.0,0.0,0.0,0.0,0.0,0.0,0.0,0.0,0.0,0.0,0.0,0.0,0.0,0.0,0.0,0.0,0.0,0.0,0.0,0.0,0.0,0.0,0.0,0.0,0.0,0.0,0.0,0.0,0.0,0.0,0.0,0.6043,0.6575,0.6801,0.7925,0.8758,0.9218,0.0,0.0,0.0,0.0,0.0,0.0,0.0,0.0,0.0,0.0,0.0,0.0,0.0,0.0,0.0,0.0,0.0,0.0,0.0,0.0,0.0,0.0,0.0,0.0,0.0,0.0,0.0,0.0,0.0,0.0,0.0,0.0,0.0,0.0,0.0,0.0,0.0,0.0,0.0,0.0,0.0,0.0,0.0,0.0,0.0,0.0,0.0,0.0,0.0,0.0,0.0,0.0,0.0,0.0,0.0,0.0,0.0,0.0,0.0,0.0,0.0,0.0,0.0,0.0,0.0,0.0,0.0,0.0,0.0,0.0,0.0,0.0,0.0,0.0,0.0,0.0,0.0,0.0,0.0,0.0,0.0,0.0,0.0,0.0,0.0,0.0,0.0,0.0,0.0,0.0,0.0,0.0,0.0,0.0,0.0,0.0,0.0,0.0,0.0,0.0,0.0,0.0,0.0,0.0,0.0,0.0,0.0,0.0,0.5478,0.5806,0.644,0.7446,0.9157,0.9702,0.0,0.0,0.0,0.0,0.0,0.0,0.0,0.0,0.0,0.0,0.0,0.0,0.0,0.0,0.0,0.0,0.0,0.0,0.0,0.0,0.0,0.0,0.0,0.0,0.0,0.0,0.0,0.0,0.0,0.0,0.0,0.0,0.0,0.0,0.0,0.0,0.0,0.0,0.0,0.0,0.0,0.0,0.0,0.0,0.0,0.0,0.0,0.0,0.0,0.0,0.0,0.0,0.0,0.0,0.0,0.0,0.0,0.0,0.0,0.0,0.0,0.0,0.0,0.0,0.0,0.0,0.0,0.0,0.0,0.0,0.0,0.0,0.0,0.0,0.0,0.0,0.0,0.0,0.0,0.0,0.0,0.0,0.0,0.0,0.0,0.0,0.0,0.0,0.0,0.0,0.0,0.0,0.0,0.0,0.0,0.0,0.0,0.0,0.0,0.0,0.0,0.0,0.0,0.0,0.0,0.0,0.0,0.0,0.0,0.5502,0.6052,0.6909,0.8028,0.8223,0.8283,0.0,0.0,0.0,0.0,0.0,0.0,0.0,0.0,0.0,0.0,0.0,0.0,0.0,0.0,0.0,0.0,0.0,0.0,0.0,0.0,0.0,0.0,0.0,0.0,0.0,0.0,0.0,0.0,0.0,0.0,0.0,0.0,0.0,0.0,0.0,0.0,0.0,0.0,0.0,0.0,0.0,0.0,0.0,0.0,0.0,0.0,0.0,0.0,0.0,0.0,0.0,0.0,0.0,0.0,0.0,0.0,0.0,0.0,0.0,0.0,0.0,0.0,0.0,0.0,0.0,0.0,0.0,0.0,0.0,0.0,0.0,0.0,0.0,0.0,0.0,0.0,0.0,0.0,0.0,0.0,0.0,0.0,0.0,0.0,0.0,0.0,0.0,0.0,0.0,0.0,0.0,0.0,0.0,0.0,0.0,0.0,0.0,0.0,0.0,0.0,0.0,0.0,0.0,0.0,0.0,0.0,0.0,0.0,0.0,0.5716,0.6494,0.7264,0.7953,0.7759,0.7758,0.0,0.0,0.0,0.0,0.0,0.0,0.0,0.0,0.0,0.0,0.0,0.0,0.0,0.0,0.0,0.0,0.0,0.0,0.0,0.0,0.0,0.0,0.0,0.0,0.0,0.0,0.0,0.0,0.0,0.0,0.0,0.0,0.0,0.0,0.0,0.0,0.0,0.0,0.0,0.0,0.0,0.0,0.0,0.0,0.0,0.0,0.0,0.0,0.0,0.0,0.0,0.0,0.0,0.0,0.0,0.0,0.0,0.0,0.0,0.0,0.0,0.0,0.0,0.0,0.0,0.0,0.0,0.0,0.0,0.0,0.0,0.0,0.0,0.0,0.0,0.0,0.0,0.0,0.0,0.0,0.0,0.0,0.0,0.0,0.0,0.0,0.0,0.0,0.0,0.0,0.0,0.0,0.0,0.0,0.0,0.0,0.0,0.0,0.0,0.0,0.0,0.0,0.0,0.0,0.0,0.0,0.0,0.0,0.5154,0.6149,0.6991,0.7361,0.7215,0.7978,0.8231,0.0,0.0,0.0,0.0,0.0,0.0,0.0,0.0,0.0,0.0,0.0,0.0,0.0,0.0,0.0,0.0,0.0,0.0,0.0,0.0,0.0,0.0,0.0,0.0,0.0,0.0,0.0,0.0,0.0,0.0,0.0,0.0,0.0,0.0,0.0,0.0,0.0,0.0,0.0,0.0,0.0,0.0,0.0,0.0,0.0,0.0,0.0,0.0,0.0,0.0,0.0,0.0,0.0,0.0,0.0,0.0,0.0,0.0,0.0,0.0,0.0,0.0,0.0,0.0,0.0,0.0,0.0,0.0,0.0,0.0,0.0,0.0,0.0,0.0,0.0,0.0,0.0,0.0,0.0,0.0,0.0,0.0,0.0,0.0,0.0,0.0,0.0,0.0,0.0,0.0,0.0,0.0,0.0,0.0,0.0,0.0,0.0,0.0,0.0,0.0,0.0,0.0,0.0,0.0,0.0,0.0,0.0,0.0,0.0,0.4903,0.6194,0.6785,0.6598,0.7105,0.7472,0.0,0.0,0.0,0.0,0.0,0.0,0.0,0.0,0.0,0.0,0.0,0.0,0.0,0.0,0.0,0.0,0.0,0.0,0.0,0.0,0.0,0.0,0.0,0.0,0.0,0.0,0.0,0.0,0.0,0.0,0.0,0.0,0.0,0.0,0.0,0.0,0.0,0.0,0.0,0.0,0.0,0.0,0.0,0.0,0.0,0.0,0.0,0.0,0.0,0.0,0.0,0.0,0.0,0.0,0.0,0.0,0.0,0.0,0.0,0.0,0.0,0.0,0.0,0.0,0.0,0.0,0.0,0.0,0.0,0.0,0.0,0.0,0.0,0.0,0.0,0.0,0.0,0.0,0.0,0.0,0.0,0.0,0.0,0.0,0.0,0.0,0.0,0.0,0.0,0.0,0.0,0.0,0.0,0.0,0.0,0.0,0.0,0.0,0.0,0.0,0.0,0.0,0.0,0.0,0.0,0.0,0.0,0.0,0.0,0.3649,0.5167,0.6069,0.6227,0.6454,0.704,0.798,0.0,0.0,0.0,0.0,0.0,0.0,0.0,0.0,0.0,0.0,0.0,0.0,0.0,0.0,0.0,0.0,0.0,0.0,0.0,0.0,0.0,0.0,0.0,0.0,0.0,0.0,0.0,0.0,0.0,0.0,0.0,0.0,0.0,0.0,0.0,0.0,0.0,0.0,0.0,0.0,0.0,0.0,0.0,0.0,0.0,0.0,0.0,0.0,0.0,0.0,0.0,0.0,0.0,0.0,0.0,0.0,0.0,0.0,0.0,0.0,0.0,0.0,0.0,0.0,0.0,0.0,0.0,0.0,0.0,0.0,0.0,0.0,0.0,0.0,0.0,0.0,0.0,0.0,0.0,0.0,0.0,0.0,0.0,0.0,0.0,0.0,0.0,0.0,0.0,0.0,0.0,0.0,0.0,0.0,0.0,0.0,0.0,0.0,0.0,0.0,0.0,0.0,0.0,0.0,0.0,0.0,0.0,0.0,0.2381,0.4128,0.5423,0.6158,0.6134,0.6972,0.0,0.0,0.0,0.0,0.0,0.0,0.0,0.0,0.0,0.0,0.0,0.0,0.0,0.0,0.0,0.0,0.0,0.0,0.0,0.0,0.0,0.0,0.0,0.0,0.0,0.0,0.0,0.0,0.0,0.0,0.0,0.0,0.0,0.0,0.0,0.0,0.0,0.0,0.0,0.0,0.0,0.0,0.0,0.0,0.0,0.0,0.0,0.0,0.0,0.0,0.0,0.0,0.0,0.0,0.0,0.0,0.0,0.0,0.0,0.0,0.0,0.0,0.0,0.0,0.0,0.0,0.0,0.0,0.0,0.0,0.0,0.0,0.0,0.0,0.0,0.0,0.0,0.0,0.0,0.0,0.0,0.0,0.0,0.0,0.0,0.0,0.0,0.0,0.0,0.0,0.0,0.0,0.0,0.0,0.0,0.0,0.0,0.0,0.0,0.0,0.0,0.0,0.0,0.0,0.0,0.0,0.0,0.0,0.0,0.2277,0.4403,0.599,0.6804,0.7016,0.7991,0.0,0.0,0.0,0.0,0.0,0.0,0.0,0.0,0.0,0.0,0.0,0.0,0.0,0.0,0.0,0.0,0.0,0.0,0.0,0.0,0.0,0.0,0.0,0.0,0.0,0.0,0.0,0.0,0.0,0.0,0.0,0.0,0.0,0.0,0.0,0.0,0.0,0.0,0.0,0.0,0.0,0.0,0.0,0.0,0.0,0.0,0.0,0.0,0.0,0.0,0.0,0.0,0.0,0.0,0.0,0.0,0.0,0.0,0.0,0.0,0.0,0.0,0.0,0.0,0.0,0.0,0.0,0.0,0.0,0.0,0.0,0.0,0.0,0.0,0.0,0.0,0.0,0.0,0.0,0.0,0.0,0.0,0.0,0.0,0.0,0.0,0.0,0.0,0.0,0.0,0.0,0.0,0.0,0.0,0.0,0.0,0.0,0.0,0.0,0.0,0.0,0.0,0.0,0.0,0.0,0.0,0.0,0.0,0.3113,0.3618,0.5486,0.7006,0.8114,0.8295,0.9085,0.0,0.0,0.0,0.0,0.0,0.0,0.0,0.0,0.0,0.0,0.0,0.0,0.0,0.0,0.0,0.0,0.0,0.0,0.0,0.0,0.0,0.0,0.0,0.0,0.0,0.0,0.0,0.0,0.0,0.0,0.0,0.0,0.0,0.0,0.0,0.0,0.0,0.0,0.0,0.0,0.0,0.0,0.0,0.0,0.0,0.0,0.0,0.0,0.0,0.0,0.0,0.0,0.0,0.0,0.0,0.0,0.0,0.0,0.0,0.0,0.0,0.0,0.0,0.0,0.0,0.0,0.0,0.0,0.0,0.0,0.0,0.0,0.0,0.0,0.0,0.0,0.0,0.0,0.0,0.0,0.0,0.0,0.0,0.0,0.0,0.0,0.0,0.0,0.0,0.0,0.0,0.0,0.0,0.0,0.0,0.0,0.0,0.0,0.0,0.0,0.0,0.0,0.0,0.0,0.0,0.0,0.0,0.0,0.4355,0.5857,0.7102,0.8437,0.9782,0.9816,1.0166,0.0,0.0,0.0,0.0,0.0,0.0,0.0,0.0,0.0,0.0,0.0,0.0,0.0,0.0,0.0,0.0,0.0,0.0,0.0,0.0,0.0,0.0,0.0,0.0,0.0,0.0,0.0,0.0,0.0,0.0,0.0,0.0,0.0,0.0,0.0,0.0,0.0,0.0,0.0,0.0,0.0,0.0,0.0,0.0,0.0,0.0,0.0,0.0,0.0,0.0,0.0,0.0,0.0,0.0,0.0,0.0,0.0,0.0,0.0,0.0,0.0,0.0,0.0,0.0,0.0,0.0,0.0,0.0,0.0,0.0,0.0,0.0,0.0,0.0,0.0,0.0,0.0,0.0,0.0,0.0,0.0,0.0,0.0,0.0,0.0,0.0,0.0,0.0,0.0,0.0,0.0,0.0,0.0,0.0,0.0,0.0,0.0,0.0,0.0,0.0,0.0,0.0,0.0,0.0,0.0,0.0,0.0,0.0,0.5296,0.702,0.9014,1.0585,1.161,1.1177,1.1041,0.0,0.0,0.0,0.0,0.0,0.0,0.0,0.0,0.0,0.0,0.0,0.0,0.0,0.0,0.0,0.0,0.0,0.0,0.0,0.0,0.0,0.0,0.0,0.0,0.0,0.0,0.0,0.0,0.0,0.0,0.0,0.0,0.0,0.0,0.0,0.0,0.0,0.0,0.0,0.0,0.0,0.0,0.0,0.0,0.0,0.0,0.0,0.0,0.5676,0.0,0.0,0.0,0.0,0.0,0.0,0.0,0.0,0.0,0.0,0.0,0.0,0.0,0.0,0.0,0.0,0.0,0.0,0.0,0.0,0.0,0.0,0.0,0.0,0.0,0.0,0.0,0.0,0.0,0.0,0.0,0.0,0.0,0.0,0.0,0.0,0.0,0.0,0.0,0.0,0.0,0.0,0.0,0.0,0.0,0.0,0.0,0.0,0.0,0.0,0.0,0.0,0.0,0.0,0.0,0.0,0.0,0.0,0.0,0.6672,0.849,1.0315,1.1692,1.2535,1.2779,1.245,0.0,0.0,0.0,0.0,0.0,0.0,0.0,0.0,0.0,0.0,0.0,0.0,0.0,0.0,0.0,0.0,0.0,0.0,0.0,0.0,0.0,0.0,0.0,0.0,0.0,0.0,0.0,0.0,0.0,0.0,0.0,0.0,0.0,0.0,0.0,0.0,0.0,0.0,0.0,0.0,0.0,0.0,0.0,0.0,0.0,0.0,0.0,0.0,0.0,0.0,0.0,0.0,0.0,0.0,0.0,0.0,0.0,0.0,0.0,0.0,0.0,0.0,0.0,0.0,0.0,0.0,0.0,0.0,0.0,0.0,0.0,0.0,0.0,0.0,0.0,0.0,0.0,0.0,0.0,0.0,0.0,0.0,0.0,0.0,0.0,0.0,0.0,0.0,0.0,0.0,0.0,0.0,0.0,0.0,0.0,0.0,0.0,0.0,0.0,0.0,0.0,0.0,0.0,0.0,0.0,0.0,0.0,0.6854,0.8003,0.9829,1.1233,1.229,1.3018,1.4104,1.3661,1.1561,0.0,0.0,0.0,0.0,0.0,0.0,0.0,0.0,0.0,0.0,0.0,0.0,0.0,0.0,0.0,0.0,0.0,0.0,0.0,0.0,0.0,0.0,0.0,0.0,0.0,0.0,0.0,0.0,0.0,0.0,0.0,0.0,0.0,0.0,0.0,0.0,0.0,0.0,0.363,0.4296,0.0,0.0,0.0,0.0,0.0,0.0,0.0,0.0,0.689,0.0,0.0,0.0,0.0,0.0,0.0,0.0,0.0,0.0,0.0,0.0,0.0,0.0,0.0,0.0,0.0,0.0,0.0,0.0,0.0,0.0,0.0,0.0,0.0,0.0,0.0,0.0,0.0,0.0,0.0,0.0,0.0,0.0,0.0,0.0,0.0,0.0,0.0,0.0,0.0,0.0,0.0,0.0,0.0,0.0,0.0,0.0,0.0,0.0,0.0,0.0,0.0,0.0,0.0,0.0,0.0,0.6854,0.7296,0.8399,1.0175,1.1749,1.2772,1.3253,1.4077,1.3556,1.1514,0.0,0.0,0.0,0.0,0.0,0.0,0.0,0.0,0.0,0.0,0.0,0.0,0.0,0.0,0.0,0.0,0.0,0.0,0.0,0.0,0.0,0.0,0.0,0.0,0.0,0.0,0.0,0.0,0.0,0.0,0.0,0.0,0.0,0.0,0.0,0.0,0.0,0.0,0.0,0.5337,0.5859,0.0,0.0,0.0,0.0,0.0,0.0,0.0,0.0,0.6797,0.0,0.0,0.0,0.0,0.0,0.0,0.0,0.0,0.0,0.0,0.0,0.0,0.0,0.0,0.0,0.0,0.0,0.0,0.0,0.0,0.0,0.0,0.0,0.0,0.0,0.0,0.0,0.0,0.0,0.0,0.0,0.0,0.0,0.0,0.0,0.0,0.0,0.0,0.0,0.0,0.0,0.0,0.0,0.0,0.0,0.0,0.0,0.0,0.0,0.0,0.0,0.0,0.0,0.0,0.0,0.7011,0.849,0.9864,1.1113,1.2399,1.3273,1.3704,1.4122,1.3392,0.0,0.0,0.0,0.0,0.0,0.0,0.0,0.0,0.0,0.0,0.0,0.0,0.0,0.0,0.0,0.0,0.0,0.0,0.0,0.0,0.0,0.0,0.0,0.0,0.0,0.0,0.0,0.0,0.0,0.0,0.0,0.0,0.0,0.0,0.0,0.0,0.0,0.0,0.0,0.0,0.6767,0.7632,0.8074,0.0,0.0,0.0,0.0,0.0,0.0,0.7137,0.7447,0.0,0.0,0.0,0.0,0.0,0.0,0.0,0.0,0.0,0.0,0.0,0.0,0.0,0.0,0.0,0.0,0.0,0.0,0.0,0.0,0.0,0.0,0.0,0.0,0.0,0.0,0.0,0.0,0.0,0.0,0.0,0.0,0.0,0.0,0.0,0.0,0.0,0.0,0.0,0.0,0.0,0.0,0.0,0.0,0.0,0.0,0.0,0.0,0.0,0.0,0.0,0.0,0.0,0.0,0.0,0.7253,0.9664,1.134,1.2156,1.3247,1.4081,1.4684,1.4699,1.3723,0.0,0.0,0.0,0.0,0.0,0.0,0.0,0.0,0.0,0.0,0.0,0.0,0.0,0.0,0.0,0.0,0.0,0.0,0.0,0.0,0.0,0.0,0.0,0.0,0.0,0.0,0.0,0.0,0.0,0.0,0.0,0.0,0.0,0.0,0.0,0.0,0.0,0.0,0.0,0.0,0.0,0.9265,0.9375,0.8537,0.0,0.0,0.0,0.0,0.7236,0.801,0.0,0.0,0.0,0.0,0.0,0.0,0.0,0.0,0.0,0.0,0.0,0.0,0.0,0.0,0.0,0.0,0.0,0.0,0.0,0.0,0.0,0.0,0.0,0.0,0.0,0.0,0.0,0.0,0.0,0.0,0.0,0.0,0.0,0.0,0.0,0.0,0.0,0.0,0.0,0.0,0.0,0.0,0.0,0.0,0.0,0.0,0.0,0.0,0.0,0.0,0.0,0.0,0.0,0.0,0.0,0.0,0.7929,1.0227,1.1959,1.3049,1.4422,1.5675,1.6698,1.6413,1.5243,0.0,0.0,0.0,0.0,0.0,0.0,0.0,0.0,0.0,0.0,0.0,0.0,0.0,0.0,0.0,0.0,0.0,0.0,0.0,0.0,0.0,0.0,0.0,0.0,0.0,0.0,0.0,0.0,0.0,0.0,0.0,0.0,0.0,0.0,0.0,0.0,0.0,0.0,0.0,0.0,0.0,0.9742,0.9131,0.8729,0.8603,0.0,0.0,0.0,0.8397,0.8852,0.0,0.0,0.0,0.0,0.0,0.0,0.0,0.0,0.0,0.0,0.0,0.0,0.0,0.0,0.0,0.0,0.0,0.0,0.0,0.0,0.0,0.0,0.0,0.0,0.0,0.0,0.0,0.0,0.0,0.0,0.0,0.0,0.0,0.0,0.0,0.0,0.0,0.0,0.0,0.0,0.0,0.0,0.0,0.0,0.0,0.0,0.0,0.0,0.0,0.0,0.0,0.0,0.0,0.0,0.0,0.7767,0.9218,1.1581,1.3153,1.3937,1.5007,1.5939,1.6741,1.6185,1.492,0.0,0.0,0.0,0.0,0.0,0.0,0.0,0.0,0.0,0.0,0.0,0.0,0.0,0.0,0.0,0.0,0.0,0.0,0.0,0.0,0.0,0.0,0.0,0.0,0.0,0.0,0.0,0.0,0.0,0.0,0.0,0.0,0.0,0.0,0.0,0.0,0.0,0.0,0.0,0.0,0.0,0.0,1.0804,0.9898,0.0,0.0,0.0,0.9151,0.9067,0.0,0.0,0.0,0.0,0.0,0.0,0.0,0.0,0.0,0.0,0.0,0.0,0.0,0.0,0.0,0.0,0.0,0.0,0.0,0.0,0.0,0.0,0.0,0.0,0.0,0.0,0.0,0.0,0.0,0.0,0.0,0.0,0.0,0.0,0.0,0.0,0.0,0.0,0.0,0.0,0.0,0.0,0.0,0.0,0.0,0.0,0.0,0.0,0.0,0.0,0.0,0.0,0.0,0.0,0.0,0.0,0.0,1.021,1.2821,1.4381,1.4794,1.5634,1.6504,1.7322,1.6474,0.0,0.0,0.0,0.0,0.0,0.0,0.0,0.0,0.0,0.0,0.0,0.0,0.0,0.0,0.0,0.0,0.0,0.0,0.0,0.0,0.0,0.0,0.0,0.0,0.0,0.0,0.0,0.0,0.0,0.0,0.0,0.0,0.0,0.0,0.0,0.0,0.0,0.0,0.0,0.0,0.0,0.0,1.0891,1.2058,1.1005,1.0439,0.0,0.0,1.0078,1.0007,1.0881,1.1084,0.0,0.0,0.0,0.0,0.0,0.0,0.0,0.0,0.0,0.0,0.0,0.0,0.0,0.0,0.0,0.0,0.0,0.0,0.0,0.0,0.0,0.0,0.0,0.0,0.0,0.0,0.0,0.0,0.0,0.0,0.0,0.0,0.0,0.0,0.0,0.0,0.0,0.0,0.0,0.0,0.0,0.0,0.0,0.0,0.0,0.0,0.0,0.0,0.0,0.0,0.0,0.0,0.0,0.0,0.0,1.0541,1.3587,1.5298,1.5539,1.6559,1.7952,1.9678,1.8319,1.6656,0.0,0.0,0.0,0.0,0.0,0.0,0.0,0.0,0.0,0.0,0.0,0.0,0.0,0.0,0.0,0.0,0.0,0.0,0.0,0.0,0.0,0.0,0.0,0.0,0.0,0.0,0.0,0.0,0.0,0.0,0.0,0.0,0.0,0.0,0.0,0.0,0.0,0.0,0.0,0.0,0.0,1.1134,1.1914,1.1704,1.1903,0.0,0.0,1.1503,1.1618,1.2025,1.1449,0.8911,0.0,0.0,0.0,0.0,0.0,0.0,0.0,0.0,0.0,0.0,0.0,0.0,0.0,0.0,0.0,0.0,0.0,0.0,0.0,0.0,0.0,0.0,0.0,0.0,0.0,0.0,0.0,0.0,0.0,0.0,0.0,0.0,0.0,0.0,0.0,0.0,0.0,0.0,0.0,0.0,0.0,0.0,0.0,0.0,0.0,0.0,0.0,0.0,0.0,0.0,0.0,0.0,0.0,1.0077,1.1867,1.4533,1.6035,1.6278,1.7137,1.7935,1.8697,1.7438,1.6203,0.0,0.0,0.0,0.0,0.0,0.0,0.0,0.0,0.0,0.0,0.0,0.0,0.0,0.0,0.0,0.0,0.0,0.0,0.0,0.0,0.0,0.0,0.0,0.0,0.0,0.0,0.0,0.0,0.6204,0.6038,0.5283,0.0,0.0,0.0,0.0,0.0,0.0,0.0,0.0,0.0,0.0,1.2861,1.33,1.2817,0.0,0.0,1.3264,1.3038,1.2923,1.3594,1.3334,1.1037,0.9874,0.0,0.0,0.0,0.0,0.0,0.0,0.0,0.0,0.0,0.0,0.0,0.0,0.0,0.0,0.0,0.0,0.0,0.0,0.0,0.0,0.0,0.0,0.0,0.0,0.0,0.0,0.0,0.0,0.0,0.0,0.0,0.0,0.0,0.0,0.0,0.0,0.0,0.0,0.0,0.0,0.0,0.0,0.0,0.0,0.0,0.0,0.0,0.0,0.0,0.0,0.0,0.0,1.0662,1.2468,1.5145,1.6608,1.6759,1.7327,1.7771,1.7994,1.6727,1.5579,0.0,0.0,0.0,0.0,0.0,0.0,0.0,0.0,0.0,0.0,0.0,0.0,0.0,0.0,0.0,0.0,0.0,0.0,0.0,0.0,0.0,0.0,0.0,0.0,0.0,0.0,0.0,0.0,0.6348,0.5932,0.5327,0.0,0.0,0.0,0.0,0.0,0.0,0.0,0.0,0.0,0.0,1.3898,1.4419,1.3693,1.3336,1.3932,1.3949,1.3828,1.3541,1.439,1.4269,1.1876,0.0,0.0,0.0,0.0,0.0,0.0,0.0,0.0,0.0,0.0,0.0,0.0,0.0,0.0,0.0,0.0,0.0,0.0,0.0,0.0,0.0,0.0,0.0,0.0,0.0,0.0,0.0,0.0,0.0,0.0,0.0,0.0,0.0,0.0,0.0,0.0,0.0,0.0,0.0,0.0,0.0,0.0,0.0,0.0,0.0,0.0,0.0,0.0,0.0,0.0,0.0,0.0,0.0,0.0,1.196,1.5331,1.7019,1.6898,1.7189,1.7664,1.8276,1.6574,1.502,1.3742,0.0,0.0,0.0,0.0,0.0,0.0,0.0,0.0,0.0,0.0,0.0,0.0,0.0,0.0,0.0,0.0,0.0,0.0,0.0,0.0,0.0,0.0,0.0,0.0,0.0,0.0,0.4627,0.4941,0.5312,0.0,0.0,0.0,0.0,0.0,0.0,0.0,0.0,0.0,0.0,1.2732,1.3922,1.5014,1.4275,1.401,1.4994,1.437,1.367,1.3417,1.4162,1.3758,0.0,0.0,0.0,0.0,0.0,0.0,0.0,0.0,0.0,0.0,0.0,0.0,0.0,0.0,0.0,0.0,0.0,0.0,0.0,0.0,0.0,0.0,0.0,0.0,0.0,0.0,0.0,0.0,0.5686,0.0,0.0,0.0,0.0,0.0,0.0,0.0,0.0,0.0,0.0,0.0,0.745,0.8401,0.0,0.0,0.0,0.0,0.0,0.0,0.0,0.0,0.0,0.0,0.0,0.0,1.1739,1.3086,1.5805,1.7174,1.7056,1.7667,1.7779,1.7277,1.6347,1.473,1.2377,0.0,0.0,0.0,0.0,0.0,0.0,0.0,0.0,0.0,0.0,0.0,0.0,0.0,0.0,0.0,0.0,0.0,0.0,0.0,0.0,0.0,0.0,0.0,0.0,0.0,0.5489,0.0,0.0,0.0,0.0,0.0,0.0,0.0,0.0,0.0,0.0,0.0,1.3519,1.3156,1.4403,1.5439,1.5699,1.5415,1.529,0.0,0.0,0.0,0.0,0.0,0.0,0.0,0.0,0.0,0.0,0.0,0.0,0.0,0.0,0.9035,0.7627,0.6757,0.6175,0.593,0.0,0.0,0.0,0.0,0.0,0.0,0.0,0.0,0.0,0.0,0.0,0.0,0.0,0.0,0.0,0.0,0.7186,0.0,0.0,0.0,0.0,0.0,0.0,0.0,0.0,0.7384,0.7945,0.8084,0.9031,0.9017,0.0,0.7684,0.7308,0.0,0.0,0.0,0.0,0.0,0.0,0.0,0.0,1.2137,1.3562,1.603,1.7259,1.7198,1.7687,1.7594,1.6868,1.6206,1.4887,1.2861,1.3133,1.2716,0.0,0.0,0.0,0.0,0.0,0.0,0.0,0.0,0.0,0.0,0.0,0.0,0.0,0.0,0.0,0.0,0.0,0.0,0.0,0.0,0.0,0.0,0.0,0.6603,0.0,0.0,0.0,0.0,0.0,0.0,0.0,0.0,0.0,0.924,1.2659,1.4892,1.433,1.5307,1.61,1.6104,0.0,0.0,0.0,0.0,0.0,0.0,0.0,1.4078,1.3278,1.2428,1.1539,1.056,1.0564,1.0569,1.0061,0.0,0.0,0.8761,0.7996,0.7564,0.7443,0.7461,0.7747,0.8625,0.9143,0.9569,0.0,0.0,0.0,0.0,0.0,0.0,0.0,0.0,0.7001,0.7696,0.0,0.7934,0.0,0.0,0.0,0.0,0.0,0.0,0.0,0.0,0.8062,0.9231,1.057,1.0049,0.9719,0.9655,0.9533,0.8536,0.6749,0.5935,0.0,0.0,0.0,0.0,0.0,0.0,1.2594,1.351,1.5966,1.7271,1.7242,1.7182,1.7109,1.7039,1.6136,1.5442,1.5,1.4502,1.4173,1.4044,0.9607,0.0,0.0,0.0,0.0,0.0,0.0,0.0,0.0,0.0,0.0,0.0,0.0,0.0,0.0,0.0,0.0,0.0,0.0,0.0,0.0,0.7726,0.0,0.0,0.0,0.0,0.0,0.0,0.0,0.0,0.0,0.0,1.1148,1.3876,1.5649,1.5183,0.0,0.0,0.0,0.0,1.5556,1.6352,1.5973,1.5541,1.5344,1.5232,1.4837,1.3847,0.0,0.0,1.1522,1.2215,1.2552,1.1237,1.1343,1.1366,1.054,1.024,1.0253,1.0457,1.0199,1.0165,1.0176,1.0474,1.0927,0.2142,0.0,0.0,0.0,0.0,0.531,0.6407,0.7089,0.8498,0.8907,0.8552,0.8301,0.0,0.0,0.0,0.0,0.0,0.0,0.6379,0.7754,0.8202,0.8746,0.9355,0.9381,0.8991,0.827,0.7741,0.7266,0.6855,0.6701,0.6458,0.6166,0.0,0.0,0.0,0.0,1.3862,1.4583,1.5996,1.6721,1.6744,1.7062,1.704,1.6688,1.6394,1.6009,1.5521,1.6115,1.5904,1.473,1.4395,0.0,0.0,0.0,0.0,0.0,0.0,0.0,0.0,0.0,0.0,0.0,0.0,0.0,0.0,0.0,0.0,0.0,0.0,0.0,0.6997,0.8787,0.942,0.0,0.0,0.0,0.0,0.0,0.0,0.0,0.0,0.0,1.3886,1.5285,1.6216,0.0,0.0,1.6308,1.6423,1.6409,1.6342,1.6173,0.0,0.0,0.0,1.5288,1.5079,1.5087,1.4803,1.4383,1.3903,1.3887,1.3584,1.2507,1.2433,1.2441,1.2137,1.0783,0.9949,1.0149,1.0157,1.0367,1.1194,1.1983,1.2719,0.2,0.0571,0.2727,0.3851,0.441,0.6122,0.7395,0.8299,0.9572,0.9764,0.9166,0.885,0.7947,0.6575,0.5128,0.0,0.0,0.0,0.6683,0.8183,0.8554,0.8798,0.8971,0.9131,0.8746,0.7895,0.7447,0.7198,0.7155,0.7506,0.7761,0.7889,0.0,0.0,1.1714,1.3291,1.4588,1.552,1.6188,1.6513,1.6511,1.6816,1.6837,1.6524,1.6718,1.671,1.6396,1.7438,1.7588,1.6595,1.6815,1.5665,0.0,0.0,0.0,0.0,0.0,0.0,0.0,0.0,0.0,0.0,0.0,0.6961,0.0,0.0,0.0,0.0,0.7568,0.8131,0.9912,1.0965,0.0,0.0,0.0,0.0,0.0,0.0,0.0,1.1917,1.4147,1.5767,1.6068,1.7102,1.7499,1.6704,1.6949,1.7243,1.7336,0.0,1.7419,1.733,1.763,1.7581,1.6786,1.6158,1.5882,1.6065,1.5842,1.5482,1.5178,1.4928,1.4518,1.3828,1.3606,1.3709,1.3994,1.3116,1.2245,1.2009,1.2403,1.2952,1.3403,1.4045,1.4678,0.2568,0.1918,0.4076,0.5344,0.6059,0.7417,0.8503,0.9358,1.0215,1.0303,0.9748,0.9354,0.842,0.7027,0.5459,0.0,0.0,0.6581,0.7334,0.8715,0.9094,0.927,0.9284,0.9277,0.8907,0.8274,0.8236,0.8009,0.7599,0.8314,0.925,1.0341,1.0677,1.1716,1.3409,1.4035,1.4993,1.6348,1.6526,1.6539,1.6513,1.6513,1.6513,1.6511,1.7036,1.7336,1.7412,1.833,1.8907,1.8945,1.7413,1.6419,1.6112,0.0,0.0,0.0,0.0,0.0,0.0,0.0,0.0,0.0,0.0,0.0,0.0,0.0,0.0,0.0,0.955,0.0,1.4343,1.3587,0.0,0.0,0.0,1.0565,1.0931,1.2626,1.3786,1.382,0.0,0.0,0.0,0.0,1.9238,1.7526,1.7944,1.8472,1.8652,1.8539,1.8659,1.8988,1.8822,1.8447,1.7817,1.7291,1.691,1.6831,1.6804,1.6533,1.5935,1.5819,1.5553,1.5027,1.4932,1.5167,1.5854,1.637,1.6648,1.5272,1.6031,1.6721,1.5915,1.608,1.6455,0.6196,0.545,0.6693,0.6542,0.5676,0.7981,0.9098,0.9364,1.0222,1.0141,0.9379,0.8472,0.7461,0.6413,0.5994,0.6654,0.8069,0.8069,0.8575,0.9432,0.9751,0.9892,0.9892,0.9898,0.9513,0.8831,0.861,0.8353,0.8101,0.888,1.0103,1.162,1.2371,1.3215,1.4171,1.5476,1.6212,1.6326,1.6898,1.6961,1.6525,1.6513,1.6513,1.6513,1.6626,1.6936,1.7374,1.7638,1.8166,1.8908,1.7547,1.7067,1.7745,1.3303,0.0,0.0,0.0,0.0,0.0,0.0,0.0,0.0,0.0,0.8623,0.7551,0.0,0.8758,0.0,1.1979,1.2783,1.2806,1.3448,0.0,0.0,1.2301,1.2196,1.4047,1.5258,1.6118,1.656,1.7921,1.9028,1.9528,2.019,2.0421,1.9832,1.9568,1.9479,1.9512,1.966,1.9434,1.8757,1.8659,1.8211,1.7333,1.7199,1.7402,1.7653,1.7688,1.7621,1.7434,1.7653,1.7588,1.683,1.6901,1.7187,1.7355,1.7575,1.7843,1.8059,1.7935,1.7335,1.6476,1.694,1.7632,0.7687,0.7312,0.821,0.7989,0.7195,0.8678,0.953,0.9913,1.038,1.0114,0.9238,0.8388,0.7705,0.7212,0.7312,0.8062,0.9216,0.9156,0.9575,1.0445,1.0488,1.0492,1.0485,1.0492,1.0296,0.9888,0.9737,0.9891,1.0303,1.0768,1.1907,1.3606,1.4249,1.4924,1.5636,1.6413,1.6895,1.7145,1.7318,1.7225,1.6911,1.6636,1.6387,1.616,1.6375,1.6536,1.6645,1.7123,1.7449,1.7504,1.6836,1.646,1.6487,1.3956,1.2327,0.0,0.0,0.0,0.0,0.0,0.0,0.0,0.0,0.0,0.0,0.0,1.1732,0.0,0.0,0.0,1.4401,1.4813,1.5149,1.5062,1.4412,1.4728,1.6628,1.764,1.8506,1.9208,2.0362,2.126,2.1623,2.2225,2.2603,2.2484,2.2217,2.1702,2.0914,2.0858,2.0551,1.9527,1.9414,1.9034,1.7731,1.7757,1.8086,1.8467,1.8574,1.8574,1.8566,1.8769,1.8719,1.8278,1.8366,1.8582,1.8732,1.8779,1.9042,1.9561,1.9459,1.8814,1.8121,1.8562,1.9183,0.8409,0.8549,0.931,0.9712,0.9839,0.9733,1.0018,1.0593,1.0649,1.0184,0.9372,0.8724,0.8509,0.8634,0.8857,0.944,1.0227,1.0022,1.0446,1.1369,1.1169,1.1069,1.1119,1.1069,1.1135,1.1285,1.1268,1.1928,1.3198,1.3223,1.4047,1.5602,1.5976,1.6492,1.7189,1.7104,1.7481,1.8269,1.7702,1.7398,1.7398,1.681,1.6272,1.5854,1.626,1.6285,1.5856,1.6758,1.6859,1.5984,1.5983,1.5625,1.4725,1.4845,1.4001,0.0,1.279,0.0,0.0,0.0,0.0,0.0,0.0,0.0,0.0,1.4634,1.5646,1.5561,1.7896,1.8746,1.7182,1.692,1.6971,1.7272,1.7316,1.7768,1.895,1.9933,2.0832,2.1575,2.2909,2.3737,2.366,2.4378,2.4861,2.4625,2.4548,2.3959,2.2663,2.2306,2.202,2.1087,2.0862,2.0374,1.9421,1.9146,1.9223,1.9467,1.9499,1.9451,1.9256,1.9335,1.9365,1.9357,1.9388,1.9572,1.9941,2.0011,2.0157,2.0469,2.0596,2.0479,2.0032,2.012,2.0605,1.0496,1.1111,1.1251,1.1883,1.2711,1.1984,1.1269,1.0622,1.0825,1.0558,0.9884,0.9093,0.9102,0.9771,0.9835,1.0343,1.1149,1.1114,1.1188,1.1389,1.1335,1.147,1.1701,1.1456,1.1857,1.2792,1.2642,1.3358,1.493,1.493,1.5427,1.6375,1.6687,1.7001,0.0,0.0,0.0,0.0,1.7889,1.7398,1.7385,1.6823,1.645,1.636,1.6448,0.0,1.6384,1.6561,1.6799,1.7038,1.6551,0.0,0.0,0.0,0.0,0.0,0.0,0.0,0.0,0.0,0.0,0.0,1.6699,1.5963,1.3746,1.6726,1.8307,1.7189,1.9039,1.9649,1.7983,1.8675,1.9177,1.9062,1.9911,2.0792,2.1475,2.2301,2.2931,2.3081,2.4247,2.4907,2.4645,2.5001,2.516,2.4933,2.4819,2.4664,2.432,2.4169,2.3895,2.3105,2.2231,2.1801,2.1559,2.141,2.1068,2.0762,2.0517,2.0245,1.9591,1.9637,1.9795,1.9824,2.0088,2.0351,2.0459,2.0713,2.0868,2.0648,2.1157,2.1417,2.0664,2.0546,2.0693,1.1972,0.0,1.2337,1.2687,0.0,1.3234,1.2928,1.237,1.1552,1.1029,1.0753,1.0929,1.1272,1.1717,1.2336,1.2856,1.3272,1.3297,1.3272,1.3272,1.3272,1.3379,1.3527,1.3547,1.3915,1.4514,1.4603,1.5336,1.6585,1.6639,1.7315,1.867,1.8689,1.9006,1.9659,1.9943,1.9856,1.9397,1.8606,1.8204,1.8166,1.764,1.7213,1.6961,0.0,0.0,0.0,0.0,0.0,0.0,0.0,0.0,0.0,0.0,0.0,1.6698,1.5509,1.5123,1.6056,1.6559,1.7244,1.8216,1.923,1.9123,1.7534,1.9524,2.0639,2.0274,2.0873,2.0988,2.0427,2.0529,2.07,2.0847,2.1408,2.2071,2.2768,2.3464,2.4056,2.4548,2.5344,2.5862,2.5674,2.5808,2.5862,2.5674,2.5632,2.5611,2.5573,2.513,2.4425,2.3294,2.2365,2.188,2.207,2.2098,2.2236,2.208,2.2154,2.1709,2.0796,2.0783,2.0883,2.0643,2.0742,2.0947,2.1211,2.1416,2.1502,2.133,2.1597,2.1951,2.1769,2.154,2.1299,1.3219,1.3352,1.3377,1.3491,1.3747,1.4346,1.4529,1.4355,0.0,0.0,0.0,1.3107,1.364,1.3715,1.4731,1.5199,1.5199,1.5199,1.5249,1.5307,1.5307,1.5349,1.5415,1.5742,1.5993,1.6176,1.65,1.7214,1.822,1.8257,1.9144,2.0733,2.0658,2.0962,2.1764,2.1603,2.1042,2.0138,1.9459,1.9158,1.9155,1.8647,1.8152,1.7706,1.8126,1.8095,1.7574,1.7965,1.7602,1.636,1.6017,1.602,1.6295,1.5832,1.6854,1.9587,1.9231,1.8965,1.9301,1.9835,2.0192,2.0264,2.1337,2.1929,2.1735,2.2013,2.2523,2.332,2.28,2.2547,2.2794,2.2374,2.2141,2.2537,2.2725,2.3151,2.3934,2.4406,2.4991,2.5652,2.6155,2.6487,2.6449,2.6449,2.6487,2.6474,2.6399,2.6436,2.626,2.5511,2.4631,2.3616,2.2883,2.2246,2.2427,2.2742,2.2913,2.3421,2.3725,2.3545,2.2708,2.233,2.209,2.173,2.1489,2.1484,2.1817,2.1944,2.1982,2.1931,2.203,2.2295,2.2861,2.2583,2.2111,1.4492,1.5143,1.5143,1.5782,1.6718,1.5983,1.5436,1.5034,1.4487,1.3921,1.3449,1.4488,1.493,1.4947,1.5121,1.5199,1.5199,1.5199,1.5382,0.0,1.5708,1.5911,1.6213,1.629,1.6783,1.7564,1.7655,1.835,1.9485,1.9618,2.0196,2.1164,2.1059,2.1152,2.1522,2.1514,2.1419,2.123,2.0238,1.9736,1.9844,1.9275,1.8946,1.8865,1.8935,1.8698,1.8127,1.8167,1.8318,1.8519,1.8483,1.892,1.9836,1.924,1.9335,2.0217,1.9943,2.0063,2.0845,2.174,2.2778,2.3899,2.422,2.3829,2.2675,2.3006,2.3627,2.4453,2.4372,2.4111,2.3555,2.3912,2.4152,2.4084,2.4667,2.5364,2.5901,2.6055,2.614,2.6306,2.6424,2.6487,2.6487,2.6474,2.6436,2.6474,2.6336,2.6298,2.5866,2.5598,2.5427,2.5161,2.471,2.4402,2.4226,2.4789,2.473,2.4158,2.4926,2.5128,2.416,2.3674,2.3377,2.3208,2.2565,2.2073,2.2058,2.2187,2.2301,2.2142,2.2427,2.2934,2.3113,2.2944,2.2781,1.5773,1.6093,1.6093,1.643,1.697,1.7021,1.6765,1.6341,1.6676,1.5939,1.4681,1.5764,1.6296,1.6349,1.709,1.7424,1.7424,1.7424,1.7515,1.7688,1.7688,1.7798,1.7971,1.8199,1.8526,1.8995,1.9241,1.9688,2.0292,2.0767,2.1547,2.2495,2.2873,2.2833,2.2387,2.237,2.2219,2.192,2.1115,2.0736,2.0797,2.0584,2.0307,1.9986,2.0007,1.9715,1.9083,1.907,1.9171,1.9422,1.9422,1.9811,2.0628,2.0202,2.0377,2.1349,2.1424,2.1796,2.2681,2.342,2.4114,2.4743,2.5067,2.4987,2.4325,2.4226,2.4373,2.4755,2.4816,2.4787,2.4644,2.4992,2.5299,2.5499,2.5851,2.6193,2.6424,2.6487,2.6487,2.6487,2.6487,2.6487,2.6487,2.6223,2.6017,2.5979,2.5804,2.5573,2.5573,2.536,2.5042,2.4795,2.4754,2.4816,2.4838,2.5548,2.5931,2.5838,2.652,2.6577,2.5777,2.5294,2.5072,2.4794,2.4288,2.3906,2.3555,2.3601,2.3384,2.2736,2.2788,2.3081,2.3101,2.3101,2.3023,1.6913,1.6922,1.7006,1.7107,1.7269,1.7969,1.8056,1.7749,1.8432,1.777,1.6403,1.7234,1.7677,1.7796,1.8841,1.9277,1.9277,1.9277,1.9336,1.9424,1.9434,1.9473,1.9618,1.9922,2.0059,2.0098,2.0429,2.0692,2.0972,2.1659,2.2573,2.3652,2.4543,2.4428,2.3321,2.3296,2.3032,2.2495,2.2071,2.1887,2.198,2.1861,2.164,2.1392,2.1237,2.0836,2.0227,2.03,2.0413,2.0538,2.0677,2.1017,2.1542,2.1382,2.1723,2.2738,2.3063,2.351,2.4289,2.4741,2.5042,2.518,2.5561,2.5804,2.5778,2.5435,2.518,2.5197,2.5247,2.5369,2.5678,2.5799,2.6009,2.6436,2.6487,2.6461,2.6499,2.6587,2.6688,2.6675,2.6587,2.6524,2.6524,2.6042,2.5699,2.5778,2.5335,2.5197,2.546,2.5146,2.4628,2.4402,2.454,2.4854,2.4992,2.5804,2.6595,2.7211,2.7809,2.7773,2.7263,2.7035,2.681,2.6331,2.5768,2.5196,2.4819,2.4458,2.3954,2.3173,2.3081,2.312,2.3288,2.3415,2.3367,1.7881,1.792,1.8226,1.8657,1.8985,1.9122,1.9106,1.9091,1.921,1.9154,1.8861,1.9064,1.9093,1.9119,1.9251,1.9344,1.9344,1.9305,1.9502,1.9824,1.9835,2.0059,2.04,2.0498,2.0527,2.0517,2.0615,2.1078,2.1754,2.2019,2.2743,2.4096,2.5076,2.4971,2.4029,2.3904,2.3612,2.3045,2.2982,2.3109,2.3348,2.2712,2.2644,2.33,2.2604,2.1963,2.1335,2.1807,2.2295,2.2797,2.3263,2.3816,2.429,2.4348,2.4411,2.4512,2.4557,2.4881,2.5385,2.5498,2.5753,2.6285,2.6336,2.6399,2.6411,2.6361,2.6336,2.6336,2.6348,2.6348,2.6411,2.6436,2.6512,2.6612,2.6612,2.6487,2.6612,2.6922,2.7223,2.7223,2.6788,2.6675,2.6896,2.6243,2.5799,2.6084,2.5665,2.5414,2.5523,2.5222,2.4917,2.4791,2.4829,2.503,2.5448,2.6072,2.6788,2.7324,2.8166,2.8562,2.8492,2.8232,2.7925,2.7692,2.6479,2.5522,2.4787,2.4039,2.343,2.3266,2.3164,2.3247,2.3652,2.3965,2.403,1.8769,1.8797,1.8945,1.9121,1.9277,1.9277,1.9434,1.9658,1.9658,1.9795,2.0048,2.0068,1.9921,1.9678,1.9931,2.0077,2.0077,2.0087,2.0156,2.0312,2.0322,2.041,2.0595,2.0596,2.0596,2.0683,2.1145,2.1631,2.2151,2.3184,2.4213,2.4964,2.5432,2.5059,2.4079,2.3991,2.37,2.312,2.3095,2.3401,2.3857,2.3294,2.3095,2.3352,2.2776,2.2118,2.1641,2.2006,2.2558,2.3083,2.369,2.4243,2.4779,2.4816,2.4816,2.4829,2.5093,2.5536,2.608,2.6118,2.6235,2.6474,2.6487,2.6625,2.6934,2.6977,2.7085,2.7361,2.716,2.6959,2.7002,2.7248,2.7431,2.7431,2.7431,2.7454,2.7474,2.7349,2.7311,2.7273,2.6821,2.6579,2.6675,2.613,2.5611,2.5565,2.5272,2.5322,2.5511,2.5398,2.546,2.5699,2.5804,2.5703,2.5791,2.6691,2.7386,2.7889,2.8699,2.9402,2.9357,2.9303,2.9106,2.9067,2.8139,2.6973,2.6015,2.5463,2.484,2.4131,2.3692,2.3942,2.4108,2.4274,2.4385,1.9277,1.9297,1.9423,1.9521,1.9657,1.9657,1.9805,2.0068,2.0088,2.0283,2.0595,2.0596,2.041,2.0166,2.0449,2.0596,2.0596,2.0596,2.0596,2.0596,2.0596,2.0586,2.0625,2.0886,2.0972,2.1156,2.2136,2.2867,2.3379,2.4955,2.6019,2.6258,2.6276,2.5749,2.4773,2.4544,2.4064,2.3411,2.3195,2.3486,2.4096,2.3612,2.3376,2.3551,2.2959,2.2374,2.1986,2.2608,2.3173,2.3559,2.428,2.4858,2.5218,2.5272,2.5272,2.5297,2.5624,2.603,2.6461,2.6625,2.6725,2.6738,2.6839,2.7102,2.7424,2.7525,2.7682,2.802,2.8111,2.8089,2.7605,2.7871,2.8163,2.8417,2.8351,2.8224,2.8214,2.7847,2.7556,2.7319,2.6826,2.6411,2.626,2.6005,2.5791,2.5485,2.536,2.5372,2.5741,2.5866,2.6017,2.6441,2.6474,2.6386,2.6176,2.6904,2.7858,2.8436,2.9051,2.9428,2.9704,2.9792,2.9792,2.9463,2.9702,2.9281,2.7629,2.6958,2.6495,2.5227,2.4954,2.534,2.5253,2.5205,2.5235,1.9277,1.9383,1.9727,2.0136,2.0527,2.0507,2.0508,2.0508,2.0556,2.0586,2.0605,2.0596,2.0595,2.0586,2.0635,2.0596,2.0596,2.0615,2.0635,2.0644,2.0712,2.0644,2.0663,2.1498,2.1975,2.2223,2.3533,2.4895,2.6266,2.733,2.7967,2.7946,2.7858,2.7399,2.6386,2.5778,2.5021,2.4142,2.3648,2.3603,2.4224,2.3654,2.3839,2.4329,2.3498,2.3092,2.3193,2.4104,2.4714,2.4748,2.5807,2.6421,2.6442,2.6454,2.651,2.6437,2.6505,2.6538,2.6698,2.7142,2.7425,2.74,2.7811,2.8082,2.8324,2.8259,2.8322,2.8208,2.9499,2.9595,2.8517,2.8468,2.8733,2.935,2.889,2.8653,2.8652,2.8468,2.8079,2.7427,2.6839,2.6361,2.5816,2.613,2.6323,2.6311,2.6348,2.6361,2.6323,2.6399,2.6436,2.6461,2.6524,2.665,2.7077,2.7311,2.7795,2.8367,2.8725,2.9051,2.9465,2.9779,2.9779,2.9867,2.9993,2.9683,2.886,2.8224,2.7691,2.7184,2.74,2.7547,2.6946,2.723,2.7024,2.0117,2.0136,2.0283,2.0449,2.0595,2.0596,2.0596,2.0596,2.0596,2.0596,2.0596,2.0615,2.0742,2.0996,2.0996,2.084,2.0644,2.085,2.0976,2.1105,2.1998,2.2447,2.2555,2.3544,2.4046,2.4232,2.5214,2.6385,2.7453,2.7938,2.8109,2.8109,2.8109,2.772,2.7085,2.6809,2.6319,2.5678,2.5681,2.586,2.61,2.7542,2.798,2.6801,2.4894,2.4235,2.4981,2.5873,2.6537,2.6959,2.7688,2.81,2.814,2.8514,2.8432,2.7965,2.8777,2.9105,2.8643,2.9188,2.9668,2.9647,2.9215,2.9468,3.0126,2.9978,2.9956,3.0766,3.0948,3.0831,3.0552,3.033,3.0458,3.0671,3.0245,2.9618,2.9194,2.8771,2.8187,2.7427,2.6839,2.6399,2.6273,2.6373,2.6487,2.6487,2.6487,2.6487,2.6487,2.6487,2.6487,2.6487,2.6499,2.6562,2.6713,2.7097,2.7544,2.8122,2.8586,2.9076,2.9503,2.9741,2.9779,3.0382,3.0495,3.035,2.9682,2.9045,2.8607,2.8826,2.9137,2.942,2.8805,2.8477,2.7936,2.0596,2.0596,2.0596,2.0674,2.0771,2.0801,2.0889,2.1056,2.1381,2.1342,2.1125,2.1362,2.1531,2.1497,2.1759,2.182,2.1569,2.184,2.193,2.207,2.3406,2.405,2.4208,2.5149,2.5674,2.5831,2.6823,2.7797,2.8562,2.8649,2.8662,2.8674,2.8649,2.8373,2.7883,2.7663,2.7298,2.6935,2.6964,2.7045,2.7449,2.9203,2.991,2.8821,2.7171,2.6501,2.7132,2.7783,2.8335,2.881,2.936,2.9483,2.9272,2.9903,3.0193,2.9943,3.0529,3.0727,3.0211,3.0791,3.124,3.1237,3.0848,3.1011,3.1923,3.1481,3.1684,3.2244,3.2347,3.2084,3.2055,3.1943,3.1869,3.1705,3.1166,3.0571,3.0001,2.9198,2.8225,2.7226,2.6725,2.6512,2.6487,2.6487,2.6487,2.6487,2.6487,2.6487,2.6487,2.6487,2.6487,2.6487,2.6487,2.6499,2.6575,2.6821,2.7185,2.7708,2.8172,2.8775,2.9616,2.9792,3.0181,3.0783,3.1018,3.0931,3.0553,2.9907,2.9875,3.0125,3.0775,3.1267,3.0373,2.9305,2.8553,2.0654,2.0683,2.0644,2.1017,2.1361,2.1501,2.1616,2.2178,2.3049,2.2917,2.2352,2.3039,2.2938,2.2451,2.3142,2.3512,2.3564,2.3696,2.3655,2.3644,2.4749,2.5303,2.5384,2.6354,2.6799,2.6861,2.8174,2.9126,2.9628,2.9603,2.9628,2.9716,2.9628,2.9327,2.8894,2.8392,2.7945,2.764,2.7363,2.742,2.7875,2.87,2.9462,3.0205,3.0295,3.0098,2.9521,2.9879,3.0109,3.0245,3.0746,3.0538,3.0064,3.0704,3.1475,3.1987,3.1606,3.1182,3.1154,3.1706,3.2139,3.2143,3.2343,3.2547,3.279,3.2669,3.2616,3.2804,3.2925,3.2998,3.2869,3.255,3.225,3.2095,3.1514,3.108,3.075,2.9805,2.8374,2.7007,2.6585,2.6487,2.6487,2.6487,2.6487,2.6487,2.6487,2.6487,2.6487,2.6487,2.6487,2.6487,2.6499,2.6512,2.6512,2.6562,2.6914,2.7273,2.7688,2.8253,2.9654,3.0269,3.0846,3.1436,3.1851,3.1776,3.1402,3.0947,3.1542,3.1921,3.2609,3.2554,3.153,3.0294,2.8982,2.1495,2.1596,2.231,2.266,2.2894,2.362,2.4052,2.4171,2.4565,2.4476,2.427,2.4515,2.4622,2.4664,2.4958,2.5255,2.5615,2.6253,2.6112,2.5498,2.6533,2.7159,2.7368,2.8256,2.8787,2.887,2.9262,2.9603,2.9754,2.9779,2.9779,2.9779,2.9779,2.9704,2.9484,2.9359,2.9415,3.0001,3.0459,3.0983,3.1544,3.253,3.3116,3.3167,3.3627,3.3774,3.3555,3.242,3.2022,3.2386,3.2608,3.256,3.2436,3.2984,3.3232,3.3044,3.3727,3.3746,3.3267,3.3825,3.4253,3.423,3.389,3.3976,3.4392,3.391,3.3675,3.3767,3.3606,3.323,3.2714,3.2154,3.199,3.2314,3.1796,3.1129,3.057,2.9192,2.8029,2.743,2.685,2.6538,2.6487,2.6487,2.6487,2.6487,2.6487,2.6487,2.6487,2.6487,2.6487,2.6487,2.6524,2.6675,2.6826,2.7022,2.7336,2.7525,2.7751,2.8285,2.9628,3.0809,3.1424,3.1712,3.2177,3.2286,3.1934,3.1993,3.2328,3.2676,3.2668,3.2435,3.2072,3.1112,2.9852,2.2859,2.2635,2.3663,2.4218,2.4398,2.5135,2.5535,2.5729,2.6108,2.6048,2.5803,2.6108,2.618,2.619,2.6476,2.6818,2.7186,2.8207,2.8199,2.7506,2.8199,2.8727,2.8787,2.9404,2.9779,2.9779,2.9779,2.9779,2.9779,2.9779,2.9779,2.9779,2.9779,2.9779,2.9779,2.9818,3.026,3.1161,3.1702,3.2516,3.3424,3.442,3.4909,3.4918,3.528,3.5474,3.54,3.4247,3.3814,3.4158,3.4233,3.4247,3.4277,3.4605,3.4591,3.434,3.4784,3.5151,3.4708,3.5024,3.5489,3.5375,3.492,3.4806,3.5218,3.4646,3.4317,3.4361,3.3649,3.2946,3.2512,3.1914,3.1764,3.2049,3.175,3.1161,3.0329,2.9364,2.8363,2.7812,2.6996,2.6587,2.65,2.6487,2.6487,2.6487,2.6487,2.6487,2.6487,2.6487,2.6512,2.6612,2.6763,2.6977,2.7223,2.7494,2.7821,2.7908,2.7996,2.8725,2.9754,3.0922,3.175,3.1373,3.1562,3.1675,3.1444,3.1625,3.1909,3.2227,3.2549,3.2374,3.2052,3.1865,3.0743,2.4563,2.3857,2.4898,2.5614,2.5955,2.6137,2.6505,2.6873,2.7716,2.7609,2.7128,2.7714,2.7653,2.7113,2.7773,2.816,2.8367,2.9106,2.956,2.9452,2.9631,2.9611,2.9631,2.9721,2.9779,2.9779,2.9779,2.9779,2.9779,2.9779,2.9779,2.9779,2.9779,2.9779,2.9818,2.9818,3.0438,3.131,3.1473,3.2445,3.4003,3.418,3.4595,3.5381,3.5474,3.5489,3.5444,3.528,3.531,3.5443,3.5325,3.5295,3.5429,3.5489,3.5397,3.527,3.5457,3.5488,3.5457,3.5424,3.5489,3.5473,3.5424,3.5459,3.5261,3.4796,3.4316,3.4128,3.323,3.2512,3.2303,3.1869,3.1556,3.1511,3.1525,3.1161,3.0524,3.0269,2.9489,2.8212,2.7183,2.6546,2.6595,2.6594,2.6487,2.6512,2.6549,2.665,2.6688,2.6738,2.665,2.6851,2.7185,2.7474,2.7795,2.8009,2.8329,2.8674,2.8687,2.9176,2.9867,3.0934,3.1406,3.1047,3.1009,3.106,3.1148,3.1336,3.1579,3.1938,3.2121,3.2161,3.214,3.1987,3.1346,2.522,2.5815,2.6886,2.7406,2.7623,2.8376,2.8775,2.8929,2.9157,2.9079,2.8981,2.9209,2.9118,2.8993,2.9138,2.9334,2.9373,2.9611,2.9779,2.9779,2.9779,2.9779,2.9779,2.9779,2.9779,2.9779,2.9779,2.9779,2.9779,2.9779,2.9779,2.9779,2.9779,2.9798,2.9837,3.0463,3.1296,3.2182,3.2744,3.3585,3.4791,3.5052,3.5213,3.5424,3.5489,3.5489,3.5489,3.5489,3.5489,3.5489,3.5489,3.5489,3.5489,3.5459,3.5444,3.5489,3.5474,3.5489,3.5489,3.5489,3.5489,3.5489,3.5444,3.528,3.4787,3.4607,3.4024,3.3305,3.2617,3.2258,3.1869,3.1615,3.1496,3.1496,3.1496,3.1394,3.1117,3.0644,3.0071,2.9523,2.7785,2.713,2.7131,2.6901,2.6596,2.6637,2.6864,2.7102,2.7123,2.7349,2.7412,2.7595,2.7896,2.8129,2.838,2.8568,2.8894,2.9377,2.9541,2.9654,3.0244,3.0896,3.0783,3.0364,3.0778,3.0942,3.0934,3.1035,3.1348,3.1675,3.221,3.2466,3.2376,3.2217,3.15,2.7026,2.727,2.8359,2.8806,2.8897,2.9534,2.9779,2.9779,2.9779,2.9779,2.9779,2.9779,2.9779,2.9779,2.9779,2.9779,2.9779,2.9779,2.9779,2.9779,2.9779,2.9779,2.9779,2.9779,2.9779,2.9779,2.9779,2.9779,2.9779,2.9779,2.9779,2.9779,2.9779,2.9979,3.0444,3.0895,3.1888,3.2999,3.3619,3.4338,3.5408,3.5489,3.5489,3.5489,3.5489,3.5489,3.5489,3.5489,3.5489,3.5489,3.5489,3.5489,3.5459,3.513,3.5114,3.5415,3.5266,3.5191,3.5459,3.5489,3.5489,3.5429,3.5295,3.4906,3.4473,3.4054,3.3185,3.2677,3.2288,3.1899,3.1615,3.1496,3.1496,3.1496,3.1496,3.1496,3.1496,3.1102,3.0673,3.0043,2.8998,2.7848,2.8076,2.7413,2.7147,2.7203,2.7487,2.76,2.7657,2.7971,2.8185,2.826,2.8411,2.8605,2.8806,2.9007,2.9145,2.9641,2.9779,2.998,3.0218,3.0645,3.0357,3.015,3.0527,3.0766,3.0696,3.0783,3.1122,3.1574,3.2277,3.2648,3.2553,3.1833,3.1156,2.9118,2.8367,2.9365,2.9779,2.974,2.9779,2.9779,2.9779,2.9779,2.9779,2.9779,2.9779,2.9779,2.9779,2.9779,2.9779,2.9779,2.9779,2.9779,2.9779,2.9779,2.9779,2.9779,2.9779,2.9779,2.9779,2.9779,2.9779,2.9779,2.9779,2.9779,2.9779,2.9779,3.0305,3.0932,3.1315,3.2339,3.3622,3.4163,3.4645,3.5359,3.5489,3.5489,3.5489,3.5489,3.5489,3.5489,3.5489,3.5489,3.5489,3.5489,3.5489,3.54,3.4726,3.4786,3.5249,3.5101,3.5027,3.537,3.5489,3.5489,3.5415,3.4907,3.4444,3.4173,3.3395,3.2662,3.2303,3.1824,3.16,3.1525,3.1496,3.1496,3.1525,3.154,3.163,3.16,3.16,3.1323,3.067,3.0259,2.9725,2.8923,2.8317,2.7972,2.7663,2.7959,2.816,2.8273,2.8524,2.8624,2.8612,2.88,2.9007,2.9208,2.9408,2.9553,2.9779,2.9767,2.9854,2.9854,3.0055,2.993,2.9942,3.0226,3.0339,3.0319,3.052,3.0914,3.1587,3.2353,3.2585,3.2562,3.1354,3.044,2.8858,2.9443,2.9702,2.9779,2.9779,2.9779,2.9779,2.9779,2.9779,2.9779,2.9779,2.9779,2.9779,2.9779,2.9779,2.9779,2.9779,2.9779,2.9779,2.9779,2.9779,2.9779,2.9779,2.9779,2.9779,2.9779,2.9779,2.9779,2.9779,2.9779,2.9798,2.9837,2.9979,3.0298,3.1236,3.2087,3.2823,3.3959,3.4739,3.5256,3.545,3.5609,3.5624,3.5609,3.5594,3.5564,3.5504,3.5489,3.5489,3.5504,3.5534,3.5594,3.5474,3.5295,3.5264,3.5355,3.5355,3.531,3.5474,3.5519,3.5489,3.537,3.4862,3.4263,3.3709,3.3126,3.2392,3.1914,3.1585,3.1511,3.1585,3.1525,3.163,3.175,3.2034,3.2288,3.2288,3.2273,3.2154,3.2048,3.194,3.1673,3.0484,2.9992,2.9393,2.8526,2.8411,2.8681,2.8881,2.9076,2.9089,2.9063,2.9189,2.9402,2.9503,2.9741,2.998,3.0068,3.003,2.9955,2.9942,2.9779,2.9779,2.9779,2.9829,2.9917,3.0068,3.0431,3.0845,3.1634,3.229,3.2249,3.1918,3.0763,2.967,2.9268,2.9779,2.9779,2.9779,2.9779,2.9779,2.9779,2.9779,2.9779,2.9779,2.9779,2.9779,2.9779,2.9779,2.9779,2.9779,2.9779,2.9779,2.9779,2.9779,2.9779,2.9779,2.9779,2.9779,2.9779,2.9792,2.9779,2.9779,2.9779,2.9862,3.0037,3.0438,3.0451,3.1328,3.2321,3.3024,3.3771,3.4681,3.5509,3.5968,3.5968,3.6267,3.6385,3.6402,3.6402,3.6402,3.6432,3.6417,3.6417,3.634,3.6191,3.5893,3.5579,3.5504,3.5504,3.5474,3.516,3.525,3.5385,3.5744,3.5699,3.5116,3.4697,3.3979,3.32,3.2527,3.2048,3.163,3.154,3.1585,3.1929,3.2347,3.2392,3.2482,3.2736,3.2961,3.2961,3.2976,3.2976,3.2899,3.2611,3.2373,3.185,3.1337,3.0704,2.9753,2.9151,2.9347,2.9327,2.949,2.9566,2.9578,2.9654,2.9741,2.9804,3.003,3.0394,3.0482,3.0495,3.0362,3.0287,3.0043,2.9779,2.9779,2.9792,2.9842,3.0004,3.0383,3.0789,3.1439,3.1855,3.1795,3.1358,3.0349,2.9246,2.9779,2.9779,2.9779,2.9779,2.9779,2.9779,2.9779,2.9779,2.9779,2.9779,2.9779,2.9779,2.9779,2.9779,2.9779,2.9779,2.9779,2.9779,2.9779,2.9779,2.9955,2.9993,3.0025,3.0107,3.0202,3.0037,3.0015,3.0002,3.0098,3.0121,3.0713,3.1303,3.132,3.2227,3.3682,3.4185,3.461,3.5558,3.6261,3.6643,3.6656,3.7045,3.7208,3.7223,3.7208,3.7193,3.7178,3.7223,3.7298,3.7389,3.715,3.6567,3.5983,3.5862,3.5774,3.5789,3.5459,3.5594,3.5998,3.6297,3.6179,3.4967,3.4727,3.4233,3.329,3.2497,3.2079,3.1989,3.2018,3.2183,3.2617,3.2976,3.3335,3.344,3.3514,3.3649,3.3679,3.3709,3.3844,3.3617,3.3556,3.3428,3.2866,3.227,3.1662,3.1048,3.0411,2.9895,2.9818,2.9798,2.9818,2.9779,2.9779,2.9793,2.9849,3.0527,3.0866,3.1012,3.1004,3.0826,3.0713,3.0595,3.0344,2.9854,2.9804,2.993,3.0,3.0166,3.0641,3.1263,3.1196,3.0886,3.0409,2.9875,2.8727,2.9779,2.9779,2.9779,2.9779,2.9779,2.9779,2.9779,2.9779,2.9779,2.9779,2.9779,2.9779,2.9779,2.9779,2.9779,2.9792,2.9842,2.988,2.988,2.9993,3.0256,3.047,3.0527,3.0775,3.1029,3.0994,3.077,3.0725,3.0944,3.1191,3.1679,3.2357,3.2308,3.3092,3.444,3.4906,3.5414,3.627,3.6926,3.724,3.7315,3.7462,3.7597,3.7597,3.7627,3.7582,3.7507,3.7447,3.7387,3.7417,3.7719,3.7387,3.6998,3.7268,3.7208,3.6761,3.661,3.664,3.6864,3.712,3.7165,3.6731,3.594,3.5295,3.4545,3.354,3.278,3.2915,3.3051,3.3185,3.3305,3.3604,3.3544,3.3649,3.4024,3.4323,3.4428,3.4652,3.4771,3.4411,3.4502,3.4542,3.3883,3.3175,3.2467,3.1825,3.1233,3.0381,2.983,2.9837,2.9895,2.9856,2.9779,2.9785,2.9794,3.0746,3.1389,3.1622,3.1601,3.1348,3.126,3.1248,3.0992,3.0432,3.0206,3.0319,3.0308,3.0259,3.093,3.1872,3.1037,2.9985,2.9613,2.9223,2.7838,2.9779,2.9779,2.9779,2.9779,2.9779,2.9779,2.9779,2.9779,2.9779,2.9779,2.9779,2.9779,2.9779,2.9779,2.9779,2.9917,3.0168,3.0218,3.0357,3.062,3.0884,3.1022,3.1027,3.1298,3.1562,3.1672,3.156,3.1352,3.1485,3.2003,3.2751,3.3584,3.3861,3.4848,3.5889,3.6301,3.6485,3.7073,3.7554,3.7913,3.7973,3.818,3.8389,3.8419,3.8404,3.8434,3.8434,3.8434,3.8449,3.8509,3.8644,3.8494,3.8409,3.8365,3.8392,3.7708,3.7479,3.7417,3.7492,3.7629,3.7479,3.6477,3.6073,3.5444,3.4636,3.3647,3.3362,3.3514,3.3813,3.3902,3.4009,3.4277,3.4517,3.4577,3.4801,3.4952,3.5055,3.5325,3.5205,3.4997,3.5049,3.5004,3.4866,3.4102,3.3296,3.2642,3.2037,3.11,3.0094,3.0094,3.0241,3.007,3.0105,3.0488,3.0577,3.1243,3.193,3.2143,3.2172,3.1917,3.1771,3.1733,3.1419,3.0942,3.0854,3.0947,3.0974,3.1066,3.1793,3.2166,3.1042,3.0014,2.9307,2.8448,2.7102,2.9779,2.9779,2.9779,2.9779,2.9779,2.9779,2.9779,2.9779,2.9779,2.9779,2.9779,2.9792,2.9867,2.9948,3.0023,3.0256,3.0733,3.0683,3.0826,3.1248,3.1507,3.1562,3.1563,3.1751,3.2018,3.2348,3.235,3.2162,3.2155,3.2881,3.3849,3.473,3.5737,3.6666,3.7325,3.7429,3.7582,3.7793,3.8257,3.8589,3.8769,3.911,3.9406,3.9406,3.9406,3.9346,3.9242,3.9227,3.9242,3.9257,3.9334,3.9457,3.9669,3.9702,3.9367,3.8752,3.8144,3.7871,3.7926,3.8018,3.7764,3.6761,3.6447,3.5564,3.4786,3.4351,3.3993,3.3963,3.4231,3.4544,3.4726,3.5145,3.537,3.5415,3.5385,3.5474,3.5415,3.5474,3.5459,3.54,3.5489,3.5392,3.5197,3.499,3.4134,3.3465,3.287,3.1833,3.094,3.0796,3.0792,3.0474,3.0563,3.1212,3.1564,3.1947,3.2441,3.2684,3.263,3.2437,3.2286,3.216,3.1859,3.1683,3.1796,3.1888,3.1867,3.168,3.1854,3.1669,3.081,2.985,2.8777,2.778,2.662,2.9779,2.9779,2.9779,2.9779,2.9779,2.9779,2.9804,2.9817,2.9842,2.9779,2.9932,2.9867,3.0142,3.0428,3.0505,3.0814,3.106,3.0984,3.1077,3.1612,3.1951,3.2127,3.2202,3.2692,3.2712,3.2867,3.2912,3.2972,3.3136,3.3966,3.5002,3.592,3.6587,3.7222,3.8184,3.8287,3.8272,3.8392,3.8931,3.9242,3.9242,3.9346,3.9391,3.9406,3.9406,3.9406,3.9406,3.9406,3.9406,3.9391,3.9391,3.9884,4.0639,4.0656,4.0709,4.038,3.9867,3.9152,3.8975,3.8631,3.8275,3.7434,3.7,3.6462,3.5746,3.5394,3.52,3.5264,3.5342,3.5347,3.5396,3.5477,3.5535,3.5609,3.5729,3.5699,3.5654,3.5774,3.5744,3.5594,3.5639,3.5549,3.5392,3.5252,3.4999,3.4363,3.3611,3.2599,3.1666,3.1344,3.1342,3.1059,3.111,3.1709,3.2135,3.257,3.2767,3.3077,3.2989,3.2864,3.2726,3.2612,3.2788,3.2688,3.2726,3.2562,3.2328,3.208,3.1834,3.119,3.0375,2.9192,2.7913,2.6972,2.639,3.008,2.9779,2.9779,2.9779,2.9779,2.9779,2.998,3.0218,3.0256,3.0414,3.0667,3.0709,3.0851,3.1024,3.1052,3.1348,3.17,3.1566,3.1825,3.2223,3.2575,3.27,3.2742,3.2964,3.3102,3.3261,3.3197,3.3552,3.4087,3.5068,3.6087,3.7037,3.7831,3.8463,3.8883,3.896,3.8975,3.905,3.9242,3.9391,3.9406,3.9406,3.9406,3.9406,3.9406,3.9406,3.9442,3.9406,3.9406,3.9331,3.9122,3.959,4.0509,4.0582,4.0344,4.0965,4.0504,3.9907,3.9379,3.8786,3.8287,3.7749,3.7,3.6327,3.6097,3.6198,3.6209,3.6118,3.6257,3.6272,3.6173,3.6079,3.6065,3.6103,3.6252,3.6402,3.6342,3.6118,3.6119,3.594,3.5805,3.5805,3.5775,3.5665,3.5384,3.4714,3.4263,3.3678,3.2376,3.1266,3.1399,3.1667,3.183,3.2206,3.2545,3.2905,3.2893,3.3102,3.3102,3.3002,3.304,3.3065,3.3102,3.3102,3.2964,3.2813,3.2667,3.2521,3.2327,3.1199,2.9964,2.9041,2.8168,2.7649,2.7098,3.0557,3.0181,3.0055,3.0005,2.9993,3.0005,3.0231,3.0575,3.0758,3.1017,3.1337,3.1509,3.1595,3.162,3.1637,3.1901,3.2403,3.229,3.2579,3.2927,3.3167,3.3254,3.3335,3.3398,3.3428,3.3827,3.3755,3.4408,3.5474,3.6259,3.7021,3.7829,3.8635,3.9205,3.934,3.9346,3.9316,3.9331,3.9361,3.9406,3.9406,3.9406,3.9406,3.9406,3.9424,3.9499,3.9684,3.9755,3.9773,4.0091,3.987,4.0453,4.1467,4.1421,4.1294,4.1644,4.1362,4.0655,3.9751,3.8848,3.8025,3.736,3.6656,3.5983,3.5752,3.635,3.7033,3.6832,3.6708,3.6894,3.7017,3.6822,3.6548,3.6731,3.703,3.7238,3.7327,3.6971,3.6716,3.6641,3.6508,3.6317,3.6256,3.6134,3.5717,3.507,3.4733,3.4614,3.3385,3.1896,3.167,3.2055,3.2353,3.2604,3.2805,3.3065,3.309,3.3102,3.3102,3.3102,3.3102,3.3102,3.3102,3.3102,3.3102,3.304,3.2889,3.2861,3.272,3.1498,3.036,2.9476,2.8727,2.8234,2.7868,3.1344,3.1268,3.0751,3.055,3.0538,3.0538,3.0575,3.0789,3.1173,3.1389,3.1617,3.1896,3.2164,3.2152,3.2202,3.2453,3.2977,3.2453,3.2675,3.2952,3.3188,3.3628,3.386,3.3911,3.4074,3.5312,3.4993,3.5682,3.6996,3.7204,3.7625,3.7942,3.8947,3.9283,3.9406,3.9406,3.9406,3.9406,3.9406,3.9406,3.9406,3.9406,3.9406,3.9406,3.9478,3.9755,4.0535,4.05,4.0792,4.1395,4.1177,4.1629,4.2407,4.2415,4.2445,4.2533,4.2237,4.1445,4.0388,3.881,3.7665,3.709,3.6492,3.5818,3.5748,3.6304,3.6894,3.767,3.7698,3.7732,3.7792,3.7579,3.7334,3.7315,3.7659,3.7821,3.7836,3.7584,3.736,3.7345,3.715,3.687,3.6961,3.69,3.6679,3.6056,3.6183,3.6064,3.4543,3.3159,3.2467,3.247,3.2772,3.2952,3.3014,3.3102,3.3102,3.3102,3.3102,3.3102,3.3102,3.3102,3.3102,3.3102,3.3102,3.3102,3.3102,3.3025,3.2655,3.1711,3.0799,3.017,2.9586,2.9125,2.8759,3.2102,3.2386,3.1825,3.1399,3.1097,3.1097,3.1265,3.1579,3.1813,3.2114,3.2437,3.2675,3.2742,3.2729,3.2742,3.2864,3.3052,3.2901,3.296,3.3014,3.324,3.3755,3.4142,3.4622,3.4836,3.592,3.5854,3.6245,3.7548,3.7919,3.836,3.8745,3.9195,3.9301,3.9406,3.9406,3.9406,3.9406,3.9406,3.9406,3.9406,3.9406,3.9406,3.9406,3.9406,3.9879,4.0535,4.069,4.1214,4.1693,4.1693,4.2385,4.3114,4.3035,4.3081,4.3285,4.2909,4.2109,4.0787,3.9082,3.7768,3.6883,3.6404,3.6118,3.6217,3.7529,3.851,3.9022,3.9183,3.9358,3.9092,3.8865,3.856,3.8308,3.8257,3.8419,3.8359,3.8153,3.8033,3.8018,3.7644,3.724,3.7466,3.7723,3.7453,3.7166,3.7384,3.7205,3.5563,3.4206,3.3423,3.276,3.2948,3.3052,3.3102,3.3102,3.3102,3.3102,3.3102,3.3102,3.3102,3.3102,3.3102,3.3102,3.3102,3.3102,3.3102,3.3102,3.2599,3.1719,3.1359,3.1131,3.056,3.0209,2.9842,3.2704,3.3027,3.2641,3.2152,3.1675,3.1637,3.1838,3.219,3.2382,3.2679,3.3102,3.3102,3.3102,3.3102,3.309,3.3077,3.309,3.3108,3.333,3.3513,3.3776,3.4421,3.5081,3.5561,3.5908,3.6702,3.6819,3.7271,3.8345,3.829,3.869,3.9156,3.9406,3.9406,3.9406,3.9406,3.9406,3.9406,3.9406,3.9406,3.9406,3.9406,3.9406,3.9406,3.9406,4.0095,4.0826,4.1296,4.1885,4.2422,4.2705,4.2788,4.3151,4.3375,4.3309,4.3437,4.3321,4.2645,4.1418,3.9516,3.8002,3.7075,3.6866,3.6761,3.7286,3.8669,3.9575,4.0172,4.0708,4.1018,4.0392,3.9924,3.929,3.885,3.8903,3.9032,3.8987,3.8838,3.8766,3.8691,3.8332,3.812,3.8242,3.8529,3.8387,3.8002,3.7709,3.7334,3.6048,3.4855,3.4069,3.3458,3.3061,3.309,3.3102,3.3102,3.3102,3.3102,3.3102,3.3102,3.3102,3.3102,3.3102,3.3102,3.3102,3.3102,3.3102,3.3115,3.2519,3.1768,3.1946,3.2469,3.2613,3.2261,3.1394,3.3077,3.3102,3.3065,3.2704,3.2215,3.2202,3.2206,3.2365,3.278,3.304,3.309,3.3102,3.3102,3.3102,3.3102,3.3102,3.3102,3.3145,3.3535,3.4254,3.44,3.5715,3.6548,3.6885,3.704,3.8564,3.842,3.8294,3.921,3.9086,3.9301,3.9352,3.9406,3.9406,3.9406,3.9406,3.9406,3.9406,3.9406,3.9406,3.9406,3.9406,3.9406,3.9406,3.9406,4.0095,4.1346,4.1707,4.2442,4.3656,4.3932,4.4059,4.4209,4.4299,4.4297,4.4364,4.3756,4.3336,4.2951,4.0124,3.8645,3.7952,3.8018,3.7817,3.7901,3.9027,4.0395,4.1032,4.145,4.1695,4.1289,4.0827,4.0189,3.9583,3.9629,3.9484,3.9427,3.9287,3.9137,3.9062,3.9227,3.9316,3.9302,3.9302,3.9257,3.8887,3.8273,3.7363,3.6264,3.5499,3.4719,3.367,3.3102,3.3102,3.3102,3.3102,3.3102,3.3102,3.3102,3.3102,3.3102,3.3102,3.3102,3.3102,3.3102,3.3102,3.3115,3.3115,3.2869,3.2867,3.3666,3.4162,3.4392,3.3923,3.2579,3.3102,3.3102,3.3102,3.2989,3.2813,3.278,3.2813,3.2817,3.3014,3.3102,3.3102,3.3102,3.3102,3.3102,3.3102,3.3102,3.3102,3.3145,3.3683,3.4622,3.4828,3.6015,3.7088,3.7734,3.8036,3.8943,3.8962,3.8874,3.9352,3.9406,3.9406,3.9406,3.9406,3.9406,3.9406,3.9406,3.9406,3.9406,3.9406,3.9406,3.9406,3.9406,3.9424,3.9442,3.9463,4.0341,4.1917,4.2093,4.2969,4.4338,4.4584,4.4584,4.4584,4.4584,4.4584,4.4584,4.4136,4.3889,4.3243,4.1566,4.0602,4.005,3.9622,3.9376,3.9243,4.1007,4.1734,4.2019,4.2668,4.293,4.2757,4.2513,4.1853,4.0583,4.0255,3.9864,3.969,3.9469,3.9316,3.9302,3.9406,3.9406,3.9406,3.9406,3.9406,3.9406,3.8819,3.7591,3.6417,3.5959,3.5305,3.3911,3.3102,3.3102,3.3102,3.3102,3.3102,3.3102,3.3102,3.3102,3.3102,3.3102,3.3102,3.3102,3.3102,3.3115,3.3294,3.3527,3.3937,3.43,3.4863,3.5123,3.5132,3.4159,3.2581,3.3102,3.3102,3.3102,3.3102,3.3102,3.3102,3.3102,3.3102,3.3102,3.3102,3.3102,3.3102,3.3102,3.3102,3.3102,3.3102,3.3145,3.3556,3.422,3.517,3.5682,3.6958,3.7975,3.836,3.8712,3.9301,3.9406,3.9406,3.9406,3.9406,3.9406,3.9406,3.9406,3.9406,3.9406,3.9406,3.9406,3.9406,3.9406,3.9406,3.9406,3.9427,3.9574,3.9793,4.013,4.0721,4.1933,4.266,4.3077,4.4164,4.4584,4.4584,4.4584,4.4584,4.4584,4.4584,4.4528,4.4284,4.3693,4.3378,4.2611,4.2317,4.1793,4.1119,4.0862,4.2118,4.2559,4.3026,4.3916,4.3829,4.3532,4.3383,4.2379,4.1063,4.0343,3.9953,3.9663,3.9442,3.9406,3.9406,3.9406,3.9406,3.9406,3.9406,3.9406,3.9406,3.9334,3.7984,3.6688,3.6198,3.5567,3.415,3.3167,3.3102,3.3102,3.3102,3.3102,3.3102,3.3102,3.3102,3.3102,3.3102,3.3102,3.3178,3.3354,3.352,3.3693,3.3952,3.442,3.5023,3.5659,3.5835,3.5807,3.4451,3.2758,3.3102,3.3102,3.3102,3.3102,3.3102,3.3102,3.3102,3.3102,3.3102,3.3102,3.3102,3.3102,3.3102,3.3102,3.3102,3.3197,3.342,3.4212,3.5197,3.6186,3.6905,3.8163,3.8852,3.9228,3.9247,3.9319,3.9406,3.9406,3.9406,3.9406,3.9406,3.9406,3.9406,3.9406,3.9406,3.9406,3.9406,3.9406,3.9406,3.9406,3.9406,3.961,3.999,4.0343,4.0757,4.1593,4.2583,4.3184,4.3695,4.4267,4.4584,4.4584,4.4584,4.4584,4.4584,4.4584,4.4584,4.4528,4.444,4.4224,4.4236,4.3745,4.2945,4.233,4.2283,4.2859,4.3196,4.3456,4.3975,4.3814,4.3638,4.2847,4.2029,4.1045,4.0168,3.9809,3.9517,3.9406,3.9406,3.9406,3.9406,3.9406,3.9406,3.9406,3.9406,3.9406,3.9228,3.8401,3.72,3.6375,3.5554,3.4129,3.3368,3.3145,3.3102,3.3102,3.3102,3.3102,3.3102,3.3102,3.3102,3.314,3.3215,3.3379,3.3696,3.3975,3.4319,3.4605,3.4913,3.5551,3.615,3.6213,3.607,3.4619,3.3055,3.3102,3.3102,3.3102,3.3102,3.3102,3.3124,3.3102,3.3102,3.3102,3.3124,3.3102,3.3102,3.3261,3.3102,3.3124,3.3598,3.4142,3.4767,3.5902,3.69,3.772,3.8494,3.9035,3.9406,3.9406,3.9406,3.9406,3.9406,3.9406,3.9406,3.9406,3.9406,3.9406,3.9406,3.9406,3.9406,3.9406,3.9406,3.9406,3.9406,3.9684,4.0047,4.0485,4.0843,4.1412,4.23,4.3093,4.3381,4.3858,4.4412,4.457,4.4584,4.4584,4.4584,4.4584,4.4584,4.4584,4.4584,4.4584,4.4584,4.4584,4.4584,4.3975,4.356,4.3411,4.3532,4.3858,4.3946,4.4121,4.4093,4.3814,4.3092,4.2284,4.1461,4.055,3.9829,3.9556,3.9406,3.9406,3.9406,3.9406,3.9406,3.9406,3.9406,3.9406,3.9406,3.9123,3.8476,3.7663,3.6799,3.5694,3.4283,3.342,3.3145,3.3102,3.3102,3.3102,3.3102,3.3102,3.3102,3.3102,3.3165,3.3329,3.3671,3.4173,3.4665,3.5119,3.5328,3.5421,3.5814,3.6353,3.638,3.6061,3.4508,3.3241,3.3102,3.3102,3.3102,3.3347,3.3691,3.3721,3.3911,3.4199,3.3919,3.3911,3.4249,3.3932,3.394,3.4311,3.4087,3.4324,3.5298,3.5941,3.6769,3.7381,3.82,3.88,3.9265,3.9406,3.9406,3.9406,3.9406,3.9406,3.9406,3.9406,3.9406,3.9406,3.9406,3.9406,3.9406,3.9406,3.9406,3.9406,3.9406,3.9406,3.9796,4.0422,4.0833,4.1363,4.2046,4.2909,4.3636,4.3739,4.4107,4.4528,4.4584,4.4584,4.4584,4.4584,4.4584,4.4584,4.4584,4.4584,4.4584,4.4584,4.4584,4.4584,4.4584,4.4298,4.4152,4.4181,4.4167,4.4136,4.4398,4.4468,4.4049,4.3577,4.2785,4.1997,4.0995,3.9973,3.9666,3.9442,3.9406,3.9406,3.9406,3.9406,3.9406,3.9406,3.9406,3.9406,3.937,3.9086,3.813,3.7065,3.5948,3.4622,3.3734,3.3102,3.3102,3.3115,3.314,3.3128,3.3102,3.3102,3.3115,3.3316,3.358,3.4123,3.4776,3.523,3.5682,3.5771,3.5923,3.6245,3.6394,3.6383,3.5691,3.4093,3.3005,3.3154,3.3292,3.3326,3.3932,3.4635,3.4746,3.5359,3.6172,3.5393,3.5379,3.5814,3.521,3.5238,3.5507,3.5136,3.542,3.6265,3.7016,3.7491,3.7942,3.8749,3.9301,3.9334,3.9406,3.9406,3.9406,3.9406,3.9406,3.9406,3.9406,3.9406,3.9406,3.9406,3.9406,3.9406,3.9406,3.9406,3.9406,3.9406,3.9424,3.969,4.0307,4.1173,4.1949,4.2831,4.3739,4.431,4.4556,4.4584,4.4584,4.4584,4.4584,4.4584,4.4584,4.4584,4.4584,4.4584,4.4584,4.4584,4.4584,4.4584,4.4584,4.4584,4.4528,4.4485,4.4485,4.4369,4.4338,4.4556,4.4584,4.4267,4.3501,4.2692,4.1917,4.1012,4.0098,3.9556,3.9406,3.9406,3.9406,3.9406,3.9406,3.9406,3.9406,3.9406,3.9406,3.9388,3.9316,3.842,3.7238,3.6231,3.4986,3.3911,3.3154,3.3102,3.3128,3.3178,3.3165,3.319,3.3416,3.3633,3.3781,3.3881,3.4673,3.5502,3.5791,3.6107,3.6157,3.6169,3.6306,3.637,3.6324,3.5356,3.3865,3.3051,3.3577,3.4374,3.5149,3.5197,3.4836,3.5527,3.6442,3.7381,3.719,3.673,3.6251,3.6013,3.6013,3.631,3.6073,3.6422,3.7362,3.781,3.8308,3.8708,3.9319,3.9388,3.9406,3.9406,3.9406,3.9406,3.9406,3.9406,3.9406,3.9406,3.9406,3.9406,3.9406,3.9406,3.9406,3.9406,3.9406,3.9406,3.9406,3.9463,3.9687,4.0827,4.1901,4.2489,4.3243,4.415,4.4584,4.4584,4.4584,4.4584,4.4584,4.4584,4.4584,4.4584,4.4584,4.4584,4.4584,4.4584,4.4584,4.4584,4.4584,4.4584,4.4584,4.4584,4.4584,4.4584,4.4584,4.4584,4.4584,4.4584,4.4338,4.3471,4.2614,4.182,4.1028,4.0237,3.9481,3.9424,3.9406,3.9406,3.9406,3.9406,3.9406,3.9406,3.9406,3.9406,3.9406,3.9123,3.8182,3.7142,3.6571,3.5386,3.394,3.3249,3.3205,3.3278,3.3416,3.3479,3.3542,3.3809,3.4186,3.4414,3.4726,3.5527,3.6241,3.6304,3.6293,3.6331,3.6356,3.6493,3.6487,3.6492,3.5465,3.4016,3.3385,3.415,3.4794,3.5774,3.6186,3.6194,3.671,3.7515,3.8383,3.8509,3.8182,3.7558,3.72,3.7142,3.7348,3.7175,3.7444,3.8294,3.8494,3.8837,3.9247,3.9406,3.9406,3.9406,3.9406,3.9406,3.9406,3.9406,3.9406,3.9406,3.9406,3.9406,3.9406,3.9406,3.9406,3.9406,3.9406,3.9406,3.9406,3.9406,3.961,3.9905,4.1068,4.2108,4.2702,4.3695,4.4468,4.4584,4.4584,4.4584,4.4584,4.4584,4.4584,4.4584,4.4584,4.4584,4.4584,4.4584,4.4584,4.4584,4.4584,4.4584,4.4584,4.4584,4.4584,4.4584,4.4584,4.4584,4.4584,4.4584,4.4584,4.4369,4.368,4.2816,4.1981,4.1146,4.0326,3.972,3.9406,3.9406,3.9406,3.9406,3.9406,3.9406,3.9406,3.9406,3.9406,3.9406,3.9319,3.8312,3.7175,3.6585,3.5775,3.4327,3.3609,3.3586,3.3646,3.3759,3.3822,3.3922,3.4537,3.5077,3.5268,3.5631,3.6105,3.638,3.6392,3.6405,3.6468,3.6669,3.6821,3.6765,3.6671,3.5406,3.4128,3.3309,3.4767,3.502,3.6152,3.7026,3.7753,3.7956,3.8494,3.9265,3.937,3.9352,3.9108,3.8327,3.8671,3.8764,3.8579,3.8874,3.9071,3.9086,3.9319,3.9355,3.9388,3.9406,3.9406,3.9406,3.9406,3.9406,3.9406,3.9406,3.9406,3.9406,3.9406,3.9406,3.9406,3.9406,3.9406,3.9406,3.9406,3.9406,3.9553,4.0023,4.058,4.1305,4.2315,4.3325,4.4064,4.4542,4.4584,4.4584,4.4584,4.4584,4.4584,4.4584,4.4584,4.4584,4.4584,4.4584,4.4584,4.4584,4.4584,4.4584,4.4584,4.4584,4.4584,4.4584,4.4584,4.4584,4.4584,4.4584,4.4584,4.4528,4.4312,4.402,4.3169,4.2029,4.1179,4.0326,3.9826,3.9406,3.9406,3.9406,3.9406,3.9406,3.9406,3.9406,3.9406,3.9406,3.937,3.9283,3.8855,3.7644,3.6696,3.5884,3.4734,3.4238,3.3972,3.396,3.4013,3.4414,3.4628,3.5366,3.5904,3.5881,3.5968,3.6193,3.6417,3.6443,3.6531,3.663,3.6845,3.7148,3.6567,3.6183,3.5228,3.4008,3.3052,3.517,3.6073,3.7965,3.8438,3.7998,3.8708,3.9228,3.937,3.9406,3.9406,3.9337,3.9268,3.9283,3.9406,3.9265,3.9301,3.9283,3.9406,3.9406,3.9388,3.9406,3.9406,3.9406,3.9406,3.9406,3.9406,3.9406,3.9406,3.9406,3.9406,3.9406,3.9406,3.9406,3.9406,3.9406,3.9406,3.9406,3.9424,3.975,4.0216,4.1827,4.2607,4.3372,4.3932,4.4121,4.444,4.4584,4.4584,4.4584,4.4584,4.4584,4.4584,4.4584,4.4584,4.4584,4.4584,4.4584,4.4584,4.4584,4.4584,4.4584,4.4584,4.4584,4.4584,4.4584,4.4584,4.4584,4.4584,4.4584,4.4584,4.4454,4.4454,4.3798,4.2125,4.0943,4.0183,3.9535,3.9424,3.9406,3.9406,3.9406,3.9406,3.9406,3.9406,3.9406,3.9406,3.9406,3.9265,3.8712,3.7757,3.688,3.5973,3.5069,3.4504,3.4104,3.4167,3.4311,3.4766,3.5217,3.568,3.6042,3.6256,3.6392,3.6405,3.6468,3.6505,3.663,3.6881,3.7208,3.7328,3.6314,3.5541,3.4751,3.4017,3.3156]},{"header":{"parameterUnit":"m.s-1","parameterCategory":1,"la1":31.0,"la2":29.5877,"lo1":-88.7671,"lo2":-86.6584,"dx":0.0162,"dy":0.0185,"nx":115,"ny":88,"refTime":"2022-12-27T06:00:00:Z","depth":0,"parameterNumber":3,"parameterNumberName":"V-component_of_WINDS"},"data":[0.0,0.0,0.0,0.0,0.0,0.0,0.0,0.0,0.0,0.0,0.0,0.0,0.0,0.0,0.0,0.0,0.0,0.0,0.0,0.0,0.0,0.0,0.0,0.0,0.0,0.0,0.0,0.0,0.0,0.0,0.0,0.0,0.0,0.0,0.0,0.0,0.0,0.0,0.0,0.0,0.0,0.0,0.0,0.0,0.0,0.0,0.0,0.0,0.0,0.0,0.0,0.0,0.0,0.0,0.0,0.0,0.0,0.0,0.0,0.0,0.0,0.0,0.0,0.0,0.0,0.0,0.0,0.0,0.0,0.0,0.0,0.0,0.0,0.0,0.0,0.0,0.0,0.0,0.0,0.0,0.0,0.0,0.0,0.0,0.0,0.0,0.0,0.0,0.0,0.0,0.0,0.0,0.0,0.0,0.0,0.0,0.0,0.0,0.0,0.0,0.0,0.0,0.0,0.0,0.0,0.0,0.0,0.0,0.0,0.0,0.0,0.0,0.0,0.0,0.0,0.0,0.0,0.0,0.0,0.0,0.0,0.0,0.0,0.0,0.0,0.0,0.0,0.0,0.0,0.0,0.0,0.0,0.0,0.0,0.0,0.0,0.0,0.0,0.0,0.0,0.0,0.0,0.0,0.0,0.0,0.0,0.0,0.0,0.0,0.0,0.0,0.0,0.0,0.0,0.0,0.0,0.0,0.0,0.0,0.0,0.0,0.0,0.0,0.0,0.0,0.0,0.0,0.0,0.0,0.0,0.0,0.0,0.0,0.0,0.0,0.0,0.0,0.0,0.0,0.0,0.0,0.0,0.0,0.0,0.0,0.0,0.0,0.0,0.0,0.0,0.0,0.0,0.0,0.0,0.0,0.0,0.0,0.0,0.0,0.0,0.0,0.0,0.0,0.0,0.0,0.0,0.0,0.0,0.0,0.0,0.0,0.0,0.0,0.0,0.0,0.0,0.0,0.0,0.0,0.0,0.0,0.0,0.0,0.0,0.0,0.0,0.0,0.0,0.0,0.0,0.0,0.0,0.0,0.0,0.0,0.0,0.0,0.0,0.0,0.0,0.0,0.0,0.0,0.0,0.0,0.0,0.0,0.0,0.0,0.0,0.0,0.0,0.0,0.0,0.0,0.0,0.0,0.0,0.0,0.0,0.0,0.0,0.0,0.0,0.0,0.0,0.0,0.0,0.0,0.0,0.0,0.0,0.0,0.0,0.0,0.0,0.0,0.0,0.0,0.0,0.0,0.0,0.0,0.0,0.0,0.0,0.0,0.0,0.0,0.0,0.0,0.0,0.0,0.0,0.0,0.0,0.0,0.0,0.0,0.0,0.0,0.0,0.0,0.0,0.0,0.0,0.0,0.0,0.0,0.0,0.0,0.0,0.0,0.0,0.0,0.0,0.0,0.0,0.0,0.0,0.0,0.0,0.0,0.0,0.0,0.0,0.0,0.0,0.0,0.0,0.0,0.0,0.0,0.0,0.0,0.0,0.0,0.0,0.0,0.0,0.0,0.0,0.0,0.0,0.0,0.0,0.0,0.0,0.0,0.0,0.0,0.0,0.0,0.0,0.0,0.0,0.0,0.0,0.0,0.0,0.0,0.0,0.0,0.0,0.0,0.0,0.0,0.0,0.0,0.0,0.0,0.0,0.0,0.0,0.0,0.0,0.0,0.0,0.0,0.0,0.0,0.0,0.0,0.0,0.0,0.0,0.0,0.0,0.0,0.0,0.0,0.0,0.0,0.0,0.0,0.0,0.0,0.0,0.0,0.0,0.0,0.0,0.0,0.0,0.0,0.0,0.0,0.0,0.0,0.0,0.0,0.0,0.0,0.0,0.0,0.0,0.0,0.0,0.0,0.0,0.0,0.0,0.0,0.0,0.0,0.0,0.0,0.0,0.0,0.0,0.0,0.0,0.0,0.0,0.0,0.0,0.0,0.0,0.0,0.0,0.0,0.0,0.0,0.0,0.0,0.0,0.0,0.0,0.0,0.0,0.0,0.0,0.0,0.0,0.0,0.0,0.0,0.0,0.0,0.0,0.0,0.0,0.0,0.0,0.0,0.0,0.0,0.0,0.0,0.0,0.0,0.0,0.0,0.0,0.0,0.0,0.0,0.0,0.0,0.0,0.0,0.0,0.0,0.0,0.0,0.0,0.0,0.0,0.0,0.0,0.0,0.0,0.0,0.0,0.0,0.0,0.0,0.0,0.0,0.0,0.0,0.0,0.0,0.0,0.0,0.0,0.0,0.0,0.0,0.0,0.0,0.0,0.0,0.0,0.0,0.0,0.0,0.0,0.0,0.0,0.0,0.0,0.0,0.0,0.0,0.0,0.0,0.0,0.0,0.0,0.0,0.0,0.0,0.0,0.0,0.0,0.0,0.0,0.0,0.0,0.0,0.0,0.0,0.0,0.0,0.0,0.0,0.0,0.0,0.0,0.0,0.0,0.0,0.0,0.0,0.0,0.0,0.0,0.0,0.0,0.0,0.0,0.0,0.0,0.0,0.0,0.0,0.0,0.0,0.0,0.0,0.0,0.0,0.0,0.0,0.0,0.0,0.0,0.0,0.0,0.0,0.0,0.0,0.0,0.0,0.0,0.0,0.0,0.0,0.0,0.0,0.0,0.0,0.0,0.0,0.0,0.0,0.0,0.0,0.0,0.0,0.0,0.0,0.0,0.0,0.0,0.0,0.0,0.0,0.0,0.0,0.0,0.0,0.0,0.0,0.0,0.0,0.0,0.0,0.0,0.0,0.0,0.0,0.0,0.0,0.0,0.0,0.0,0.0,0.0,0.0,0.0,0.0,0.0,0.0,0.0,0.0,0.0,0.0,0.0,0.0,0.0,0.0,0.0,0.0,0.0,0.0,0.0,0.0,0.0,0.0,0.0,0.0,0.0,0.0,0.0,0.0,0.0,0.0,0.0,0.0,0.0,0.0,0.0,0.0,0.0,0.0,0.0,0.0,0.0,0.0,0.0,0.0,0.0,0.0,0.0,0.0,0.0,0.0,0.0,0.0,0.0,0.0,0.0,0.0,0.0,0.0,0.0,0.0,0.0,0.0,0.0,0.0,0.0,0.0,0.0,0.0,0.0,0.0,0.0,0.0,0.0,0.0,0.0,0.0,0.0,0.0,0.0,0.0,0.0,0.0,0.0,0.0,0.0,0.0,0.0,0.0,0.0,0.0,0.0,0.0,0.0,0.0,0.0,0.0,0.0,0.0,0.0,0.0,0.0,0.0,0.0,0.0,0.0,0.0,0.0,0.0,0.0,0.0,0.0,0.0,0.0,0.0,0.0,0.0,0.0,0.0,0.0,0.0,0.0,0.0,0.0,0.0,0.0,0.0,0.0,0.0,0.0,0.0,0.0,0.0,0.0,0.0,0.0,0.0,0.0,0.0,0.0,0.0,0.0,0.0,0.0,0.0,0.0,0.0,0.0,0.0,0.0,0.0,0.0,0.0,0.0,0.0,0.0,0.0,0.0,0.0,0.0,0.0,0.0,0.0,0.0,0.0,0.0,0.0,0.0,0.0,0.0,0.0,0.0,0.0,0.0,0.0,0.0,0.0,0.0,0.0,0.0,0.0,0.0,0.0,0.0,0.0,0.0,0.0,0.0,0.0,0.0,0.0,0.0,0.0,0.0,0.0,0.0,0.0,0.0,0.0,0.0,0.0,0.0,0.0,0.0,0.0,0.0,0.0,0.0,0.0,0.0,0.0,0.0,0.0,0.0,0.0,0.0,0.0,0.0,0.0,0.0,0.0,0.0,0.0,0.0,0.0,0.0,0.0,0.0,0.0,0.0,0.0,0.0,0.0,0.0,0.0,0.0,0.0,0.0,0.0,0.0,0.0,0.0,0.0,0.0,0.0,0.0,0.0,0.0,0.0,0.0,0.0,0.0,0.0,0.0,0.0,0.0,0.0,0.0,0.0,0.0,0.0,0.0,0.0,0.0,0.0,0.0,0.0,0.0,0.0,0.0,0.0,0.0,0.0,0.0,0.0,0.0,0.0,0.0,0.0,0.0,0.0,0.0,0.0,0.0,0.0,0.0,0.0,0.0,0.0,0.0,0.0,0.0,0.0,0.0,0.0,0.0,0.0,0.0,0.0,0.0,0.0,0.0,0.0,0.0,0.0,0.0,0.0,0.0,0.0,0.0,0.0,0.0,0.0,0.0,0.0,0.0,0.0,0.0,0.0,0.0,0.0,0.0,0.0,0.0,0.0,0.0,0.0,0.0,0.0,0.0,0.0,0.0,0.0,0.0,0.8571,0.0,0.0,0.0,0.6426,0.0,0.0,0.0,0.0,0.0,0.0,0.0,0.0,0.0,0.0,0.0,0.0,0.0,0.0,0.0,0.0,0.0,0.0,0.0,0.0,0.0,0.0,0.0,0.0,0.0,0.0,0.0,0.0,0.0,0.0,0.0,0.0,0.0,0.0,0.0,0.0,0.0,0.0,0.0,0.0,0.0,0.0,0.0,0.0,0.0,0.0,0.0,0.0,0.0,0.0,0.0,0.0,0.0,0.0,0.0,0.0,0.0,0.0,0.0,0.0,0.0,0.0,0.0,0.0,0.0,0.0,0.0,0.0,0.0,0.0,0.0,0.0,0.0,0.0,0.0,0.0,0.0,0.0,0.0,0.0,0.0,0.0,0.0,0.0,0.0,0.0,0.0,0.0,0.0,0.0,0.0,0.0,0.0,0.0,0.0,0.0,0.0,0.0,0.0,0.0,0.0,0.0,0.0,0.0,0.0,0.0,0.0,0.0,0.0,0.0,0.851,0.8112,0.7887,0.7344,0.6459,0.0,0.0,0.0,0.0,0.0,0.0,0.0,0.0,0.0,0.0,0.0,0.0,0.0,0.0,0.0,0.0,0.0,0.0,0.0,0.0,0.0,0.0,0.0,0.0,0.0,0.0,0.0,0.0,0.0,0.0,0.0,0.0,0.0,0.0,0.0,0.0,0.0,0.0,0.0,0.0,0.0,0.0,0.0,0.0,0.0,0.0,0.0,0.0,0.0,0.0,0.0,0.0,0.0,0.0,0.0,0.0,0.0,0.0,0.0,0.0,0.0,0.0,0.0,0.0,0.0,0.0,0.0,0.0,0.0,0.0,0.0,0.0,0.0,0.0,0.0,0.0,0.0,0.0,0.0,0.0,0.0,0.0,0.0,0.0,0.0,0.0,0.0,0.0,0.0,0.0,0.0,0.0,0.0,0.0,0.0,0.0,0.0,0.0,0.0,0.0,0.0,0.0,0.0,0.0,0.0,0.0,0.0,0.0,0.0,0.0,0.0,0.0,0.7636,0.7051,0.6283,0.0,0.0,0.0,0.0,0.0,0.0,0.0,0.0,0.0,0.0,0.0,0.0,0.0,0.0,0.0,0.0,0.0,0.0,0.0,0.0,0.0,0.0,0.0,0.0,0.0,0.0,0.0,0.0,0.0,0.0,0.0,0.0,0.0,0.0,0.0,0.0,0.0,0.0,0.0,0.0,0.0,0.0,0.0,0.0,0.0,0.0,0.0,0.0,0.0,0.0,0.0,0.0,0.0,0.0,0.0,0.0,0.0,0.0,0.0,0.0,0.0,0.0,0.0,0.0,0.0,0.0,0.0,0.0,0.0,0.0,0.0,0.0,0.0,0.0,0.0,0.0,0.0,0.0,0.0,0.0,0.0,0.0,0.0,0.0,0.0,0.0,0.0,0.0,0.0,0.0,0.0,0.0,0.0,0.0,0.0,0.0,0.0,0.0,0.0,0.0,0.0,0.0,0.0,0.0,0.0,0.0,0.0,0.0,0.0,0.0,0.8247,0.783,0.7432,0.0,0.5285,0.0,0.0,0.0,0.0,0.0,0.0,0.0,0.0,0.0,0.0,0.0,0.0,0.0,0.0,0.0,0.0,0.0,0.0,0.0,0.0,0.0,0.0,0.0,0.0,0.0,0.0,0.0,0.0,0.0,0.0,0.0,0.0,0.0,0.0,0.0,0.0,0.0,0.0,0.0,0.0,0.0,0.0,0.0,0.0,0.0,0.0,0.0,0.0,0.0,0.0,0.0,0.0,0.0,0.0,0.0,0.0,0.0,0.0,0.0,0.0,0.0,0.0,0.0,0.0,0.0,0.0,0.0,0.0,0.0,0.0,0.0,0.0,0.0,0.0,0.0,0.0,0.0,0.0,0.0,0.0,0.0,0.0,0.0,0.0,0.0,0.0,0.0,0.0,0.0,0.0,0.0,0.0,0.0,0.0,0.0,0.0,0.0,0.0,0.0,0.0,0.0,0.0,0.0,0.0,0.0,0.0,0.0,0.0,0.0,0.0,0.8618,0.7827,0.7186,0.6586,0.0,0.0,0.0,0.0,0.0,0.0,0.0,0.0,0.0,0.0,0.0,0.0,0.0,0.0,0.0,0.0,0.0,0.0,0.0,0.0,0.0,0.0,0.0,0.0,0.0,0.0,0.0,0.0,0.0,0.0,0.0,0.0,0.0,0.0,0.0,0.0,0.0,0.0,0.0,0.0,0.0,0.0,0.0,0.0,0.0,0.0,0.0,0.0,0.0,0.0,0.0,0.0,0.0,0.0,0.0,0.0,0.0,0.0,0.0,0.0,0.0,0.0,0.0,0.0,0.0,0.0,0.0,0.0,0.0,0.0,0.0,0.0,0.0,0.0,0.0,0.0,0.0,0.0,0.0,0.0,0.0,0.0,0.0,0.0,0.0,0.0,0.0,0.0,0.0,0.0,0.0,0.0,0.0,0.0,0.0,0.0,0.0,0.0,0.0,0.0,0.0,0.0,0.0,0.0,0.0,0.0,0.0,0.0,0.0,0.0,0.9023,0.8618,0.7595,0.7136,0.6713,0.6277,0.0,0.0,0.0,0.0,0.0,0.0,0.0,0.0,0.0,0.0,0.0,0.0,0.0,0.0,0.0,0.0,0.0,0.0,0.0,0.0,0.0,0.0,0.0,0.0,0.0,0.0,0.0,0.0,0.0,0.0,0.0,0.0,0.0,0.0,0.0,0.0,0.0,0.0,0.0,0.0,0.0,0.0,0.0,0.0,0.0,0.0,0.0,0.0,0.0,0.0,0.0,0.0,0.0,0.0,0.0,0.0,0.0,0.0,0.0,0.0,0.0,0.0,0.0,0.0,0.0,0.0,0.0,0.0,0.0,0.0,0.0,0.0,0.0,0.0,0.0,0.0,0.0,0.0,0.0,0.0,0.0,0.0,0.0,0.0,0.0,0.0,0.0,0.0,0.0,0.0,0.0,0.0,0.0,0.0,0.0,0.0,0.0,0.0,0.0,0.0,0.0,0.0,0.0,0.0,0.0,0.0,0.0,0.0,0.8714,0.8547,0.7979,0.705,0.7407,0.6881,0.0,0.0,0.0,0.0,0.0,0.0,0.0,0.0,0.0,0.0,0.0,0.0,0.0,0.0,0.0,0.0,0.0,0.0,0.0,0.0,0.0,0.0,0.0,0.0,0.0,0.0,0.0,0.0,0.0,0.0,0.0,0.0,0.0,0.0,0.0,0.0,0.0,0.0,0.0,0.0,0.0,0.0,0.0,0.0,0.0,0.0,0.0,0.0,0.0,0.0,0.0,0.0,0.0,0.0,0.0,0.0,0.0,0.0,0.0,0.0,0.0,0.0,0.0,0.0,0.0,0.0,0.0,0.0,0.0,0.0,0.0,0.0,0.0,0.0,0.0,0.0,0.0,0.0,0.0,0.0,0.0,0.0,0.0,0.0,0.0,0.0,0.0,0.0,0.0,0.0,0.0,0.0,0.0,0.0,0.0,0.0,0.0,0.0,0.0,0.0,0.0,0.0,0.0,0.0,0.0,0.0,0.0,0.0,0.0,0.8699,0.8253,0.8225,0.859,0.782,0.7232,0.0,0.0,0.0,0.0,0.0,0.0,0.0,0.0,0.0,0.0,0.0,0.0,0.0,0.0,0.0,0.0,0.0,0.0,0.0,0.0,0.0,0.0,0.0,0.0,0.0,0.0,0.0,0.0,0.0,0.0,0.0,0.0,0.0,0.0,0.0,0.0,0.0,0.0,0.0,0.0,0.0,0.0,0.0,0.0,0.0,0.0,0.0,0.0,0.0,0.0,0.0,0.0,0.0,0.0,0.0,0.0,0.0,0.0,0.0,0.0,0.0,0.0,0.0,0.0,0.0,0.0,0.0,0.0,0.0,0.0,0.0,0.0,0.0,0.0,0.0,0.0,0.0,0.0,0.0,0.0,0.0,0.0,0.0,0.0,0.0,0.0,0.0,0.0,0.0,0.0,0.0,0.0,0.0,0.0,0.0,0.0,0.0,0.0,0.0,0.0,0.0,0.0,0.0,0.0,0.0,0.0,0.0,0.0,0.0,0.9049,0.8776,0.887,0.9312,0.844,0.7792,0.0,0.0,0.0,0.0,0.0,0.0,0.0,0.0,0.0,0.0,0.0,0.0,0.0,0.0,0.0,0.0,0.0,0.0,0.0,0.0,0.0,0.0,0.0,0.0,0.0,0.0,0.0,0.0,0.0,0.0,0.0,0.0,0.0,0.0,0.0,0.0,0.0,0.0,0.0,0.0,0.0,0.0,0.0,0.0,0.0,0.0,0.0,0.0,0.0,0.0,0.0,0.0,0.0,0.0,0.0,0.0,0.0,0.0,0.0,0.0,0.0,0.0,0.0,0.0,0.0,0.0,0.0,0.0,0.0,0.0,0.0,0.0,0.0,0.0,0.0,0.0,0.0,0.0,0.0,0.0,0.0,0.0,0.0,0.0,0.0,0.0,0.0,0.0,0.0,0.0,0.0,0.0,0.0,0.0,0.0,0.0,0.0,0.0,0.0,0.0,0.0,0.0,0.0,0.0,0.0,0.0,0.0,0.0,0.9358,0.9769,1.0078,0.9835,0.896,0.9188,0.8505,0.0,0.0,0.0,0.0,0.0,0.0,0.0,0.0,0.0,0.0,0.0,0.0,0.0,0.0,0.0,0.0,0.0,0.0,0.0,0.0,0.0,0.0,0.0,0.0,0.0,0.0,0.0,0.0,0.0,0.0,0.0,0.0,0.0,0.0,0.0,0.0,0.0,0.0,0.0,0.0,0.0,0.0,0.0,0.0,0.0,0.0,0.0,0.0,0.0,0.0,0.0,0.0,0.0,0.0,0.0,0.0,0.0,0.0,0.0,0.0,0.0,0.0,0.0,0.0,0.0,0.0,0.0,0.0,0.0,0.0,0.0,0.0,0.0,0.0,0.0,0.0,0.0,0.0,0.0,0.0,0.0,0.0,0.0,0.0,0.0,0.0,0.0,0.0,0.0,0.0,0.0,0.0,0.0,0.0,0.0,0.0,0.0,0.0,0.0,0.0,0.0,0.0,0.0,0.0,0.0,0.0,0.0,0.0,0.0,0.9382,1.0246,1.0288,0.9423,0.9344,0.8875,0.0,0.0,0.0,0.0,0.0,0.0,0.0,0.0,0.0,0.0,0.0,0.0,0.0,0.0,0.0,0.0,0.0,0.0,0.0,0.0,0.0,0.0,0.0,0.0,0.0,0.0,0.0,0.0,0.0,0.0,0.0,0.0,0.0,0.0,0.0,0.0,0.0,0.0,0.0,0.0,0.0,0.0,0.0,0.0,0.0,0.0,0.0,0.0,0.0,0.0,0.0,0.0,0.0,0.0,0.0,0.0,0.0,0.0,0.0,0.0,0.0,0.0,0.0,0.0,0.0,0.0,0.0,0.0,0.0,0.0,0.0,0.0,0.0,0.0,0.0,0.0,0.0,0.0,0.0,0.0,0.0,0.0,0.0,0.0,0.0,0.0,0.0,0.0,0.0,0.0,0.0,0.0,0.0,0.0,0.0,0.0,0.0,0.0,0.0,0.0,0.0,0.0,0.0,0.0,0.0,0.0,0.0,0.0,0.0,1.0041,1.1081,1.1106,0.9881,0.9546,0.895,0.8068,0.0,0.0,0.0,0.0,0.0,0.0,0.0,0.0,0.0,0.0,0.0,0.0,0.0,0.0,0.0,0.0,0.0,0.0,0.0,0.0,0.0,0.0,0.0,0.0,0.0,0.0,0.0,0.0,0.0,0.0,0.0,0.0,0.0,0.0,0.0,0.0,0.0,0.0,0.0,0.0,0.0,0.0,0.0,0.0,0.0,0.0,0.0,0.0,0.0,0.0,0.0,0.0,0.0,0.0,0.0,0.0,0.0,0.0,0.0,0.0,0.0,0.0,0.0,0.0,0.0,0.0,0.0,0.0,0.0,0.0,0.0,0.0,0.0,0.0,0.0,0.0,0.0,0.0,0.0,0.0,0.0,0.0,0.0,0.0,0.0,0.0,0.0,0.0,0.0,0.0,0.0,0.0,0.0,0.0,0.0,0.0,0.0,0.0,0.0,0.0,0.0,0.0,0.0,0.0,0.0,0.0,0.0,0.0,1.1355,1.2294,1.1952,1.0313,0.9709,0.8804,0.0,0.0,0.0,0.0,0.0,0.0,0.0,0.0,0.0,0.0,0.0,0.0,0.0,0.0,0.0,0.0,0.0,0.0,0.0,0.0,0.0,0.0,0.0,0.0,0.0,0.0,0.0,0.0,0.0,0.0,0.0,0.0,0.0,0.0,0.0,0.0,0.0,0.0,0.0,0.0,0.0,0.0,0.0,0.0,0.0,0.0,0.0,0.0,0.0,0.0,0.0,0.0,0.0,0.0,0.0,0.0,0.0,0.0,0.0,0.0,0.0,0.0,0.0,0.0,0.0,0.0,0.0,0.0,0.0,0.0,0.0,0.0,0.0,0.0,0.0,0.0,0.0,0.0,0.0,0.0,0.0,0.0,0.0,0.0,0.0,0.0,0.0,0.0,0.0,0.0,0.0,0.0,0.0,0.0,0.0,0.0,0.0,0.0,0.0,0.0,0.0,0.0,0.0,0.0,0.0,0.0,0.0,0.0,0.0,1.1854,1.0881,1.0208,0.9923,0.9215,0.8411,0.0,0.0,0.0,0.0,0.0,0.0,0.0,0.0,0.0,0.0,0.0,0.0,0.0,0.0,0.0,0.0,0.0,0.0,0.0,0.0,0.0,0.0,0.0,0.0,0.0,0.0,0.0,0.0,0.0,0.0,0.0,0.0,0.0,0.0,0.0,0.0,0.0,0.0,0.0,0.0,0.0,0.0,0.0,0.0,0.0,0.0,0.0,0.0,0.0,0.0,0.0,0.0,0.0,0.0,0.0,0.0,0.0,0.0,0.0,0.0,0.0,0.0,0.0,0.0,0.0,0.0,0.0,0.0,0.0,0.0,0.0,0.0,0.0,0.0,0.0,0.0,0.0,0.0,0.0,0.0,0.0,0.0,0.0,0.0,0.0,0.0,0.0,0.0,0.0,0.0,0.0,0.0,0.0,0.0,0.0,0.0,0.0,0.0,0.0,0.0,0.0,0.0,0.0,0.0,0.0,0.0,0.0,0.0,1.1824,1.2189,1.0156,0.91,0.912,0.8277,0.7556,0.0,0.0,0.0,0.0,0.0,0.0,0.0,0.0,0.0,0.0,0.0,0.0,0.0,0.0,0.0,0.0,0.0,0.0,0.0,0.0,0.0,0.0,0.0,0.0,0.0,0.0,0.0,0.0,0.0,0.0,0.0,0.0,0.0,0.0,0.0,0.0,0.0,0.0,0.0,0.0,0.0,0.0,0.0,0.0,0.0,0.0,0.0,0.0,0.0,0.0,0.0,0.0,0.0,0.0,0.0,0.0,0.0,0.0,0.0,0.0,0.0,0.0,0.0,0.0,0.0,0.0,0.0,0.0,0.0,0.0,0.0,0.0,0.0,0.0,0.0,0.0,0.0,0.0,0.0,0.0,0.0,0.0,0.0,0.0,0.0,0.0,0.0,0.0,0.0,0.0,0.0,0.0,0.0,0.0,0.0,0.0,0.0,0.0,0.0,0.0,0.0,0.0,0.0,0.0,0.0,0.0,0.0,0.0,1.2319,1.2419,0.9832,0.8301,0.7939,0.7091,0.6508,0.0,0.0,0.0,0.0,0.0,0.0,0.0,0.0,0.0,0.0,0.0,0.0,0.0,0.0,0.0,0.0,0.0,0.0,0.0,0.0,0.0,0.0,0.0,0.0,0.0,0.0,0.0,0.0,0.0,0.0,0.0,0.0,0.0,0.0,0.0,0.0,0.0,0.0,0.0,0.0,0.0,0.0,0.0,0.0,0.0,0.0,0.0,0.0,0.0,0.0,0.0,0.0,0.0,0.0,0.0,0.0,0.0,0.0,0.0,0.0,0.0,0.0,0.0,0.0,0.0,0.0,0.0,0.0,0.0,0.0,0.0,0.0,0.0,0.0,0.0,0.0,0.0,0.0,0.0,0.0,0.0,0.0,0.0,0.0,0.0,0.0,0.0,0.0,0.0,0.0,0.0,0.0,0.0,0.0,0.0,0.0,0.0,0.0,0.0,0.0,0.0,0.0,0.0,0.0,0.0,0.0,0.0,0.0,1.3006,1.2746,0.9324,0.7115,0.6328,0.5811,0.6026,0.0,0.0,0.0,0.0,0.0,0.0,0.0,0.0,0.0,0.0,0.0,0.0,0.0,0.0,0.0,0.0,0.0,0.0,0.0,0.0,0.0,0.0,0.0,0.0,0.0,0.0,0.0,0.0,0.0,0.0,0.0,0.0,0.0,0.0,0.0,0.0,0.0,0.0,0.0,0.0,0.0,0.0,0.0,0.0,0.0,0.0,0.0,0.0,1.0961,0.0,0.0,0.0,0.0,0.0,0.0,0.0,0.0,0.0,0.0,0.0,0.0,0.0,0.0,0.0,0.0,0.0,0.0,0.0,0.0,0.0,0.0,0.0,0.0,0.0,0.0,0.0,0.0,0.0,0.0,0.0,0.0,0.0,0.0,0.0,0.0,0.0,0.0,0.0,0.0,0.0,0.0,0.0,0.0,0.0,0.0,0.0,0.0,0.0,0.0,0.0,0.0,0.0,0.0,0.0,0.0,0.0,0.0,0.0,1.3041,1.2153,0.9268,0.6973,0.5458,0.5074,0.5261,0.0,0.0,0.0,0.0,0.0,0.0,0.0,0.0,0.0,0.0,0.0,0.0,0.0,0.0,0.0,0.0,0.0,0.0,0.0,0.0,0.0,0.0,0.0,0.0,0.0,0.0,0.0,0.0,0.0,0.0,0.0,0.0,0.0,0.0,0.0,0.0,0.0,0.0,0.0,0.0,0.0,0.0,0.0,0.0,0.0,0.0,0.0,0.0,0.0,0.0,0.0,0.0,0.0,0.0,0.0,0.0,0.0,0.0,0.0,0.0,0.0,0.0,0.0,0.0,0.0,0.0,0.0,0.0,0.0,0.0,0.0,0.0,0.0,0.0,0.0,0.0,0.0,0.0,0.0,0.0,0.0,0.0,0.0,0.0,0.0,0.0,0.0,0.0,0.0,0.0,0.0,0.0,0.0,0.0,0.0,0.0,0.0,0.0,0.0,0.0,0.0,0.0,0.0,0.0,0.0,0.0,0.0,1.3343,1.2917,1.1382,0.9219,0.715,0.5268,0.4873,0.472,0.4752,0.0,0.0,0.0,0.0,0.0,0.0,0.0,0.0,0.0,0.0,0.0,0.0,0.0,0.0,0.0,0.0,0.0,0.0,0.0,0.0,0.0,0.0,0.0,0.0,0.0,0.0,0.0,0.0,0.0,0.0,0.0,0.0,0.0,0.0,0.0,0.0,0.0,0.0,1.2897,1.2237,0.0,0.0,0.0,0.0,0.0,0.0,0.0,0.0,1.1741,0.0,0.0,0.0,0.0,0.0,0.0,0.0,0.0,0.0,0.0,0.0,0.0,0.0,0.0,0.0,0.0,0.0,0.0,0.0,0.0,0.0,0.0,0.0,0.0,0.0,0.0,0.0,0.0,0.0,0.0,0.0,0.0,0.0,0.0,0.0,0.0,0.0,0.0,0.0,0.0,0.0,0.0,0.0,0.0,0.0,0.0,0.0,0.0,0.0,0.0,0.0,0.0,0.0,0.0,0.0,0.0,1.3343,1.4015,1.336,1.1338,0.8517,0.689,0.6554,0.567,0.5178,0.5255,0.0,0.0,0.0,0.0,0.0,0.0,0.0,0.0,0.0,0.0,0.0,0.0,0.0,0.0,0.0,0.0,0.0,0.0,0.0,0.0,0.0,0.0,0.0,0.0,0.0,0.0,0.0,0.0,0.0,0.0,0.0,0.0,0.0,0.0,0.0,0.0,0.0,0.0,0.0,1.5204,1.5115,0.0,0.0,0.0,0.0,0.0,0.0,0.0,0.0,1.26,0.0,0.0,0.0,0.0,0.0,0.0,0.0,0.0,0.0,0.0,0.0,0.0,0.0,0.0,0.0,0.0,0.0,0.0,0.0,0.0,0.0,0.0,0.0,0.0,0.0,0.0,0.0,0.0,0.0,0.0,0.0,0.0,0.0,0.0,0.0,0.0,0.0,0.0,0.0,0.0,0.0,0.0,0.0,0.0,0.0,0.0,0.0,0.0,0.0,0.0,0.0,0.0,0.0,0.0,0.0,1.2862,1.4289,1.3812,1.126,0.9249,0.7596,0.6381,0.5868,0.5487,0.0,0.0,0.0,0.0,0.0,0.0,0.0,0.0,0.0,0.0,0.0,0.0,0.0,0.0,0.0,0.0,0.0,0.0,0.0,0.0,0.0,0.0,0.0,0.0,0.0,0.0,0.0,0.0,0.0,0.0,0.0,0.0,0.0,0.0,0.0,0.0,0.0,0.0,0.0,0.0,1.7402,1.7872,1.6879,0.0,0.0,0.0,0.0,0.0,0.0,1.2253,1.2364,0.0,0.0,0.0,0.0,0.0,0.0,0.0,0.0,0.0,0.0,0.0,0.0,0.0,0.0,0.0,0.0,0.0,0.0,0.0,0.0,0.0,0.0,0.0,0.0,0.0,0.0,0.0,0.0,0.0,0.0,0.0,0.0,0.0,0.0,0.0,0.0,0.0,0.0,0.0,0.0,0.0,0.0,0.0,0.0,0.0,0.0,0.0,0.0,0.0,0.0,0.0,0.0,0.0,0.0,0.0,1.2071,1.3882,1.3711,1.1336,1.0039,0.8419,0.6442,0.6211,0.5958,0.0,0.0,0.0,0.0,0.0,0.0,0.0,0.0,0.0,0.0,0.0,0.0,0.0,0.0,0.0,0.0,0.0,0.0,0.0,0.0,0.0,0.0,0.0,0.0,0.0,0.0,0.0,0.0,0.0,0.0,0.0,0.0,0.0,0.0,0.0,0.0,0.0,0.0,0.0,0.0,0.0,1.9644,1.813,1.55,0.0,0.0,0.0,0.0,1.2376,1.3347,0.0,0.0,0.0,0.0,0.0,0.0,0.0,0.0,0.0,0.0,0.0,0.0,0.0,0.0,0.0,0.0,0.0,0.0,0.0,0.0,0.0,0.0,0.0,0.0,0.0,0.0,0.0,0.0,0.0,0.0,0.0,0.0,0.0,0.0,0.0,0.0,0.0,0.0,0.0,0.0,0.0,0.0,0.0,0.0,0.0,0.0,0.0,0.0,0.0,0.0,0.0,0.0,0.0,0.0,0.0,0.0,1.159,1.2121,1.2236,1.1749,0.9947,0.8745,0.8268,0.7361,0.6867,0.0,0.0,0.0,0.0,0.0,0.0,0.0,0.0,0.0,0.0,0.0,0.0,0.0,0.0,0.0,0.0,0.0,0.0,0.0,0.0,0.0,0.0,0.0,0.0,0.0,0.0,0.0,0.0,0.0,0.0,0.0,0.0,0.0,0.0,0.0,0.0,0.0,0.0,0.0,0.0,0.0,1.9171,1.7309,1.5728,1.4902,0.0,0.0,0.0,1.648,1.7803,0.0,0.0,0.0,0.0,0.0,0.0,0.0,0.0,0.0,0.0,0.0,0.0,0.0,0.0,0.0,0.0,0.0,0.0,0.0,0.0,0.0,0.0,0.0,0.0,0.0,0.0,0.0,0.0,0.0,0.0,0.0,0.0,0.0,0.0,0.0,0.0,0.0,0.0,0.0,0.0,0.0,0.0,0.0,0.0,0.0,0.0,0.0,0.0,0.0,0.0,0.0,0.0,0.0,0.0,0.0,1.2281,1.2373,1.325,1.3225,1.2249,1.0878,0.9875,0.928,0.8583,0.809,0.0,0.0,0.0,0.0,0.0,0.0,0.0,0.0,0.0,0.0,0.0,0.0,0.0,0.0,0.0,0.0,0.0,0.0,0.0,0.0,0.0,0.0,0.0,0.0,0.0,0.0,0.0,0.0,0.0,0.0,0.0,0.0,0.0,0.0,0.0,0.0,0.0,0.0,0.0,0.0,0.0,0.0,1.848,1.6973,0.0,0.0,0.0,1.6723,1.6211,0.0,0.0,0.0,0.0,0.0,0.0,0.0,0.0,0.0,0.0,0.0,0.0,0.0,0.0,0.0,0.0,0.0,0.0,0.0,0.0,0.0,0.0,0.0,0.0,0.0,0.0,0.0,0.0,0.0,0.0,0.0,0.0,0.0,0.0,0.0,0.0,0.0,0.0,0.0,0.0,0.0,0.0,0.0,0.0,0.0,0.0,0.0,0.0,0.0,0.0,0.0,0.0,0.0,0.0,0.0,0.0,0.0,1.2966,1.4396,1.4318,1.2691,1.1608,1.0769,1.0191,0.9668,0.0,0.0,0.0,0.0,0.0,0.0,0.0,0.0,0.0,0.0,0.0,0.0,0.0,0.0,0.0,0.0,0.0,0.0,0.0,0.0,0.0,0.0,0.0,0.0,0.0,0.0,0.0,0.0,0.0,0.0,0.0,0.0,0.0,0.0,0.0,0.0,0.0,0.0,0.0,0.0,0.0,0.0,1.9128,1.9158,1.8247,1.8127,0.0,0.0,1.7433,1.7181,1.8751,1.8654,0.0,0.0,0.0,0.0,0.0,0.0,0.0,0.0,0.0,0.0,0.0,0.0,0.0,0.0,0.0,0.0,0.0,0.0,0.0,0.0,0.0,0.0,0.0,0.0,0.0,0.0,0.0,0.0,0.0,0.0,0.0,0.0,0.0,0.0,0.0,0.0,0.0,0.0,0.0,0.0,0.0,0.0,0.0,0.0,0.0,0.0,0.0,0.0,0.0,0.0,0.0,0.0,0.0,0.0,0.0,1.2901,1.457,1.4693,1.3082,1.1662,1.1001,1.119,1.0497,0.9897,0.0,0.0,0.0,0.0,0.0,0.0,0.0,0.0,0.0,0.0,0.0,0.0,0.0,0.0,0.0,0.0,0.0,0.0,0.0,0.0,0.0,0.0,0.0,0.0,0.0,0.0,0.0,0.0,0.0,0.0,0.0,0.0,0.0,0.0,0.0,0.0,0.0,0.0,0.0,0.0,0.0,1.8761,1.8346,1.9216,2.0642,0.0,0.0,2.0331,2.1937,2.2916,2.1762,1.6497,0.0,0.0,0.0,0.0,0.0,0.0,0.0,0.0,0.0,0.0,0.0,0.0,0.0,0.0,0.0,0.0,0.0,0.0,0.0,0.0,0.0,0.0,0.0,0.0,0.0,0.0,0.0,0.0,0.0,0.0,0.0,0.0,0.0,0.0,0.0,0.0,0.0,0.0,0.0,0.0,0.0,0.0,0.0,0.0,0.0,0.0,0.0,0.0,0.0,0.0,0.0,0.0,0.0,1.3681,1.3622,1.5181,1.525,1.375,1.2565,1.197,1.1983,1.1693,1.1319,0.0,0.0,0.0,0.0,0.0,0.0,0.0,0.0,0.0,0.0,0.0,0.0,0.0,0.0,0.0,0.0,0.0,0.0,0.0,0.0,0.0,0.0,0.0,0.0,0.0,0.0,0.0,0.0,1.4955,1.4644,1.3264,0.0,0.0,0.0,0.0,0.0,0.0,0.0,0.0,0.0,0.0,2.0683,2.1053,2.1305,0.0,0.0,2.1993,2.0941,2.1012,2.0958,1.9583,1.5781,1.5223,0.0,0.0,0.0,0.0,0.0,0.0,0.0,0.0,0.0,0.0,0.0,0.0,0.0,0.0,0.0,0.0,0.0,0.0,0.0,0.0,0.0,0.0,0.0,0.0,0.0,0.0,0.0,0.0,0.0,0.0,0.0,0.0,0.0,0.0,0.0,0.0,0.0,0.0,0.0,0.0,0.0,0.0,0.0,0.0,0.0,0.0,0.0,0.0,0.0,0.0,0.0,0.0,1.4294,1.4342,1.5838,1.5951,1.46,1.3416,1.2823,1.288,1.2691,1.2448,0.0,0.0,0.0,0.0,0.0,0.0,0.0,0.0,0.0,0.0,0.0,0.0,0.0,0.0,0.0,0.0,0.0,0.0,0.0,0.0,0.0,0.0,0.0,0.0,0.0,0.0,0.0,0.0,1.5614,1.494,1.3225,0.0,0.0,0.0,0.0,0.0,0.0,0.0,0.0,0.0,0.0,2.2269,2.2633,2.2373,2.236,2.2959,2.1635,2.0357,1.9702,1.9359,1.8346,1.5995,0.0,0.0,0.0,0.0,0.0,0.0,0.0,0.0,0.0,0.0,0.0,0.0,0.0,0.0,0.0,0.0,0.0,0.0,0.0,0.0,0.0,0.0,0.0,0.0,0.0,0.0,0.0,0.0,0.0,0.0,0.0,0.0,0.0,0.0,0.0,0.0,0.0,0.0,0.0,0.0,0.0,0.0,0.0,0.0,0.0,0.0,0.0,0.0,0.0,0.0,0.0,0.0,0.0,0.0,1.4919,1.6495,1.6761,1.5672,1.4122,1.3523,1.3945,1.3392,1.3028,1.2871,0.0,0.0,0.0,0.0,0.0,0.0,0.0,0.0,0.0,0.0,0.0,0.0,0.0,0.0,0.0,0.0,0.0,0.0,0.0,0.0,0.0,0.0,0.0,0.0,0.0,0.0,1.1275,1.2286,1.3147,0.0,0.0,0.0,0.0,0.0,0.0,0.0,0.0,0.0,0.0,2.1242,2.3056,2.2337,2.1982,2.1991,2.2256,2.017,1.8579,1.881,1.9139,1.9023,0.0,0.0,0.0,0.0,0.0,0.0,0.0,0.0,0.0,0.0,0.0,0.0,0.0,0.0,0.0,0.0,0.0,0.0,0.0,0.0,0.0,0.0,0.0,0.0,0.0,0.0,0.0,0.0,1.1482,0.0,0.0,0.0,0.0,0.0,0.0,0.0,0.0,0.0,0.0,0.0,1.6395,1.7762,0.0,0.0,0.0,0.0,0.0,0.0,0.0,0.0,0.0,0.0,0.0,0.0,1.5829,1.6269,1.7649,1.7843,1.6779,1.5579,1.5001,1.5135,1.4447,1.3902,1.3507,0.0,0.0,0.0,0.0,0.0,0.0,0.0,0.0,0.0,0.0,0.0,0.0,0.0,0.0,0.0,0.0,0.0,0.0,0.0,0.0,0.0,0.0,0.0,0.0,0.0,1.3011,0.0,0.0,0.0,0.0,0.0,0.0,0.0,0.0,0.0,0.0,0.0,1.9217,2.038,2.1454,2.2307,2.2816,2.2773,2.3045,0.0,0.0,0.0,0.0,0.0,0.0,0.0,0.0,0.0,0.0,0.0,0.0,0.0,0.0,2.0841,1.7257,1.7155,1.7745,1.8117,0.0,0.0,0.0,0.0,0.0,0.0,0.0,0.0,0.0,0.0,0.0,0.0,0.0,0.0,0.0,0.0,1.4553,0.0,0.0,0.0,0.0,0.0,0.0,0.0,0.0,1.8566,1.9329,1.9017,2.0373,2.0251,0.0,1.8929,1.767,0.0,0.0,0.0,0.0,0.0,0.0,0.0,0.0,1.6458,1.7535,1.844,1.8569,1.7848,1.6858,1.63,1.6272,1.6083,1.5894,1.5672,1.6382,1.5915,0.0,0.0,0.0,0.0,0.0,0.0,0.0,0.0,0.0,0.0,0.0,0.0,0.0,0.0,0.0,0.0,0.0,0.0,0.0,0.0,0.0,0.0,0.0,1.3207,0.0,0.0,0.0,0.0,0.0,0.0,0.0,0.0,0.0,1.8308,1.9492,2.0854,2.2226,2.2587,2.2702,2.2604,0.0,0.0,0.0,0.0,0.0,0.0,0.0,1.6666,1.758,1.7525,1.796,1.9757,2.1511,2.2763,2.3035,0.0,0.0,2.0766,2.0696,2.1398,2.1771,2.3308,2.4385,2.386,2.5293,2.6426,0.0,0.0,0.0,0.0,0.0,0.0,0.0,0.0,1.94,1.8608,0.0,1.855,0.0,0.0,0.0,0.0,0.0,0.0,0.0,0.0,2.2111,2.3065,2.3193,2.353,2.3647,2.3526,2.3449,2.2456,2.0582,1.8403,0.0,0.0,0.0,0.0,0.0,0.0,1.7334,1.8744,1.8881,1.893,1.8878,1.789,1.7334,1.732,1.8139,1.8733,1.9113,1.8561,1.8223,1.8076,1.2024,0.0,0.0,0.0,0.0,0.0,0.0,0.0,0.0,0.0,0.0,0.0,0.0,0.0,0.0,0.0,0.0,0.0,0.0,0.0,0.0,1.3198,0.0,0.0,0.0,0.0,0.0,0.0,0.0,0.0,0.0,0.0,2.0505,2.124,2.2375,2.3605,0.0,0.0,0.0,0.0,2.1241,1.8626,1.7682,1.7072,1.6134,1.7658,1.9511,2.1119,0.0,0.0,2.4604,2.407,2.3984,2.4692,2.6885,2.7827,2.5485,2.4953,2.518,2.6046,2.6441,2.683,2.7723,2.8487,2.8985,2.1868,0.0,0.0,0.0,0.0,1.9687,2.0834,2.3097,2.2616,2.1404,1.9815,2.045,0.0,0.0,0.0,0.0,0.0,0.0,1.9203,2.1413,2.2497,2.3316,2.394,2.46,2.4662,2.4233,2.4366,2.4431,2.4407,2.3761,2.0879,1.6064,0.0,0.0,0.0,0.0,1.8971,1.9091,1.934,1.947,1.9475,1.8804,1.8213,1.774,1.8797,1.9227,1.887,1.9571,1.9314,1.7928,1.857,0.0,0.0,0.0,0.0,0.0,0.0,0.0,0.0,0.0,0.0,0.0,0.0,0.0,0.0,0.0,0.0,0.0,0.0,0.0,1.2557,1.4062,1.4841,0.0,0.0,0.0,0.0,0.0,0.0,0.0,0.0,0.0,2.2827,2.2318,2.204,0.0,0.0,2.0991,2.0303,2.1506,2.2287,2.1757,0.0,0.0,0.0,2.1458,2.1535,2.3597,2.5801,2.7302,2.7287,2.7777,2.836,2.8893,2.9604,2.9897,2.9347,2.9476,2.9789,3.0113,3.0193,3.0431,3.1072,3.1217,3.143,2.6526,2.4935,2.2826,2.2485,2.3297,2.2947,2.4188,2.6422,2.5989,2.4787,2.3196,2.4152,2.4012,2.2883,2.0098,0.0,0.0,0.0,2.1648,2.3809,2.3906,2.4213,2.469,2.5172,2.5267,2.4993,2.509,2.5629,2.6472,2.6395,2.4155,1.9963,0.0,0.0,1.9233,1.9659,1.9941,2.0021,1.9814,1.9723,1.9699,1.9387,1.9031,1.8656,1.9574,1.9914,1.954,2.0782,2.0937,1.9755,2.1115,2.0648,0.0,0.0,0.0,0.0,0.0,0.0,0.0,0.0,0.0,0.0,0.0,1.251,0.0,0.0,0.0,0.0,1.4754,1.4631,1.5011,1.5973,0.0,0.0,0.0,0.0,0.0,0.0,0.0,2.2442,2.3285,2.3877,2.4334,2.3377,2.2909,2.3663,2.2932,2.2145,2.1673,0.0,2.392,2.35,2.3691,2.4115,2.477,2.4297,2.4456,2.6279,2.7682,2.8664,2.8848,2.9417,3.0099,3.0787,3.1014,3.1203,3.1803,3.226,3.2266,3.175,3.2101,3.262,3.2965,3.3037,3.3359,3.0498,3.0017,2.52,2.4482,2.6443,2.6136,2.728,2.9345,2.9099,2.8259,2.7151,2.8628,2.8142,2.594,2.3014,0.0,0.0,2.4138,2.4859,2.6823,2.5994,2.56,2.5595,2.5618,2.5687,2.5898,2.5828,2.6349,2.7343,2.7195,2.6395,2.5081,2.4194,2.3119,2.1882,2.0783,2.0588,2.1281,2.0294,1.9777,1.9723,1.9723,1.9723,1.9699,2.0303,2.0638,2.0728,2.1869,2.2583,2.2628,2.1006,2.1325,2.3858,0.0,0.0,0.0,0.0,0.0,0.0,0.0,0.0,0.0,0.0,0.0,0.0,0.0,0.0,0.0,1.8896,0.0,1.9539,1.8616,0.0,0.0,0.0,1.8864,2.0776,2.2545,2.3908,2.4741,0.0,0.0,0.0,0.0,2.4651,2.7021,2.6604,2.5689,2.4584,2.5399,2.5771,2.4276,2.4529,2.4958,2.5387,2.6405,2.7663,2.8825,2.9179,2.9334,2.9618,2.9791,3.0238,3.1285,3.1482,3.1933,3.3379,3.3564,3.3209,3.1796,3.2687,3.3675,3.3696,3.4094,3.4499,2.9952,2.9858,2.8562,2.8477,2.92,2.8716,2.8854,2.9363,2.9117,2.8938,2.8866,2.8718,2.8088,2.7103,2.6358,2.6139,2.6392,2.6187,2.6293,2.6683,2.7067,2.7223,2.7223,2.7242,2.7337,2.7483,2.6898,2.7428,2.8967,2.8819,2.8579,2.8271,2.7908,2.5972,2.2651,2.2944,2.2598,2.147,2.0797,2.0213,1.9738,1.9723,1.9723,1.9723,1.9857,2.0183,2.0683,2.0997,2.165,2.2659,2.2971,2.3572,2.4479,1.9863,0.0,0.0,0.0,0.0,0.0,0.0,0.0,0.0,0.0,1.5965,1.2598,0.0,1.6645,0.0,2.1363,2.2366,2.0923,2.1237,0.0,0.0,2.136,2.1778,2.486,2.5238,2.5209,2.5109,2.5743,2.613,2.6003,2.5468,2.5933,2.8029,2.5997,2.4136,2.3882,2.5362,2.6293,2.5965,2.6991,2.8043,2.8044,2.8766,2.969,3.0538,3.0676,3.0714,3.0776,3.1281,3.1853,3.2503,3.3081,3.3549,3.3924,3.3987,3.3736,3.3132,3.3731,3.4438,3.4446,3.4351,3.4418,2.9725,2.9739,2.9605,2.9686,2.9828,2.9533,2.933,2.9203,2.9061,2.9114,2.9301,2.9494,2.9397,2.906,2.9397,2.9383,2.9062,2.8712,2.8616,2.8747,2.8815,2.8876,2.8857,2.8876,2.8925,2.9026,2.8582,2.8984,3.0081,3.0043,2.9799,2.9429,2.8775,2.7167,2.4752,2.4362,2.3334,2.1626,2.1009,2.0528,2.0154,1.9848,1.9573,1.928,1.9558,1.9729,1.9815,2.0384,2.0772,2.093,2.1842,2.2346,2.2205,1.9793,1.8189,0.0,0.0,0.0,0.0,0.0,0.0,0.0,0.0,0.0,0.0,0.0,1.8416,0.0,0.0,0.0,2.2017,2.3308,2.4481,2.5037,2.4899,2.5574,2.7605,2.806,2.806,2.756,2.7962,2.8245,2.8116,2.7692,2.7788,2.9005,2.7498,2.6152,2.5914,2.6757,2.7458,2.7695,2.858,2.9627,3.029,3.0794,3.1326,3.1985,3.2171,3.2171,3.2198,3.251,3.2876,3.3146,3.3521,3.3915,3.4189,3.4274,3.4264,3.4442,3.4746,3.4923,3.4671,3.4681,3.4922,2.957,2.9509,2.936,2.9291,2.9352,2.9408,2.925,2.9005,2.9109,2.9213,2.9443,3.0678,3.1144,3.1069,3.1736,3.1935,3.1712,3.1019,3.094,3.1342,3.0687,3.0411,3.0497,3.0411,3.0387,3.0436,3.0338,3.0526,3.0999,3.1009,3.0602,2.9773,2.8526,2.755,2.682,2.5121,2.3437,2.1844,2.1096,2.0688,2.0688,2.0034,1.9414,1.8873,1.9399,1.9429,1.8897,1.995,2.007,1.907,1.9804,2.0112,1.9742,1.9456,1.8771,0.0,1.7384,0.0,0.0,0.0,0.0,0.0,0.0,0.0,0.0,2.1722,2.081,1.9716,2.3614,2.5392,2.3487,2.5174,2.6704,2.7507,2.8536,2.9244,2.9496,3.0511,3.0993,3.0457,3.0401,3.0381,3.0317,2.997,2.9596,2.9641,2.945,2.9,2.8716,2.855,2.8795,2.9461,2.9621,3.0313,3.1576,3.2062,3.2312,3.3007,3.3102,3.3311,3.3311,3.3446,3.3541,3.3569,3.3709,3.3986,3.4539,3.4747,3.5046,3.5588,3.5853,3.5695,3.5005,3.5113,3.56,2.8936,2.8664,2.8609,2.8776,2.9103,2.9431,2.9357,2.9036,2.969,3.0448,3.1288,3.171,3.1809,3.1651,3.1795,3.1715,3.1483,3.1329,3.1323,3.1397,3.125,3.1513,3.2094,3.1476,3.1348,3.1611,3.0998,3.1185,3.2109,3.2109,3.1851,3.133,3.0142,2.8224,0.0,0.0,0.0,0.0,2.1296,2.0688,2.0673,2.0049,1.9648,1.9519,1.9624,0.0,1.9525,1.9759,2.0043,2.0327,2.0901,0.0,0.0,0.0,0.0,0.0,0.0,0.0,0.0,0.0,0.0,0.0,2.1182,2.1475,2.3048,2.3887,2.3939,2.3045,2.4534,2.5986,2.6977,2.7524,2.8364,2.9493,2.9941,3.0359,3.0885,3.0801,3.0604,3.0491,3.0076,2.9914,3.0231,2.9861,2.9753,3.0045,2.9809,2.9557,2.9437,2.9384,2.9607,3.0179,3.0563,3.1062,3.1515,3.1593,3.1868,3.2394,3.2596,3.2835,3.3342,3.3926,3.4286,3.4336,3.4793,3.5205,3.5391,3.5921,3.6373,3.6542,3.7017,3.7048,3.5701,3.5498,3.5797,2.9773,0.0,2.9602,2.9709,0.0,2.9855,2.9733,2.9589,3.044,3.109,3.162,3.1911,3.1998,3.1921,3.2085,3.207,3.1942,3.1953,3.1942,3.1942,3.1942,3.2151,3.2556,3.2505,3.2583,3.2791,3.2751,3.2889,3.3219,3.3236,3.2866,3.2094,3.0535,2.8783,2.6903,2.5612,2.4383,2.3141,2.2198,2.1695,2.165,2.1046,2.0537,2.0213,0.0,0.0,0.0,0.0,0.0,0.0,0.0,0.0,0.0,0.0,0.0,2.2437,2.1996,2.1623,2.1551,2.22,2.3224,2.4618,2.5519,2.555,2.4582,2.5909,2.6506,2.5775,2.6447,2.7445,2.8637,2.9115,2.9735,3.0653,3.086,3.0943,3.0945,3.0961,3.0826,3.0586,3.0541,3.0617,3.0801,3.0688,3.0617,3.0801,3.0683,3.0522,3.0477,2.9982,2.9729,2.9983,3.0537,3.1031,3.1374,3.145,3.183,3.2696,3.2999,3.327,3.3894,3.4291,3.4755,3.5442,3.5972,3.6282,3.6693,3.7094,3.7337,3.7368,3.7643,3.7687,3.6865,3.675,3.6845,3.0629,3.0571,3.0581,3.0616,3.0652,3.0333,3.0333,3.0566,0.0,0.0,0.0,3.1989,3.2084,3.2116,3.2372,3.2501,3.2501,3.2501,3.2563,3.2687,3.2687,3.2775,3.2917,3.3519,3.3767,3.3724,3.4304,3.4433,3.4177,3.4157,3.3623,3.2505,3.0663,2.9118,2.7982,2.6411,2.5049,2.3973,2.3242,2.2755,2.2527,2.1857,2.1253,2.0708,2.1223,2.1327,2.0897,2.141,2.1001,1.9519,1.9626,1.9673,1.9549,2.0938,2.2467,2.3973,2.4781,2.5082,2.4899,2.5646,2.6554,2.7573,2.9233,2.9134,2.6455,2.7861,2.8603,2.8008,2.8408,2.8956,2.9605,2.9997,3.058,3.1306,3.1314,3.1074,3.0772,3.1098,3.1207,3.0844,3.1136,3.1496,3.1451,3.1451,3.1496,3.1481,3.1391,3.1436,3.1227,3.0402,2.9813,2.9856,3.0127,3.0479,3.0975,3.123,3.1829,3.2835,3.3338,3.3822,3.439,3.4799,3.5437,3.6434,3.6848,3.7212,3.7741,3.7961,3.8075,3.8082,3.8205,3.8277,3.8283,3.829,3.8249,3.0004,2.968,2.968,2.9877,3.0237,3.0499,3.1216,3.2103,3.156,3.1921,3.2925,3.2589,3.2432,3.2423,3.2472,3.2501,3.2501,3.2501,3.2846,0.0,3.3448,3.3784,3.4376,3.4491,3.4363,3.4058,3.4143,3.4285,3.444,3.4455,3.4074,3.318,3.1405,2.898,2.6225,2.5725,2.5498,2.53,2.4118,2.2956,2.187,2.1173,2.0812,2.0701,2.0823,2.1088,2.1555,2.1675,2.1854,2.2119,2.2174,2.2649,2.3665,2.4351,2.5169,2.5993,2.7106,2.7551,2.7013,2.8173,2.9024,2.9251,2.9545,2.9459,2.9055,2.9713,2.9971,2.9402,2.9369,2.9709,3.0251,2.9994,3.0228,3.1175,3.0941,3.0803,3.1247,3.1398,3.1429,3.1316,3.1421,3.1496,3.1496,3.1481,3.1436,3.1481,3.1316,3.1271,3.0792,3.0507,3.037,3.0287,2.9976,2.98,3.0017,3.034,3.109,3.1734,3.2891,3.3766,3.4465,3.5389,3.617,3.6649,3.7185,3.766,3.7918,3.843,3.8725,3.8839,3.9238,3.9623,3.9632,3.964,3.9508,3.0916,3.075,3.075,3.086,3.1012,3.0984,3.1655,3.2686,3.212,3.2188,3.2781,3.2773,3.2774,3.2791,3.2918,3.2986,3.2986,3.2986,3.3158,3.3486,3.3486,3.3649,3.4022,3.4409,3.4479,3.4356,3.4711,3.4976,3.5059,3.4734,3.4232,3.3429,3.1231,2.8931,2.6828,2.6689,2.6509,2.6123,2.5192,2.4413,2.3819,2.286,2.2479,2.279,2.2171,2.2065,2.2717,2.2727,2.2872,2.3171,2.3171,2.361,2.4556,2.5483,2.614,2.6541,2.8047,2.8696,2.8102,2.8986,2.958,2.9619,2.9907,3.0076,3.0038,3.0017,2.9898,2.9633,2.9608,2.9836,3.0433,3.025,3.0452,3.1349,3.1186,3.1181,3.1421,3.1496,3.1496,3.1496,3.1496,3.1496,3.1496,3.1182,3.0972,3.0927,3.0717,3.0477,3.0477,3.0223,2.9877,2.9549,2.9533,2.9608,2.9666,3.0447,3.1247,3.1979,3.286,3.3713,3.4402,3.5217,3.5806,3.6543,3.7045,3.757,3.8205,3.8703,3.9063,3.9579,3.9819,4.0079,4.0113,4.0113,3.9977,3.1642,3.166,3.1858,3.2004,3.2139,3.1842,3.2241,3.3033,3.2702,3.26,3.272,3.2975,3.3072,3.3119,3.3301,3.3389,3.3389,3.3389,3.3491,3.3643,3.366,3.3728,3.3937,3.4506,3.4742,3.481,3.534,3.5526,3.5339,3.483,3.4105,3.3006,3.089,2.9144,2.7854,2.7824,2.751,2.6839,2.6303,2.5768,2.5146,2.4548,2.4326,2.4285,2.3586,2.3447,2.3999,2.4193,2.4354,2.4504,2.4642,2.502,2.5701,2.6641,2.7218,2.74,2.8672,2.9391,2.9107,2.9518,2.9877,3.0042,3.0462,3.0717,3.0687,3.0313,3.0042,3.0028,3.0088,3.0267,3.067,3.0746,3.0928,3.1436,3.1496,3.1466,3.1511,3.1615,3.1735,3.172,3.1615,3.154,3.154,3.1002,3.0627,3.0687,3.0193,3.0028,3.0342,2.9968,2.9383,2.9114,2.9279,2.9653,2.9817,3.0717,3.166,3.2392,3.3216,3.388,3.4466,3.472,3.5336,3.6492,3.7058,3.7708,3.8679,3.9093,3.9426,3.9935,4.0079,4.0146,4.0388,4.0608,4.0523,3.1286,3.1353,3.2011,3.2642,3.3174,3.3163,3.3218,3.3361,3.3315,3.3302,3.338,3.3354,3.3405,3.3367,3.3427,3.3463,3.3463,3.3396,3.3778,3.4336,3.4398,3.4742,3.5289,3.5459,3.5509,3.5492,3.5526,3.5253,3.4771,3.4604,3.3639,3.1903,3.0863,2.9759,2.8637,2.8487,2.8171,2.7525,2.745,2.6235,2.4045,2.528,2.5315,2.3737,2.424,2.4797,2.5314,2.5989,2.6599,2.7198,2.7724,2.8382,2.8979,2.921,2.9285,2.9277,2.9494,2.9783,3.0253,3.0387,3.0658,3.1256,3.1316,3.1391,3.1406,3.1346,3.1316,3.1316,3.1331,3.1331,3.1406,3.1436,3.1525,3.1645,3.1645,3.1496,3.1645,3.2048,3.2407,3.2407,3.1854,3.172,3.2018,3.1241,3.0746,3.1017,3.0553,3.0254,3.0417,3.0058,2.9728,2.9578,2.9623,2.9862,3.0328,3.1002,3.1854,3.2527,3.3605,3.4343,3.4756,3.5492,3.6475,3.6334,3.7467,3.8242,3.8815,3.942,3.9876,4.0197,4.0324,4.0367,4.0967,4.1508,4.1674,3.251,3.2516,3.2814,3.3119,3.3389,3.3389,3.366,3.4049,3.4049,3.4286,3.4681,3.4715,3.4461,3.4083,3.4478,3.4687,3.4687,3.4704,3.4867,3.5137,3.5154,3.5306,3.5583,3.5628,3.5628,3.5554,3.5191,3.4871,3.452,3.3811,3.2572,3.1104,3.0646,2.9864,2.8697,2.8592,2.8276,2.7615,2.7585,2.6861,2.5556,2.5729,2.5566,2.4824,2.472,2.4973,2.5592,2.6255,2.6914,2.757,2.8233,2.8891,2.9563,2.9608,2.9608,2.9623,2.9937,3.0432,3.1046,3.1091,3.1197,3.1481,3.1496,3.166,3.2063,3.2079,3.2243,3.2572,3.2333,3.2093,3.2108,3.2437,3.2691,3.2691,3.2691,3.2647,3.2706,3.2557,3.2512,3.2467,3.1929,3.1571,3.172,3.1106,3.0522,3.0433,3.0118,3.0178,3.0402,3.0268,3.0342,3.0627,3.0717,3.0598,3.0702,3.1809,3.2602,3.32,3.4203,3.504,3.5181,3.5429,3.5943,3.5975,3.6631,3.7425,3.8074,3.8516,3.899,3.9913,4.1192,4.1521,4.1809,4.2097,4.2236,3.3389,3.3423,3.3599,3.3812,3.4004,3.4004,3.4303,3.4759,3.4793,3.5087,3.5583,3.5628,3.5306,3.4928,3.5374,3.5628,3.5628,3.5628,3.5628,3.5628,3.5628,3.5611,3.5588,3.5413,3.5339,3.5252,3.483,3.4589,3.4458,3.3456,3.231,3.1432,3.1315,3.0687,2.9491,2.925,2.871,2.7931,2.7705,2.7227,2.6557,2.631,2.6076,2.5786,2.561,2.571,2.6144,2.6973,2.7647,2.8139,2.8936,2.9624,3.0087,3.0118,3.0118,3.0148,3.0537,3.0987,3.1466,3.166,3.178,3.1795,3.1914,3.2228,3.2647,3.2766,3.2991,3.3319,3.2986,3.2671,3.2826,3.3215,3.3378,3.3162,3.3012,3.2864,3.2744,3.239,3.2228,3.2378,3.1899,3.1406,3.1227,3.0957,3.0702,3.0372,3.0223,3.0238,3.0643,3.0792,3.0972,3.1406,3.1481,3.1376,3.1195,3.2063,3.32,3.3888,3.4622,3.507,3.54,3.5504,3.5504,3.5702,3.5554,3.6078,3.7552,3.8013,3.855,4.0224,4.1378,4.1966,4.2132,4.2366,4.2893,3.3389,3.3531,3.4167,3.4833,3.5464,3.543,3.5475,3.5475,3.5515,3.5566,3.56,3.5628,3.5583,3.5566,3.565,3.5628,3.5628,3.5661,3.5695,3.5667,3.565,3.5622,3.5566,3.4953,3.4702,3.4799,3.4684,3.4542,3.4424,3.3787,3.344,3.3305,3.32,3.2617,3.1376,3.0687,2.9819,2.8771,2.8089,2.7332,2.6757,2.7211,2.7153,2.6609,2.7061,2.7307,2.7579,2.8727,2.9388,2.9461,3.0485,3.1244,3.1303,3.1318,3.1246,3.1333,3.1378,3.1452,3.1572,3.199,3.2288,3.2437,3.278,3.3319,3.3164,3.3271,3.3345,3.3468,3.3124,3.3013,3.3205,3.3221,3.3018,3.2312,3.1701,3.1441,3.1337,3.1478,3.1668,3.2184,3.1914,3.1346,3.0732,3.1106,3.1301,3.1286,3.1331,3.1346,3.1301,3.1391,3.1436,3.1466,3.154,3.169,3.2198,3.2512,3.3125,3.3844,3.4233,3.4622,3.5115,3.5489,3.5489,3.5594,3.5744,3.633,3.7358,3.823,3.9001,4.0066,4.0863,4.1422,4.2094,4.2794,4.3247,3.4799,3.4833,3.5087,3.5374,3.5583,3.5628,3.5628,3.5628,3.5628,3.5628,3.5628,3.5616,3.5881,3.6366,3.6366,3.6096,3.5667,3.6113,3.6378,3.6371,3.6341,3.6318,3.6228,3.557,3.5233,3.5176,3.4745,3.4308,3.3864,3.3592,3.3499,3.3499,3.3499,3.3036,3.2243,3.1914,3.1331,3.0466,2.9641,2.8911,2.8297,2.8303,2.798,2.7362,2.7018,2.7272,2.802,2.8081,2.821,2.8564,2.9434,2.9904,2.9947,3.0212,3.069,3.1195,3.1063,3.1211,3.1741,3.1507,3.1298,3.1344,3.2092,3.2548,3.2448,3.2823,3.316,3.292,3.2506,3.2348,3.2371,3.2418,3.2272,3.1934,3.1422,3.1211,3.1582,3.1466,3.1546,3.2184,3.1914,3.1391,3.1241,3.1361,3.1496,3.1496,3.1496,3.1496,3.1496,3.1496,3.1496,3.1496,3.1511,3.1585,3.1765,3.2258,3.2826,3.3514,3.4068,3.4651,3.516,3.5444,3.5489,3.6207,3.6342,3.6818,3.7906,3.8543,3.9329,4.0135,4.0849,4.1151,4.201,4.2469,4.2967,3.5628,3.5628,3.5628,3.5763,3.5977,3.5983,3.6135,3.6287,3.6073,3.6096,3.6269,3.6085,3.6416,3.7001,3.6893,3.6494,3.603,3.6527,3.6769,3.6731,3.6476,3.6336,3.6231,3.5584,3.5256,3.5189,3.476,3.4364,3.419,3.4143,3.4158,3.4173,3.4143,3.3814,3.323,3.2931,3.2497,3.1782,3.0984,3.0235,2.963,2.9299,2.8915,2.8353,2.7409,2.7353,2.8373,2.8149,2.815,2.8559,2.9169,2.9516,2.9561,2.987,3.0325,3.0872,3.0763,3.0895,3.1455,3.1163,3.0935,3.0966,3.1736,3.2148,3.1993,3.2564,3.2774,3.2527,3.1787,3.1358,3.1192,3.0746,3.0541,3.0852,3.0593,3.0472,3.0898,3.0667,3.1039,3.1842,3.178,3.1525,3.1496,3.1496,3.1496,3.1496,3.1496,3.1496,3.1496,3.1496,3.1496,3.1496,3.1496,3.1511,3.16,3.1929,3.2362,3.3021,3.3574,3.4292,3.5295,3.5504,3.5968,3.6686,3.7254,3.7731,3.8238,3.8844,3.9556,4.0297,4.0516,4.0656,4.1377,4.1997,4.2582,3.5684,3.5735,3.5622,3.6083,3.6629,3.6592,3.7113,3.7371,3.6841,3.6808,3.7154,3.687,3.6887,3.7504,3.699,3.6686,3.6723,3.6707,3.6687,3.6671,3.6053,3.5762,3.5752,3.5093,3.4729,3.4731,3.4561,3.4865,3.531,3.528,3.531,3.5415,3.531,3.4951,3.4473,3.3874,3.323,3.2541,3.1827,3.1026,3.0221,2.9981,2.9785,2.9424,2.8312,2.8036,2.8727,2.9171,2.9299,2.9495,3.0017,3.0505,3.0261,3.0338,3.0528,3.0587,3.0589,3.0576,3.0716,3.1158,3.1274,3.1381,3.2097,3.2335,3.2117,3.235,3.2404,3.1991,3.1074,3.0337,2.9987,2.8703,2.8158,2.9153,2.9036,2.873,2.8769,2.8939,2.9672,3.1102,3.1438,3.1496,3.1496,3.1496,3.1496,3.1496,3.1496,3.1496,3.1496,3.1496,3.1496,3.1496,3.1511,3.1525,3.1525,3.1585,3.2004,3.2467,3.2961,3.3634,3.534,3.6073,3.6761,3.7464,3.7958,3.8376,3.7925,3.8473,3.8821,3.9419,3.969,4.0112,4.0675,4.1362,4.2268,3.7183,3.7125,3.6586,3.6485,3.6638,3.6198,3.6124,3.6303,3.6037,3.6074,3.6237,3.6047,3.6376,3.6913,3.6785,3.6961,3.7401,3.6933,3.6649,3.6627,3.6394,3.6247,3.6114,3.5523,3.5195,3.5178,3.5183,3.528,3.5459,3.5489,3.5489,3.5489,3.5489,3.54,3.5176,3.495,3.4441,3.354,3.2699,3.1631,3.0428,3.0038,2.9655,2.9215,2.9103,2.9262,2.9395,2.8557,2.8269,2.8653,2.8786,2.887,2.895,2.9246,2.9759,3.0345,3.0202,3.0385,3.0852,3.059,3.0405,3.0518,3.1156,3.1236,3.0865,3.1278,3.1129,3.0304,2.9277,2.8696,2.8188,2.7402,2.7202,2.7905,2.7518,2.748,2.8043,2.9033,3.0024,3.0598,3.1161,3.1452,3.1496,3.1496,3.1496,3.1496,3.1496,3.1496,3.1496,3.1496,3.1496,3.1496,3.154,3.172,3.1899,3.2168,3.2542,3.2766,3.3035,3.3709,3.531,3.6716,3.7449,3.7793,3.8347,3.8434,3.8015,3.8043,3.8399,3.877,3.9235,3.9655,4.005,4.0775,4.1658,3.7211,3.7348,3.6612,3.6459,3.6644,3.619,3.6173,3.6322,3.6099,3.6142,3.6342,3.6099,3.6408,3.6929,3.6821,3.6911,3.7247,3.6554,3.6215,3.6254,3.6215,3.6196,3.6149,3.575,3.5489,3.5489,3.5489,3.5489,3.5489,3.5489,3.5489,3.5489,3.5489,3.5489,3.5489,3.5457,3.5003,3.4044,3.3407,3.2339,3.0998,3.0452,2.998,2.9397,2.9603,2.9767,2.9704,2.8768,2.8373,2.8662,2.8725,2.8737,2.8762,2.9101,2.9511,2.995,3.0005,3.0088,3.0539,3.0145,2.9779,2.9914,3.0355,3.0457,2.9979,3.0283,2.9799,2.9057,2.8266,2.7675,2.7341,2.6809,2.6683,2.6952,2.676,2.688,2.767,2.8636,2.9628,3.0119,3.0749,3.1129,3.1407,3.1496,3.1496,3.1496,3.1496,3.1496,3.1496,3.1496,3.1525,3.1645,3.1824,3.2079,3.2407,3.2766,3.3155,3.326,3.3365,3.4233,3.5459,3.6851,3.7838,3.7389,3.7614,3.7749,3.7432,3.7689,3.7985,3.8407,3.8876,3.9579,4.0115,4.0239,4.103,3.6203,3.6649,3.5974,3.6117,3.6641,3.6559,3.6776,3.7329,3.6781,3.6764,3.7168,3.6611,3.678,3.7276,3.6689,3.6492,3.643,3.5943,3.5621,3.5609,3.5588,3.5604,3.5588,3.5538,3.5489,3.5489,3.5489,3.5489,3.5489,3.5489,3.5489,3.5489,3.5489,3.5489,3.5457,3.5457,3.4822,3.3908,3.3676,3.2658,3.109,3.1013,3.0607,2.9787,2.9767,2.9779,2.9741,2.9603,2.9628,2.9773,2.9641,2.9616,2.9729,2.9779,2.9767,2.9858,2.9818,2.9811,2.9818,2.9856,2.9779,2.9798,2.9856,2.9754,2.9686,2.9359,2.905,2.8637,2.7883,2.7311,2.7165,2.6801,2.6567,2.6499,2.6512,2.685,2.7454,2.7736,2.8508,2.9664,3.019,3.0571,3.1276,3.1379,3.1496,3.1525,3.157,3.169,3.1735,3.1795,3.169,3.1929,3.2362,3.2706,3.3125,3.338,3.3799,3.4173,3.4188,3.4771,3.5594,3.6866,3.7387,3.7,3.6956,3.7015,3.712,3.7345,3.7676,3.8063,3.875,3.9627,4.0045,4.0168,4.062,3.7833,3.743,3.6668,3.6452,3.6533,3.6076,3.5933,3.6085,3.5926,3.599,3.6069,3.591,3.5958,3.6084,3.5942,3.5783,3.5751,3.5604,3.5489,3.5489,3.5489,3.5489,3.5489,3.5489,3.5489,3.5489,3.5489,3.5489,3.5489,3.5489,3.5489,3.5489,3.5489,3.5473,3.5441,3.4774,3.3893,3.2999,3.2247,3.1456,3.0444,3.0203,3.0075,2.9856,2.9779,2.9779,2.9779,2.9779,2.9779,2.9779,2.9779,2.9779,2.9779,2.9754,2.9741,2.9779,2.9767,2.9779,2.9779,2.9779,2.9779,2.9779,2.9741,2.9603,2.9157,2.9007,2.8518,2.7946,2.7399,2.7128,2.6801,2.6587,2.6487,2.6487,2.6487,2.6607,2.6871,2.7351,2.795,2.8416,2.9504,3.0264,3.0734,3.122,3.1556,3.1675,3.1944,3.2228,3.2288,3.2557,3.2632,3.2886,3.3245,3.356,3.3859,3.4084,3.4473,3.5011,3.5205,3.534,3.6043,3.6821,3.6686,3.6146,3.664,3.6834,3.6866,3.6985,3.736,3.7749,3.86,3.9428,3.9804,4.0008,4.05,3.7412,3.7234,3.6461,3.6134,3.6086,3.5668,3.5489,3.5489,3.5489,3.5489,3.5489,3.5489,3.5489,3.5489,3.5489,3.5489,3.5489,3.5489,3.5489,3.5489,3.5489,3.5489,3.5489,3.5489,3.5489,3.5489,3.5489,3.5489,3.5489,3.5489,3.5489,3.5489,3.5489,3.5295,3.4791,3.4312,3.331,3.2182,3.1419,3.0749,2.9876,2.9779,2.9779,2.9779,2.9779,2.9779,2.9779,2.9779,2.9779,2.9779,2.9779,2.9779,2.9754,2.9478,2.9497,2.9716,2.9559,2.9496,2.9754,2.9779,2.9779,2.9729,2.9616,2.9289,2.8894,2.8543,2.7846,2.7449,2.7123,2.6826,2.6587,2.6487,2.6487,2.6487,2.6487,2.6487,2.6487,2.6918,2.7347,2.7894,2.8841,3.006,3.054,3.1396,3.1961,3.2348,3.2721,3.2856,3.2961,3.3335,3.3589,3.3679,3.3858,3.4128,3.4368,3.4607,3.4772,3.5325,3.5489,3.5729,3.6013,3.6522,3.6178,3.5892,3.634,3.6625,3.6582,3.6686,3.709,3.7629,3.8467,3.9124,3.9533,4.0289,4.0741,3.5958,3.643,3.5782,3.5489,3.5522,3.5489,3.5489,3.5489,3.5489,3.5489,3.5489,3.5489,3.5489,3.5489,3.5489,3.5489,3.5489,3.5489,3.5489,3.5489,3.5489,3.5489,3.5489,3.5489,3.5489,3.5489,3.5489,3.5489,3.5489,3.5489,3.5489,3.5489,3.5489,3.4938,3.4279,3.3876,3.2873,3.1559,3.1031,3.0551,2.9934,2.9779,2.9779,2.9779,2.9779,2.9779,2.9779,2.9779,2.9779,2.9779,2.9779,2.9779,2.9704,2.9139,2.9189,2.961,2.9421,2.9358,2.9679,2.9779,2.9779,2.9716,2.9258,2.8838,2.8643,2.7991,2.7376,2.7135,2.6763,2.6575,2.6512,2.6487,2.6487,2.6512,2.6524,2.66,2.6575,2.6575,2.6871,2.7585,2.8464,2.966,3.0847,3.1901,3.2643,3.2931,3.332,3.3559,3.3694,3.3993,3.4113,3.4098,3.4322,3.4607,3.4847,3.5086,3.522,3.5489,3.5474,3.5579,3.5579,3.5818,3.5669,3.5684,3.5982,3.6116,3.6133,3.6372,3.6883,3.7644,3.8556,3.9049,3.95,4.054,4.1231,3.6117,3.5718,3.5554,3.5489,3.5489,3.5489,3.5489,3.5489,3.5489,3.5489,3.5489,3.5489,3.5489,3.5489,3.5489,3.5489,3.5489,3.5489,3.5489,3.5489,3.5489,3.5489,3.5489,3.5489,3.5489,3.5489,3.5489,3.5489,3.5489,3.5489,3.5473,3.5441,3.5295,3.497,3.3976,3.3119,3.2361,3.1254,3.0533,3.0145,2.9977,2.988,2.9892,2.988,2.9867,2.9842,2.9792,2.9779,2.9779,2.9792,2.9817,2.9867,2.9767,2.9616,2.9623,2.9666,2.9666,2.9628,2.9767,2.9804,2.9779,2.9679,2.922,2.8718,2.8254,2.7673,2.709,2.6809,2.6562,2.6499,2.6562,2.6512,2.66,2.67,2.6939,2.7123,2.7123,2.714,2.7251,2.7615,2.8538,2.9697,3.0752,3.1744,3.2537,3.3326,3.3858,3.4218,3.4458,3.4651,3.4666,3.4637,3.4786,3.504,3.516,3.5444,3.5729,3.5833,3.5789,3.5699,3.5684,3.5489,3.5489,3.5489,3.5549,3.5654,3.5833,3.6548,3.7169,3.791,3.8609,3.9252,3.9947,4.0917,4.1788,3.5862,3.5489,3.5489,3.5489,3.5489,3.5489,3.5489,3.5489,3.5489,3.5489,3.5489,3.5489,3.5489,3.5489,3.5489,3.5489,3.5489,3.5489,3.5489,3.5489,3.5489,3.5489,3.5489,3.5489,3.5489,3.5504,3.5489,3.5489,3.5489,3.547,3.5246,3.4822,3.4837,3.3891,3.289,3.2241,3.1457,3.0717,3.0361,3.0181,3.0181,3.0432,3.0565,3.0545,3.0545,3.0545,3.057,3.0557,3.0557,3.0527,3.0401,3.0118,2.9854,2.9792,2.9792,2.9767,2.9503,2.9578,2.9691,2.9993,2.9955,2.9434,2.9082,2.848,2.7858,2.7233,2.6862,2.657,2.6524,2.6562,2.6851,2.7173,2.7211,2.7286,2.7499,2.7657,2.7657,2.767,2.767,2.7882,2.8694,2.9632,3.0589,3.1611,3.2711,3.363,3.4511,3.4858,3.4951,3.5145,3.5235,3.525,3.534,3.5444,3.5519,3.5789,3.6222,3.6327,3.6342,3.6224,3.6134,3.5804,3.5489,3.5489,3.5504,3.5564,3.5836,3.6613,3.7267,3.7717,3.8387,3.9395,4.0363,4.1249,4.2109,3.5489,3.5489,3.5489,3.5489,3.5489,3.5489,3.5489,3.5489,3.5489,3.5489,3.5489,3.5489,3.5489,3.5489,3.5489,3.5489,3.5489,3.5489,3.5489,3.5489,3.5699,3.5744,3.5742,3.5801,3.5874,3.5757,3.5929,3.5914,3.591,3.5738,3.5566,3.4575,3.4217,3.3445,3.1894,3.1325,3.1061,3.0303,3.0561,3.0713,3.0758,3.1085,3.1256,3.1268,3.1256,3.1243,3.1231,3.1268,3.1331,3.1373,3.1173,3.0683,3.0193,3.0125,3.0018,3.003,2.9754,2.9867,3.0206,3.0457,3.0324,2.9308,2.9107,2.8693,2.7934,2.7389,2.7037,2.6901,2.6896,2.7035,2.7399,2.77,2.7971,2.8059,2.8122,2.8235,2.826,2.8285,2.8398,2.8333,2.8977,2.9803,3.0681,3.1643,3.2823,3.3883,3.4716,3.5392,3.5457,3.5473,3.5457,3.5489,3.5489,3.5783,3.5889,3.634,3.6744,3.6877,3.6909,3.6778,3.6643,3.6462,3.6163,3.5579,3.5519,3.5669,3.5992,3.6717,3.7211,3.7507,3.8523,3.989,4.0816,4.1594,4.2489,3.5489,3.5489,3.5489,3.5489,3.5489,3.5489,3.5489,3.5489,3.5489,3.5489,3.5489,3.5489,3.5489,3.5489,3.5489,3.5504,3.5564,3.5609,3.5609,3.5744,3.6058,3.6312,3.634,3.6514,3.6735,3.7019,3.7079,3.7066,3.6959,3.7007,3.6123,3.5544,3.4874,3.3638,3.2257,3.1811,3.1332,3.0671,3.0984,3.1248,3.1311,3.1469,3.1582,3.1582,3.1607,3.157,3.1507,3.1457,3.1406,3.1432,3.165,3.1406,3.108,3.1306,3.1256,3.0846,3.0753,3.0778,3.0967,3.1148,3.1185,3.0821,3.0124,2.9616,2.9051,2.8394,2.772,2.7711,2.7733,2.7846,2.7946,2.8197,2.8147,2.8235,2.8518,2.8769,2.8856,2.9045,2.9176,2.8906,2.9435,2.9927,3.0642,3.1379,3.2361,3.3208,3.3899,3.4872,3.5472,3.5441,3.5392,3.5424,3.5489,3.5892,3.6264,3.6845,3.7325,3.7436,3.7453,3.736,3.7255,3.724,3.6894,3.6267,3.5998,3.6133,3.6523,3.6994,3.7605,3.8195,3.9326,4.0522,4.1325,4.2125,4.3123,3.5489,3.5489,3.5489,3.5489,3.5489,3.5489,3.5489,3.5489,3.5489,3.5489,3.5489,3.5489,3.5489,3.5489,3.5489,3.5654,3.5953,3.6013,3.6178,3.6492,3.6806,3.6971,3.7017,3.73,3.7614,3.7955,3.82,3.7991,3.7398,3.6775,3.6215,3.5121,3.4307,3.3106,3.2032,3.1625,3.1472,3.1143,3.1512,3.1813,3.1863,3.2072,3.2248,3.2273,3.2261,3.2286,3.2286,3.2286,3.2298,3.2349,3.2462,3.2336,3.2194,3.2156,3.2215,3.1571,3.1449,3.1432,3.1494,3.1574,3.1449,3.0608,3.0269,2.9741,2.9095,2.8359,2.8181,2.8184,2.8435,2.851,2.8505,2.8762,2.8963,2.9013,2.9202,2.9296,2.9415,2.9641,2.9541,2.9333,2.9605,2.9929,3.0209,3.101,3.1874,3.2571,3.314,3.4126,3.5197,3.5197,3.5019,3.5678,3.5878,3.6577,3.7011,3.7524,3.7968,3.8095,3.8045,3.7953,3.7821,3.7776,3.7402,3.6834,3.6729,3.6881,3.7036,3.7519,3.8184,3.889,3.9867,4.0841,4.1758,4.2676,4.3636,3.5489,3.5489,3.5489,3.5489,3.5489,3.5489,3.5489,3.5489,3.5489,3.5489,3.5489,3.5504,3.5594,3.573,3.582,3.6058,3.6626,3.6567,3.6778,3.724,3.7507,3.7614,3.774,3.8092,3.8455,3.8637,3.894,3.8843,3.7983,3.7043,3.5865,3.4958,3.3729,3.2511,3.1843,3.1721,3.157,3.1712,3.2102,3.2344,3.2495,3.2817,3.3102,3.3102,3.3102,3.3052,3.2964,3.2952,3.2964,3.2977,3.3006,3.2889,3.2664,3.2655,3.2416,3.1873,3.1689,3.1742,3.1859,3.1901,3.1687,3.0846,3.0583,2.9842,2.9189,2.8856,2.8524,2.853,2.8787,2.9082,2.9139,2.949,2.9679,2.9716,2.9691,2.9767,2.9716,2.9767,2.9754,2.9704,2.9779,2.9895,3.0094,3.0216,3.1005,3.1412,3.1951,3.3363,3.4324,3.4428,3.4614,3.572,3.6464,3.7321,3.7867,3.8285,3.8661,3.8865,3.8757,3.8614,3.8434,3.8285,3.7926,3.7716,3.7851,3.8003,3.802,3.8049,3.8641,3.9371,4.0244,4.1227,4.2314,4.3137,4.3977,3.5489,3.5489,3.5489,3.5489,3.5489,3.5489,3.5519,3.5534,3.5564,3.5489,3.5514,3.5594,3.6001,3.6424,3.6435,3.6763,3.7015,3.6926,3.7077,3.7674,3.8078,3.8287,3.8377,3.896,3.9071,3.917,3.9311,3.9338,3.8583,3.7723,3.6845,3.5647,3.4193,3.3149,3.2218,3.2127,3.2114,3.2215,3.2667,3.2964,3.2964,3.3052,3.309,3.3102,3.3102,3.3102,3.3102,3.3102,3.3102,3.309,3.309,3.237,3.1289,3.1267,3.1166,3.1336,3.1925,3.2889,3.2704,3.2416,3.2081,3.1411,3.1047,3.0595,2.9928,2.9437,2.9211,2.9623,2.959,2.9463,2.9373,2.9703,2.9785,2.988,2.998,2.9955,2.9917,3.0018,2.9993,2.9867,2.9905,2.9829,2.9895,2.9909,3.0025,3.0369,3.0968,3.2421,3.3736,3.4168,3.5039,3.6325,3.7075,3.7873,3.8382,3.8859,3.905,3.9376,3.9272,3.9122,3.8958,3.8823,3.9032,3.8913,3.8958,3.8763,3.8527,3.8657,3.9137,3.9876,4.0817,4.1885,4.2982,4.3693,4.4138,3.5848,3.5489,3.5489,3.5489,3.5489,3.5489,3.5729,3.6013,3.6058,3.5848,3.5709,3.6315,3.6808,3.7096,3.7047,3.736,3.7778,3.7661,3.7928,3.8359,3.8778,3.8928,3.902,3.9242,3.9406,3.9247,3.9301,3.8896,3.8401,3.7401,3.6363,3.5339,3.4138,3.3215,3.2663,3.2692,3.2704,3.2767,3.2964,3.309,3.3102,3.3102,3.3102,3.3102,3.3102,3.3102,3.3059,3.3102,3.3102,3.304,3.2864,3.1988,3.0978,3.072,3.0678,3.0764,3.1432,3.228,3.2861,3.2474,3.2127,3.1675,3.1047,3.0482,3.0088,2.9411,2.8899,2.8794,2.884,2.8884,2.9194,2.9742,3.0095,3.0294,3.0419,3.0545,3.0495,3.0306,3.0274,3.0124,3.0011,3.0011,2.9986,3.0026,3.0055,3.0176,3.0716,3.1785,3.36,3.5107,3.6161,3.7448,3.7975,3.8424,3.8829,3.9215,3.92,3.9406,3.9406,3.9287,3.9331,3.9361,3.9406,3.9406,3.9242,3.9062,3.8931,3.9103,3.939,4.0339,4.1385,4.2156,4.2862,4.3244,4.3684,3.6417,3.5968,3.5818,3.5759,3.5744,3.5759,3.6028,3.6479,3.6656,3.6437,3.6369,3.7096,3.7612,3.7642,3.7704,3.8018,3.8616,3.8482,3.8826,3.9197,3.9352,3.9151,3.903,3.9104,3.9053,3.8657,3.8745,3.8088,3.7016,3.6219,3.544,3.4664,3.3733,3.3189,3.312,3.3052,3.3027,3.304,3.3065,3.3102,3.3102,3.3102,3.3102,3.3102,3.3081,3.2961,3.2677,3.259,3.2568,3.1926,3.1608,3.0761,2.9817,2.9512,2.9522,2.9704,3.0294,3.1301,3.1975,3.2095,3.1801,3.1348,3.0758,3.0193,2.98,2.8785,2.8224,2.8454,2.8263,2.8342,2.8694,2.9851,3.0431,3.0821,3.1072,3.1281,3.1356,3.1022,3.0809,3.0746,3.06,3.0373,3.0355,3.0287,3.0237,3.0152,3.0628,3.1406,3.3348,3.5619,3.6959,3.8118,3.8556,3.8856,3.9095,3.9361,3.9391,3.9406,3.9406,3.9406,3.9406,3.9406,3.9406,3.9406,3.9406,3.9331,3.9152,3.9379,3.9648,4.0452,4.1217,4.1901,4.2489,4.2911,4.3429,3.7313,3.7223,3.6688,3.6449,3.6434,3.6434,3.6479,3.6733,3.715,3.7325,3.7389,3.7971,3.8332,3.8317,3.8377,3.8676,3.9257,3.8676,3.8898,3.9227,3.9334,3.8855,3.8653,3.8583,3.8387,3.7089,3.7444,3.6788,3.5494,3.5305,3.4856,3.454,3.3522,3.3219,3.3102,3.3102,3.3102,3.3102,3.3102,3.3102,3.3102,3.3102,3.3102,3.3102,3.3016,3.259,3.1456,3.15,3.1089,3.0248,2.9985,2.9421,2.857,2.8207,2.8161,2.8487,2.9062,3.0181,3.1167,3.1709,3.15,3.1122,3.062,3.0055,2.9896,2.8781,2.8374,2.8419,2.8023,2.8336,2.9064,3.0126,3.0707,3.1311,3.1599,3.1771,3.1783,3.1537,3.1348,3.1336,3.1173,3.0869,3.0911,3.0894,3.0914,3.0863,3.1074,3.1836,3.3983,3.6108,3.7432,3.8483,3.897,3.9227,3.9302,3.9406,3.9406,3.9406,3.9406,3.9406,3.9406,3.9406,3.9406,3.9406,3.9406,3.9406,3.9406,3.9445,3.9702,4.0361,4.1012,4.1573,4.2302,4.2927,4.3501,3.8257,3.8554,3.7928,3.7419,3.706,3.706,3.7302,3.7676,3.7913,3.8272,3.8614,3.8898,3.902,3.9005,3.902,3.9122,3.9346,3.9167,3.9194,3.9302,3.9265,3.8745,3.8379,3.7866,3.7644,3.6473,3.6565,3.6206,3.4938,3.4594,3.4163,3.3755,3.3292,3.3197,3.3102,3.3102,3.3102,3.3102,3.3102,3.3102,3.3102,3.3102,3.3102,3.3102,3.3102,3.2438,3.1456,3.1223,3.0462,2.9602,2.9024,2.8287,2.7599,2.7251,2.7215,2.7476,2.8132,2.9246,3.0805,3.1437,3.1621,3.0914,3.0512,3.0306,3.0188,2.8894,2.8205,2.7931,2.7468,2.7558,2.8468,2.9687,3.0775,3.1614,3.2102,3.2273,3.2223,3.2014,3.1913,3.1901,3.1587,3.1248,3.1403,3.1583,3.1601,3.1638,3.1894,3.252,3.4644,3.6442,3.7737,3.8698,3.9179,3.9346,3.9406,3.9406,3.9406,3.9406,3.9406,3.9406,3.9406,3.9406,3.9406,3.9406,3.9406,3.9406,3.9406,3.9406,3.9722,4.028,4.0684,4.1079,4.1918,4.2794,4.3573,3.8975,3.9316,3.8901,3.8317,3.7749,3.7704,3.7943,3.8362,3.8634,3.8945,3.9406,3.9406,3.9406,3.9406,3.9391,3.9376,3.9391,3.9325,3.9111,3.898,3.8727,3.8102,3.7415,3.6905,3.654,3.5714,3.5594,3.5177,3.415,3.4212,3.3818,3.3368,3.3102,3.3102,3.3102,3.3102,3.3102,3.3102,3.3102,3.3102,3.3102,3.3102,3.3102,3.3102,3.3102,3.2108,3.1045,3.0384,2.9567,2.8547,2.7766,2.7456,2.7029,2.6743,2.6702,2.6978,2.7565,2.8495,2.9851,3.1362,3.1676,3.111,3.0934,3.0846,3.0396,2.9106,2.8098,2.8064,2.7104,2.6669,2.8021,2.9677,3.1113,3.2061,3.2608,3.2788,3.2751,3.2625,3.2528,3.2466,3.2164,3.2022,3.2089,3.2294,3.2282,3.2493,3.307,3.3727,3.5154,3.6769,3.792,3.8744,3.9313,3.9391,3.9406,3.9406,3.9406,3.9406,3.9406,3.9406,3.9406,3.9406,3.9406,3.9406,3.9406,3.9406,3.9406,3.9421,3.9713,4.0117,4.0523,4.0957,4.1416,4.233,4.3509,3.9376,3.9406,3.9361,3.8975,3.8392,3.8377,3.8424,3.8571,3.9065,3.9331,3.9391,3.9406,3.9406,3.9406,3.9406,3.9406,3.9406,3.937,3.8962,3.8252,3.8121,3.6783,3.5955,3.5581,3.542,3.3932,3.4066,3.4178,3.3304,3.342,3.3197,3.3167,3.3102,3.3102,3.3102,3.3102,3.3102,3.3102,3.3102,3.3102,3.3102,3.3102,3.3102,3.3102,3.3102,3.2108,3.0316,2.9818,2.8762,2.6884,2.643,2.618,2.6041,2.5964,2.593,2.597,2.6945,2.7542,2.796,3.058,3.1294,3.0939,3.0547,3.0795,3.0692,2.9442,2.8154,2.8366,2.7079,2.7239,2.8544,2.9867,3.0978,3.209,3.2559,3.2948,3.2864,3.3002,3.2876,3.2813,3.2952,3.3027,3.3014,3.3014,3.2977,3.3322,3.4085,3.4994,3.591,3.672,3.7724,3.8819,3.9406,3.9406,3.9406,3.9406,3.9406,3.9406,3.9406,3.9406,3.9406,3.9406,3.9406,3.9406,3.9406,3.9406,3.9421,3.9421,4.0006,4.0588,4.0614,4.0939,4.1306,4.222,4.3827,3.9406,3.9406,3.9406,3.9272,3.9062,3.9065,3.9062,3.911,3.9302,3.9406,3.9406,3.9406,3.9406,3.9406,3.9406,3.9406,3.9406,3.937,3.8833,3.7866,3.7677,3.6489,3.5427,3.4767,3.4436,3.3556,3.3535,3.3607,3.3167,3.3102,3.3102,3.3102,3.3102,3.3102,3.3102,3.3102,3.3102,3.3102,3.3102,3.3102,3.3102,3.3102,3.3081,3.3059,3.3004,3.1767,2.9521,2.9235,2.8004,2.6052,2.5708,2.5708,2.5708,2.5708,2.5708,2.5708,2.6356,2.6764,2.7615,2.9308,2.9976,2.9737,2.9756,3.0112,3.0317,2.8847,2.8483,2.8342,2.6954,2.7087,2.79,2.8306,2.934,3.1105,3.1877,3.2426,3.2609,3.2936,3.3027,3.3014,3.3102,3.3102,3.3102,3.3102,3.3102,3.3102,3.367,3.4863,3.5865,3.6353,3.7123,3.8583,3.9406,3.9406,3.9406,3.9406,3.9406,3.9406,3.9406,3.9406,3.9406,3.9406,3.9406,3.9406,3.9406,3.9421,3.9679,4.0044,4.0669,4.1104,4.1319,4.1535,4.1961,4.333,4.5205,3.9406,3.9406,3.9406,3.9406,3.9406,3.9406,3.9406,3.9406,3.9406,3.9406,3.9406,3.9406,3.9406,3.9406,3.9406,3.9406,3.937,3.8943,3.8256,3.7305,3.6788,3.5534,3.4532,3.4163,3.3763,3.3197,3.3102,3.3102,3.3102,3.3102,3.3102,3.3102,3.3102,3.3102,3.3102,3.3102,3.3102,3.3102,3.3102,3.3102,3.3102,3.3047,3.284,3.2513,3.2064,3.1247,2.9498,2.8437,2.7874,2.6308,2.5708,2.5708,2.5708,2.5708,2.5708,2.5708,2.5805,2.6183,2.6972,2.7403,2.7838,2.7645,2.8256,2.9195,2.9654,2.8509,2.8236,2.7808,2.6682,2.6826,2.7268,2.7505,2.8889,3.0698,3.1733,3.2317,3.2732,3.3059,3.3102,3.3102,3.3102,3.3102,3.3102,3.3102,3.3102,3.3102,3.3188,3.4464,3.5701,3.6198,3.6871,3.8345,3.9352,3.9406,3.9406,3.9406,3.9406,3.9406,3.9406,3.9406,3.9406,3.9406,3.9406,3.9496,3.9705,3.9948,4.0287,4.0733,4.1385,4.1925,4.2309,4.2518,4.272,4.4095,4.5871,3.9406,3.9406,3.9406,3.9406,3.9406,3.9406,3.9406,3.9406,3.9406,3.9406,3.9406,3.9406,3.9406,3.9406,3.9406,3.9301,3.9086,3.829,3.7252,3.6265,3.5561,3.4324,3.3662,3.3283,3.3261,3.3176,3.3102,3.3102,3.3102,3.3102,3.3102,3.3102,3.3102,3.3102,3.3102,3.3102,3.3102,3.3102,3.3102,3.3102,3.3102,3.2797,3.2239,3.1733,3.1168,2.9977,2.8588,2.7744,2.7006,2.6173,2.5708,2.5708,2.5708,2.5708,2.5708,2.5708,2.5708,2.5805,2.5917,2.6245,2.6187,2.6513,2.7789,2.8822,2.8891,2.8066,2.7652,2.7352,2.6586,2.6849,2.7136,2.8226,2.9361,3.0755,3.1987,3.2525,3.2939,3.3102,3.3102,3.3102,3.3102,3.3102,3.3102,3.3102,3.3102,3.3102,3.3283,3.4087,3.5224,3.602,3.6857,3.8364,3.9156,3.937,3.9406,3.9406,3.9406,3.9406,3.9406,3.9406,3.9406,3.9451,3.9541,3.9735,4.0157,4.0535,4.1036,4.1562,4.2118,4.2603,4.2891,4.2966,4.3035,4.4211,4.5706,3.9406,3.9406,3.9406,3.9406,3.9406,3.9388,3.9406,3.9406,3.9406,3.9388,3.9406,3.9406,3.9247,3.9406,3.9388,3.8907,3.8379,3.7734,3.6574,3.5595,3.4753,3.3982,3.345,3.3102,3.3102,3.3102,3.3102,3.3102,3.3102,3.3102,3.3102,3.3102,3.3102,3.3102,3.3102,3.3102,3.3102,3.3102,3.3102,3.3102,3.2677,3.2106,3.1488,3.1023,3.0226,2.897,2.7885,2.7471,2.6778,2.5965,2.5732,2.5708,2.5708,2.5708,2.5708,2.5708,2.5708,2.5708,2.5708,2.5708,2.5708,2.5708,2.6586,2.7186,2.7423,2.7268,2.6778,2.6634,2.638,2.6428,2.6849,2.7851,2.8993,3.0158,3.1468,3.2469,3.2862,3.3102,3.3102,3.3102,3.3102,3.3102,3.3102,3.3102,3.3102,3.3102,3.3377,3.4003,3.4815,3.5614,3.6721,3.82,3.9086,3.937,3.9406,3.9406,3.9406,3.9406,3.9406,3.9406,3.9406,3.9481,3.9675,4.0127,4.0726,4.1358,4.1946,4.2383,4.2636,4.2918,4.318,4.326,4.3551,4.4668,4.5595,3.9406,3.9406,3.9406,3.9174,3.88,3.8749,3.8583,3.8275,3.855,3.8583,3.8204,3.8564,3.8531,3.8148,3.8401,3.8163,3.7156,3.6534,3.5702,3.5088,3.4283,3.3691,3.324,3.3102,3.3102,3.3102,3.3102,3.3102,3.3102,3.3102,3.3102,3.3102,3.3102,3.3102,3.3102,3.3102,3.3102,3.3102,3.3102,3.3102,3.2479,3.1474,3.0875,3.0259,2.9338,2.8132,2.7102,2.6935,2.6404,2.5805,2.5708,2.5708,2.5708,2.5708,2.5708,2.5708,2.5708,2.5708,2.5708,2.5708,2.5708,2.5708,2.5708,2.6159,2.6366,2.6318,2.6342,2.6356,2.5989,2.5868,2.65,2.7197,2.8285,2.9407,3.0822,3.2261,3.2698,3.3059,3.3102,3.3102,3.3102,3.3102,3.3102,3.3102,3.3102,3.3102,3.3145,3.342,3.4332,3.5366,3.6501,3.7866,3.8764,3.9406,3.9406,3.9421,3.9451,3.9436,3.9406,3.9406,3.9421,3.966,3.9975,4.0666,4.1444,4.2032,4.2571,4.2725,4.2954,4.3195,4.3324,4.3359,4.383,4.4937,4.5742,3.9337,3.9195,3.9192,3.8564,3.7881,3.7753,3.7098,3.6251,3.7093,3.7079,3.6604,3.7266,3.7214,3.693,3.731,3.704,3.6186,3.5474,3.4999,3.454,3.3721,3.3197,3.3188,3.3102,3.3102,3.3102,3.3102,3.3102,3.3102,3.3102,3.3102,3.3102,3.3102,3.3102,3.3102,3.3102,3.3102,3.3102,3.3102,3.3081,3.2609,3.1526,3.0155,2.9373,2.8215,2.6935,2.61,2.5757,2.5708,2.5708,2.5708,2.5708,2.5708,2.5708,2.5708,2.5708,2.5708,2.5708,2.5708,2.5708,2.5708,2.5708,2.5708,2.5805,2.5878,2.5878,2.6038,2.6052,2.5757,2.5708,2.6173,2.7281,2.8425,2.9521,3.0799,3.2074,3.2862,3.3102,3.3102,3.3102,3.3102,3.3102,3.3102,3.3102,3.3102,3.3102,3.3124,3.321,3.4066,3.5183,3.6192,3.7477,3.8583,3.9337,3.9406,3.9436,3.9496,3.9481,3.9511,3.978,4.0083,4.0214,4.0333,4.1276,4.2263,4.2607,4.303,4.309,4.3105,4.322,4.3344,4.3434,4.4151,4.5402,4.607,3.8925,3.8092,3.7324,3.7252,3.7644,3.691,3.6007,3.5088,3.5292,3.5742,3.6172,3.6408,3.6408,3.6113,3.635,3.6027,3.5109,3.4684,3.4191,3.3797,3.3176,3.3124,3.3102,3.3102,3.3102,3.3102,3.3102,3.3102,3.3102,3.3102,3.3102,3.3102,3.3102,3.3102,3.3102,3.3102,3.3102,3.3102,3.3102,3.3004,3.2643,3.1011,2.9476,2.8693,2.7615,2.6332,2.5708,2.5708,2.5708,2.5708,2.5708,2.5708,2.5708,2.5708,2.5708,2.5708,2.5708,2.5708,2.5708,2.5708,2.5708,2.5708,2.5708,2.5708,2.5708,2.5708,2.5708,2.5708,2.5708,2.5708,2.6052,2.7329,2.8541,2.9658,3.0777,3.1899,3.2982,3.3081,3.3102,3.3102,3.3102,3.3102,3.3102,3.3102,3.3102,3.3102,3.3102,3.3377,3.4304,3.5285,3.5821,3.7046,3.8531,3.9232,3.9397,3.9616,3.978,3.9855,3.993,4.0292,4.0741,4.1059,4.1384,4.2293,4.3095,4.317,4.3205,4.325,4.328,4.3394,4.3628,4.3828,4.4987,4.6286,4.6696,3.8345,3.7682,3.6643,3.6265,3.6312,3.5762,3.4945,3.4108,3.3995,3.4304,3.487,3.5224,3.5285,3.5095,3.5278,3.4993,3.4178,3.3982,3.3649,3.3261,3.3102,3.3102,3.3102,3.3102,3.3102,3.3102,3.3102,3.3102,3.3102,3.3102,3.3102,3.3102,3.3102,3.3102,3.3102,3.3102,3.3102,3.3102,3.3102,3.2797,3.2314,3.0528,2.9042,2.8197,2.7006,2.5868,2.5708,2.5708,2.5708,2.5708,2.5708,2.5708,2.5708,2.5708,2.5708,2.5708,2.5708,2.5708,2.5708,2.5708,2.5708,2.5708,2.5708,2.5708,2.5708,2.5708,2.5708,2.5708,2.5708,2.5708,2.6038,2.703,2.8272,2.943,3.062,3.1755,3.2633,3.3102,3.3102,3.3102,3.3102,3.3102,3.3102,3.3102,3.3102,3.3102,3.3102,3.3176,3.4157,3.5278,3.5834,3.6724,3.8292,3.9438,3.9893,4.0098,4.0232,4.0307,4.0427,4.116,4.1803,4.2077,4.2511,4.298,4.326,4.3275,4.329,4.3364,4.3604,4.3833,4.4058,4.4288,4.5727,4.7244,4.8015,3.7734,3.7472,3.6271,3.5406,3.4746,3.4553,3.3982,3.324,3.3145,3.3167,3.3364,3.417,3.3839,3.3734,3.3945,3.3607,3.3407,3.342,3.3176,3.3133,3.3124,3.3102,3.3102,3.3102,3.3102,3.3102,3.3102,3.3102,3.3102,3.3102,3.3102,3.3102,3.3102,3.3102,3.3102,3.3102,3.3102,3.3102,3.2896,3.223,3.1174,2.9941,2.8879,2.7668,2.6476,2.5781,2.5708,2.5708,2.5708,2.5708,2.5708,2.5708,2.5708,2.5708,2.5708,2.5708,2.5708,2.5708,2.5708,2.5708,2.5708,2.5708,2.5708,2.5708,2.5708,2.5708,2.5708,2.5708,2.5708,2.5805,2.6135,2.6548,2.7767,2.9361,3.0575,3.1755,3.2503,3.3102,3.3102,3.3102,3.3102,3.3102,3.3102,3.3102,3.3102,3.3102,3.3145,3.3219,3.3628,3.4836,3.5748,3.6836,3.824,3.9257,4.0129,4.0472,4.058,4.1059,4.1313,4.2147,4.2741,4.2761,4.2865,4.3085,4.3305,4.3334,4.3439,4.3509,4.3813,4.4222,4.4955,4.5539,4.7016,4.8456,4.9583,3.7305,3.635,3.4485,3.4045,3.4477,3.3797,3.3283,3.3145,3.3102,3.3102,3.3154,3.3206,3.3219,3.3102,3.324,3.3197,3.3219,3.3102,3.3102,3.3124,3.3102,3.3102,3.3102,3.3102,3.3102,3.3102,3.3102,3.3102,3.3102,3.3102,3.3102,3.3102,3.3102,3.3102,3.3102,3.3102,3.3102,3.3081,3.2658,3.1989,3.0319,2.9317,2.8742,2.7585,2.638,2.5917,2.5708,2.5708,2.5708,2.5708,2.5708,2.5708,2.5708,2.5708,2.5708,2.5708,2.5708,2.5708,2.5708,2.5708,2.5708,2.5708,2.5708,2.5708,2.5708,2.5708,2.5708,2.5708,2.5708,2.5708,2.5893,2.5893,2.6839,2.9223,3.0923,3.1999,3.2918,3.3081,3.3102,3.3102,3.3102,3.3102,3.3102,3.3102,3.3102,3.3102,3.3102,3.324,3.3763,3.4712,3.5615,3.6887,3.8146,3.9258,4.0196,4.0629,4.0891,4.1478,4.2017,4.2521,4.2906,4.316,4.3275,4.329,4.3364,4.3409,4.3509,4.3808,4.4196,4.4733,4.5909,4.6951,4.8384,4.9496,5.0451]}]]